DO3MHA-13 Weather Reports


Display with metric or nautical units.
time (UTC)temp
F
wind
direction
speed
MPH
gust
MPH
rain 1hr
in
rain 24hr
in
rain mn
in
humidity
%
barometer
mb
20260505205237 0 225 0.0 4.0 0.00 0.01 0.00 999.3
20260505205157 0 225 0.0 4.0 0.00 0.01 0.00 999.3
20260505205147 0 225 1.0 4.0 0.00 0.01 0.00 999.3
20260505205127 0 203 0.0 4.0 0.00 0.01 0.00 999.3
20260505205107 0 225 0.0 4.0 0.00 0.01 0.00 999.3
20260505205047 0 180 0.0 4.0 0.00 0.01 0.00 999.3
20260505205028 0 225 0.0 4.0 0.00 0.01 0.00 999.3
20260505205018 0 225 1.0 4.0 0.00 0.01 0.00 999.3
20260505204948 0 225 2.0 4.0 0.00 0.01 0.00 999.2
20260505204938 0 225 2.0 4.0 0.00 0.01 0.00 999.3
20260505204928 0 225 3.0 4.0 0.00 0.01 0.00 999.2
20260505204848 0 225 3.0 4.0 0.00 0.01 0.00 999.2
20260505204818 0 270 2.0 4.0 0.00 0.01 0.00 999.2
20260505204808 0 225 2.0 4.0 0.00 0.01 0.00 999.2
20260505204728 0 270 2.0 4.0 0.00 0.01 0.00 999.2
20260505204658 0 270 2.0 4.0 0.00 0.01 0.00 999.1
20260505204648 0 270 2.0 4.0 0.00 0.01 0.00 999.2
20260505204638 0 248 2.0 4.0 0.00 0.01 0.00 999.2
20260505204628 0 225 2.0 4.0 0.00 0.01 0.00 999.2
20260505204618 0 248 2.0 4.0 0.00 0.01 0.00 999.1
20260505204608 0 270 2.0 4.0 0.00 0.01 0.00 999.1
20260505204558 0 225 2.0 4.0 0.00 0.01 0.00 999.1
20260505204548 0 225 2.0 4.0 0.00 0.01 0.00 999.2
20260505204518 0 270 2.0 4.0 0.00 0.01 0.00 999.1
20260505204508 0 270 2.0 4.0 0.00 0.01 0.00 999.2
20260505204428 0 270 2.0 4.0 0.00 0.01 0.00 999.1
20260505204349 0 270 2.0 4.0 0.00 0.01 0.00 999.1
20260505204309 0 270 2.0 4.0 0.00 0.01 0.00 999.1
20260505204229 0 270 2.0 4.0 0.00 0.01 0.00 999.1
20260505204149 0 270 2.0 5.0 0.00 0.01 0.00 999.1
20260505204109 0 270 2.0 5.0 0.00 0.01 0.00 999.0
20260505204039 0 270 2.0 5.0 0.00 0.01 0.00 999.1
20260505204029 61 270 2.0 5.0 0.00 0.01 0.00 73 999.0
20260505204019 0 270 2.0 5.0 0.00 0.01 0.00 999.0
20260505203949 0 270 2.0 5.0 0.00 0.01 0.00 999.1
20260505203939 0 270 2.0 5.0 0.00 0.01 0.00 999.0
20260505203859 0 270 2.0 5.0 0.00 0.01 0.00 999.0
20260505203839 0 270 2.0 5.0 0.00 0.01 0.00 999.1
20260505203819 0 270 2.0 5.0 0.00 0.01 0.00 999.0
20260505203749 0 270 3.0 5.0 0.00 0.01 0.00 915.3
20260505203739 0 270 3.0 5.0 0.00 0.01 0.00 999.0
20260505203720 0 315 2.0 6.0 0.00 0.01 0.00 999.0
20260505203700 0 270 2.0 6.0 0.00 0.01 0.00 999.0
20260505203650 61 315 2.0 6.0 0.00 0.01 0.00 73 999.0
20260505203640 0 315 2.0 6.0 0.00 0.01 0.00 998.9
20260505203620 0 315 2.0 6.0 0.00 0.01 0.00 999.0
20260505203601 0 315 2.0 6.0 0.00 0.01 0.00 998.9
20260505203530 0 270 2.0 6.0 0.00 0.01 0.00 998.9
20260505203520 0 315 2.0 6.0 0.00 0.01 0.00 998.9
20260505203510 0 315 2.0 6.0 0.00 0.01 0.00 999.0
20260505203450 0 270 3.0 6.0 0.00 0.01 0.00 998.9
20260505203440 0 293 3.0 6.0 0.00 0.01 0.00 998.9
20260505203420 0 315 3.0 6.0 0.00 0.01 0.00 998.9
20260505203410 0 270 3.0 6.0 0.00 0.01 0.00 998.9
20260505203400 0 315 4.0 6.0 0.00 0.01 0.00 998.9
20260505203330 0 270 4.0 6.0 0.00 0.01 0.00 998.9
20260505203310 0 315 4.0 6.0 0.00 0.01 0.00 998.9
20260505203230 0 315 4.0 6.0 0.00 0.01 0.00 998.9
20260505203220 0 315 4.0 5.0 0.00 0.01 0.00 998.9
20260505203210 0 293 4.0 5.0 0.00 0.01 0.00 998.8
20260505203200 0 270 4.0 5.0 0.00 0.01 0.00 998.9
20260505203151 0 270 3.0 5.0 0.00 0.01 0.00 998.9
20260505203140 0 315 3.0 5.0 0.00 0.01 0.00 998.9
20260505203130 0 315 4.0 5.0 0.00 0.01 0.00 998.8
20260505203100 0 315 4.0 5.0 0.00 0.01 0.00 998.9
20260505203051 0 293 4.0 5.0 0.00 0.01 0.00 998.8
20260505203041 0 293 4.0 5.0 0.00 0.01 0.00 998.9
20260505203031 0 315 4.0 6.0 0.00 0.01 0.00 998.8
20260505203011 0 315 3.0 7.0 0.00 0.01 0.00 998.9
20260505203001 0 315 3.0 7.0 0.00 0.01 0.00 998.8
20260505202951 0 270 3.0 7.0 0.00 0.01 0.00 998.9
20260505202941 0 315 2.0 7.0 0.00 0.01 0.00 998.8
20260505202931 0 270 3.0 7.0 0.00 0.01 0.00 998.8
20260505202911 0 315 2.0 7.0 0.00 0.01 0.00 998.9
20260505202901 0 270 2.0 7.0 0.00 0.01 0.00 998.8
20260505202841 0 315 3.0 7.0 0.00 0.01 0.00 998.8
20260505202821 0 315 3.0 7.0 0.00 0.01 0.00 998.9
20260505202811 0 270 3.0 7.0 0.00 0.01 0.00 998.8
20260505202801 0 315 3.0 7.0 0.00 0.01 0.00 998.8
20260505202751 0 293 3.0 7.0 0.00 0.01 0.00 998.8
20260505202741 0 315 3.0 7.0 0.00 0.01 0.00 998.9
20260505202721 0 315 3.0 7.0 0.00 0.01 0.00 998.8
20260505202711 0 315 4.0 7.0 0.00 0.01 0.00 998.9
20260505202641 0 315 4.0 7.0 0.00 0.01 0.00 998.8
20260505202611 0 315 4.0 8.0 0.00 0.01 0.00 998.8
20260505202531 0 315 4.0 8.0 0.00 0.01 0.00 998.8
20260505202521 0 293 4.0 10.0 0.00 0.01 0.00 998.8
20260505202501 0 270 4.0 11.0 0.00 0.01 0.00 998.8
20260505202451 0 315 4.0 11.0 0.00 0.01 0.00 998.8
20260505202431 0 293 4.0 11.0 0.00 0.01 0.00 998.8
20260505202411 0 315 4.0 11.0 0.00 0.01 0.00 998.8
20260505202352 63 315 4.0 11.0 0.00 0.01 0.00 71 998.8
20260505202341 0 270 4.0 11.0 0.00 0.01 0.00 998.8
20260505202332 0 315 4.0 11.0 0.00 0.01 0.00 998.8
20260505202302 0 270 4.0 11.0 0.00 0.01 0.00 998.8
20260505202252 0 315 4.0 11.0 0.00 0.01 0.00 998.8
20260505202242 0 0 4.0 11.0 0.00 0.01 0.00 998.8
20260505202212 0 315 4.0 11.0 0.00 0.01 0.00 998.8
20260505202202 0 293 4.0 11.0 0.00 0.01 0.00 998.8
20260505202152 0 270 4.0 11.0 0.00 0.01 0.00 998.8
20260505202132 0 315 4.0 11.0 0.00 0.01 0.00 998.8
20260505202122 0 315 5.0 11.0 0.00 0.01 0.00 998.8
20260505202112 0 315 6.0 11.0 0.00 0.01 0.00 998.8
20260505202042 0 293 6.0 11.0 0.00 0.01 0.00 998.8
20260505202032 0 315 6.0 11.0 0.00 0.01 0.00 998.8
20260505202022 0 270 5.0 11.0 0.00 0.01 0.00 998.8
20260505202012 0 270 4.0 8.0 0.00 0.01 0.00 998.8
20260505201952 0 315 4.0 7.0 0.00 0.01 0.00 998.8
20260505201912 0 315 4.0 7.0 0.00 0.01 0.00 998.8
20260505201902 0 270 4.0 7.0 0.00 0.01 0.00 998.8
20260505201822 0 315 4.0 7.0 0.00 0.01 0.00 998.8
20260505201752 0 270 4.0 7.0 0.00 0.01 0.00 998.8
20260505201743 0 315 4.0 7.0 0.00 0.01 0.00 998.8
20260505201723 0 293 4.0 7.0 0.00 0.01 0.00 998.8
20260505201653 0 315 4.0 7.0 0.00 0.01 0.00 998.8
20260505201643 0 293 4.0 7.0 0.00 0.01 0.00 998.8
20260505201633 0 315 4.0 7.0 0.00 0.01 0.00 998.9
20260505201613 0 315 5.0 7.0 0.00 0.01 0.00 998.8
20260505201603 0 270 5.0 7.0 0.00 0.01 0.00 998.8
20260505201523 0 315 5.0 7.0 0.00 0.01 0.00 998.8
20260505201513 0 293 5.0 7.0 0.00 0.01 0.00 998.8
20260505201503 0 315 4.0 7.0 0.00 0.01 0.00 998.8
20260505201443 0 270 4.0 7.0 0.00 0.01 0.00 998.8
20260505201423 0 293 4.0 7.0 0.00 0.01 0.00 998.8
20260505201403 0 315 4.0 7.0 0.00 0.01 0.00 998.8
20260505201343 0 270 4.0 7.0 0.00 0.01 0.00 998.8
20260505201313 0 293 4.0 7.0 0.00 0.01 0.00 998.8
20260505201303 0 315 4.0 7.0 0.00 0.01 0.00 998.8
20260505201233 0 270 4.0 7.0 0.00 0.01 0.00 998.8
20260505201223 0 293 4.0 7.0 0.00 0.01 0.00 998.8
20260505201153 0 315 4.0 7.0 0.00 0.01 0.00 998.8
20260505201133 0 315 4.0 8.0 0.00 0.01 0.00 998.8
20260505201123 0 293 4.0 8.0 0.00 0.01 0.00 998.8
20260505201114 0 270 4.0 8.0 0.00 0.01 0.00 998.8
20260505201054 0 293 5.0 8.0 0.00 0.01 0.00 998.8
20260505201044 0 293 4.0 8.0 0.00 0.01 0.00 998.8
20260505201034 0 315 4.0 8.0 0.00 0.01 0.00 998.8
20260505201014 0 270 4.0 8.0 0.00 0.01 0.00 998.8
20260505201004 0 293 4.0 8.0 0.00 0.01 0.00 998.8
20260505200954 0 315 4.0 8.0 0.00 0.01 0.00 998.8
20260505200934 0 270 4.0 8.0 0.00 0.01 0.00 998.7
20260505200914 0 315 4.0 8.0 0.00 0.01 0.00 998.8
20260505200854 0 315 4.0 8.0 0.00 0.01 0.00 998.7
20260505200814 0 315 4.0 8.0 0.00 0.01 0.00 998.7
20260505200724 0 270 4.0 8.0 0.00 0.01 0.00 998.7
20260505200654 0 315 5.0 8.0 0.00 0.01 0.00 998.7
20260505200634 0 315 4.0 8.0 0.00 0.01 0.00 998.7
20260505200624 0 293 4.0 8.0 0.00 0.01 0.00 998.7
20260505200614 0 315 4.0 7.0 0.00 0.01 0.00 998.7
20260505200604 0 270 4.0 7.0 0.00 0.01 0.00 998.7
20260505200534 0 315 3.0 7.0 0.00 0.01 0.00 998.7
20260505200524 0 270 3.0 7.0 0.00 0.01 0.00 998.7
20260505200504 0 293 3.0 7.0 0.00 0.01 0.00 998.7
20260505200454 0 315 3.0 7.0 0.00 0.01 0.00 998.7
20260505200444 0 315 4.0 7.0 0.00 0.01 0.00 998.7
20260505200424 0 315 4.0 7.0 0.00 0.01 0.00 998.6
20260505200414 0 270 4.0 7.0 0.00 0.01 0.00 998.7
20260505200355 0 315 4.0 7.0 0.00 0.01 0.00 998.7
20260505200335 0 293 4.0 7.0 0.00 0.01 0.00 998.7
20260505200315 0 315 4.0 7.0 0.00 0.01 0.00 998.7
20260505200305 0 315 3.0 7.0 0.00 0.01 0.00 998.7
20260505200255 0 315 3.0 7.0 0.00 0.01 0.00 998.6
20260505200225 0 315 2.0 6.0 0.00 0.01 0.00 998.7
20260505200215 0 315 3.0 6.0 0.00 0.01 0.00 998.7
20260505200205 0 293 3.0 6.0 0.00 0.01 0.00 998.7
20260505200135 0 0 3.0 6.0 0.00 0.01 0.00 998.6
20260505200125 0 315 3.0 6.0 0.00 0.01 0.00 998.7
20260505200105 0 270 3.0 6.0 0.00 0.01 0.00 998.7
20260505200055 0 315 3.0 7.0 0.00 0.01 0.00 998.7
20260505200045 0 315 3.0 7.0 0.00 0.01 0.00 998.6
20260505200035 0 293 3.0 7.0 0.00 0.01 0.00 998.6
20260505200025 0 293 3.0 7.0 0.00 0.01 0.00 998.7
20260505200005 0 315 3.0 7.0 0.00 0.01 0.00 998.7
20260505195935 0 315 3.0 7.0 0.00 0.01 0.00 998.6
20260505195925 0 293 4.0 8.0 0.00 0.01 0.00 998.6
20260505195915 0 293 4.0 8.0 0.00 0.01 0.00 998.7
20260505195905 0 270 4.0 8.0 0.00 0.01 0.00 998.7
20260505195855 0 315 3.0 8.0 0.00 0.01 0.00 998.7
20260505195825 0 315 4.0 8.0 0.00 0.01 0.00 998.7
20260505195815 0 293 4.0 8.0 0.00 0.01 0.00 998.6
20260505195805 0 293 4.0 8.0 0.00 0.01 0.00 998.7
20260505195736 0 315 4.0 8.0 0.00 0.01 0.00 998.7
20260505195656 0 315 4.0 8.0 0.00 0.01 0.00 998.7
20260505195616 0 315 4.0 8.0 0.00 0.01 0.00 998.7
20260505195536 0 315 4.0 8.0 0.00 0.01 0.00 998.7
20260505195526 0 293 4.0 8.0 0.00 0.01 0.00 998.7
20260505195456 0 315 4.0 8.0 0.00 0.01 0.00 998.7
20260505195436 0 270 4.0 8.0 0.00 0.01 0.00 998.7
20260505195406 0 315 4.0 8.0 0.00 0.01 0.00 998.6
20260505195356 0 315 4.0 8.0 0.00 0.01 0.00 998.7
20260505195346 0 315 3.0 8.0 0.00 0.01 0.00 998.7
20260505195326 0 315 2.0 8.0 0.00 0.01 0.00 998.7
20260505195316 0 270 2.0 8.0 0.00 0.01 0.00 998.7
20260505195306 0 270 3.0 8.0 0.00 0.01 0.00 998.7
20260505195256 0 315 3.0 8.0 0.00 0.01 0.00 998.6
20260505195246 0 270 4.0 8.0 0.00 0.01 0.00 998.6
20260505195226 0 315 4.0 8.0 0.00 0.01 0.00 998.6
20260505195216 0 270 4.0 8.0 0.00 0.01 0.00 998.7
20260505195206 0 270 4.0 8.0 0.00 0.01 0.00 998.6
20260505195156 0 315 4.0 8.0 0.00 0.01 0.00 998.7
20260505195146 0 315 4.0 8.0 0.00 0.01 0.00 998.6
20260505195136 0 293 4.0 6.0 0.00 0.01 0.00 998.6
20260505195127 0 315 4.0 6.0 0.00 0.01 0.00 998.6
20260505195117 0 315 3.0 5.0 0.00 0.01 0.00 998.6
20260505195107 0 270 2.0 5.0 0.00 0.01 0.00 998.6
20260505195047 0 315 2.0 5.0 0.00 0.01 0.00 998.6
20260505195037 0 293 2.0 5.0 0.00 0.01 0.00 998.6
20260505195027 0 315 1.0 5.0 0.00 0.01 0.00 998.6
20260505195007 0 315 2.0 5.0 0.00 0.01 0.00 998.6
20260505194927 0 315 2.0 5.0 0.00 0.01 0.00 998.6
20260505194857 0 315 2.0 5.0 0.00 0.01 0.00 998.5
20260505194847 0 315 2.0 5.0 0.00 0.01 0.00 998.6
20260505194837 0 315 3.0 5.0 0.00 0.01 0.00 998.6
20260505194817 0 270 3.0 5.0 0.00 0.01 0.00 998.6
20260505194757 0 315 3.0 5.0 0.00 0.01 0.00 998.6
20260505194737 0 293 2.0 5.0 0.00 0.01 0.00 998.6
20260505194727 0 315 2.0 5.0 0.00 0.01 0.00 998.6
20260505194717 0 270 2.0 5.0 0.00 0.01 0.00 998.6
20260505194637 0 315 2.0 5.0 0.00 0.01 0.00 998.6
20260505194607 0 315 3.0 5.0 0.00 0.01 0.00 998.6
20260505194557 0 270 3.0 5.0 0.00 0.01 0.00 998.5
20260505194547 0 315 2.0 5.0 0.00 0.01 0.00 998.6
20260505194517 0 315 2.0 5.0 0.00 0.01 0.00 998.5
20260505194508 0 315 2.0 5.0 0.00 0.01 0.00 998.6
20260505194458 0 315 3.0 5.0 0.00 0.01 0.00 998.6
20260505194438 0 293 3.0 5.0 0.00 0.01 0.00 998.5
20260505194428 0 315 3.0 5.0 0.00 0.01 0.00 998.5
20260505194418 0 315 2.0 5.0 0.00 0.01 0.00 998.5
20260505194338 0 315 2.0 5.0 0.00 0.01 0.00 998.5
20260505194328 0 315 3.0 5.0 0.00 0.01 0.00 998.5
20260505194258 0 270 3.0 5.0 0.00 0.01 0.00 998.5
20260505194238 0 315 3.0 5.0 0.00 0.01 0.00 998.5
20260505194158 0 315 3.0 5.0 0.00 0.01 0.00 998.5
20260505194148 0 270 3.0 5.0 0.00 0.01 0.00 998.5
20260505194138 0 315 3.0 5.0 0.00 0.01 0.00 998.4
20260505194128 0 293 3.0 5.0 0.00 0.01 0.00 998.4
20260505194048 0 315 3.0 5.0 0.00 0.01 0.00 998.4
20260505194038 0 270 3.0 5.0 0.00 0.01 0.00 998.4
20260505194018 0 315 3.0 5.0 0.00 0.01 0.00 998.5
20260505193938 0 315 3.0 5.0 0.00 0.01 0.00 998.4
20260505193859 0 315 3.0 5.0 0.00 0.01 0.00 998.4
20260505193839 0 293 3.0 5.0 0.00 0.01 0.00 998.4
20260505193819 0 315 3.0 5.0 0.00 0.01 0.00 998.4
20260505193809 0 315 4.0 5.0 0.00 0.01 0.00 998.4
20260505193759 0 293 4.0 5.0 0.00 0.01 0.00 998.4
20260505193729 0 315 4.0 5.0 0.00 0.01 0.00 998.4
20260505193719 0 270 3.0 5.0 0.00 0.01 0.00 998.4
20260505193709 0 315 3.0 5.0 0.00 0.01 0.00 998.4
20260505193639 0 315 2.0 5.0 0.00 0.01 0.00 998.4
20260505193619 0 315 3.0 5.0 0.00 0.01 0.00 998.4
20260505193609 0 270 3.0 5.0 0.00 0.01 0.00 998.4
20260505193539 0 315 4.0 5.0 0.00 0.01 0.00 998.4
20260505193529 0 315 3.0 5.0 0.00 0.01 0.00 998.4
20260505193519 0 315 3.0 6.0 0.00 0.01 0.00 998.4
20260505193449 0 293 3.0 6.0 0.00 0.01 0.00 998.4
20260505193439 0 315 3.0 6.0 0.00 0.01 0.00 998.4
20260505193429 0 270 3.0 6.0 0.00 0.01 0.00 998.4
20260505193409 0 270 4.0 6.0 0.00 0.01 0.00 998.4
20260505193349 0 315 4.0 6.0 0.00 0.01 0.00 998.4
20260505193339 0 293 4.0 6.0 0.00 0.01 0.00 998.3
20260505193310 0 315 4.0 6.0 0.00 0.01 0.00 998.4
20260505193250 0 270 4.0 6.0 0.00 0.01 0.00 998.4
20260505193240 0 270 4.0 6.0 0.00 0.01 0.00 998.3
20260505193230 0 315 4.0 6.0 0.00 0.01 0.00 998.3
20260505193210 0 315 4.0 6.0 0.00 0.01 0.00 998.4
20260505193150 0 315 4.0 6.0 0.00 0.01 0.00 998.3
20260505193140 0 270 4.0 6.0 0.00 0.01 0.00 998.4
20260505193130 0 270 4.0 6.0 0.00 0.01 0.00 998.3
20260505193100 0 315 4.0 6.0 0.00 0.01 0.00 998.4
20260505193050 0 293 4.0 6.0 0.00 0.01 0.00 998.4
20260505193030 0 270 4.0 6.0 0.00 0.01 0.00 998.4
20260505193010 0 293 4.0 6.0 0.00 0.01 0.00 998.4
20260505192950 0 315 4.0 6.0 0.00 0.01 0.00 998.3
20260505192930 0 270 4.0 6.0 0.00 0.01 0.00 998.3
20260505192910 0 315 4.0 6.0 0.00 0.01 0.00 998.3
20260505192830 0 315 4.0 6.0 0.00 0.01 0.00 998.3
20260505192820 0 293 4.0 6.0 0.00 0.01 0.00 998.3
20260505192810 0 270 4.0 6.0 0.00 0.01 0.00 998.3
20260505192740 0 315 4.0 6.0 0.00 0.01 0.00 998.3
20260505192730 0 270 4.0 6.0 0.00 0.01 0.00 998.3
20260505192701 0 293 4.0 6.0 0.00 0.01 0.00 998.3
20260505192651 0 315 4.0 6.0 0.00 0.01 0.00 998.3
20260505192641 0 270 4.0 6.0 0.00 0.01 0.00 998.3
20260505192601 0 315 4.0 6.0 0.00 0.01 0.00 998.3
20260505192551 0 270 4.0 6.0 0.00 0.01 0.00 998.3
20260505192531 0 293 4.0 6.0 0.00 0.01 0.00 998.3
20260505192521 0 315 4.0 6.0 0.00 0.01 0.00 998.3
20260505192441 0 315 4.0 6.0 0.00 0.01 0.00 998.3
20260505192431 0 270 4.0 6.0 0.00 0.01 0.00 998.3
20260505192421 0 315 4.0 6.0 0.00 0.01 0.00 998.2
20260505192351 0 270 4.0 6.0 0.00 0.01 0.00 998.2
20260505192341 0 270 4.0 6.0 0.00 0.01 0.00 998.3
20260505192311 0 315 4.0 5.0 0.00 0.01 0.00 998.2
20260505192251 0 293 4.0 5.0 0.00 0.01 0.00 998.2
20260505192231 0 270 4.0 5.0 0.00 0.01 0.00 998.2
20260505192211 0 315 4.0 5.0 0.00 0.01 0.00 998.3
20260505192201 0 315 4.0 5.0 0.00 0.01 0.00 998.2
20260505192141 0 270 3.0 5.0 0.00 0.01 0.00 998.2
20260505192131 0 293 3.0 5.0 0.00 0.01 0.00 998.2
20260505192102 0 270 3.0 5.0 0.00 0.01 0.00 998.2
20260505192052 0 270 4.0 5.0 0.00 0.01 0.00 998.2
20260505192042 0 315 4.0 5.0 0.00 0.01 0.00 998.2
20260505192022 0 270 3.0 5.0 0.00 0.01 0.00 998.2
20260505191952 0 270 3.0 7.0 0.00 0.01 0.00 998.2
20260505191942 0 293 3.0 7.0 0.00 0.01 0.00 998.2
20260505191932 0 315 4.0 7.0 0.00 0.01 0.00 998.2
20260505191922 0 270 4.0 7.0 0.00 0.01 0.00 998.1
20260505191902 0 270 4.0 7.0 0.00 0.01 0.00 998.2
20260505191852 0 315 3.0 7.0 0.00 0.01 0.00 998.1
20260505191832 0 315 3.0 7.0 0.00 0.01 0.00 998.2
20260505191812 0 270 3.0 7.0 0.00 0.01 0.00 998.2
20260505191732 0 270 3.0 7.0 0.00 0.01 0.00 998.1
20260505191712 0 315 4.0 7.0 0.00 0.01 0.00 998.1
20260505191702 0 270 4.0 7.0 0.00 0.01 0.00 998.1
20260505191622 0 270 4.0 7.0 0.00 0.01 0.00 998.1
20260505191603 0 315 4.0 7.0 0.00 0.01 0.00 998.1
20260505191552 0 270 4.0 7.0 0.00 0.01 0.00 998.0
20260505191532 0 315 4.0 7.0 0.00 0.01 0.00 998.0
20260505191522 0 270 4.0 7.0 0.00 0.01 0.00 998.1
20260505191512 0 270 4.0 6.0 0.00 0.01 0.00 998.1
20260505191453 0 270 3.0 5.0 0.00 0.01 0.00 998.1
20260505191443 0 293 3.0 5.0 0.00 0.01 0.00 998.1
20260505191433 64 315 3.0 5.0 0.00 0.01 0.00 70 998.1
20260505191423 64 293 3.0 5.0 0.00 0.01 0.00 70 998.0
20260505191413 0 293 3.0 5.0 0.00 0.01 0.00 998.0
20260505191403 0 315 3.0 5.0 0.00 0.01 0.00 998.0
20260505191353 0 270 3.0 5.0 0.00 0.01 0.00 998.0
20260505191343 0 270 2.0 5.0 0.00 0.01 0.00 998.0
20260505191333 0 293 2.0 5.0 0.00 0.01 0.00 998.0
20260505191313 0 315 2.0 5.0 0.00 0.01 0.00 998.0
20260505191303 0 270 2.0 5.0 0.00 0.01 0.00 998.0
20260505191253 0 293 2.0 5.0 0.00 0.01 0.00 998.0
20260505191223 0 315 3.0 5.0 0.00 0.01 0.00 998.0
20260505191213 0 270 3.0 5.0 0.00 0.01 0.00 998.0
20260505191203 0 293 3.0 5.0 0.00 0.01 0.00 997.9
20260505191143 0 270 4.0 5.0 0.00 0.01 0.00 998.0
20260505191123 0 315 4.0 5.0 0.00 0.01 0.00 998.0
20260505191113 0 315 4.0 5.0 0.00 0.01 0.00 997.9
20260505191103 0 315 3.0 5.0 0.00 0.01 0.00 998.0
20260505191043 0 270 3.0 5.0 0.00 0.01 0.00 998.0
20260505191033 0 315 3.0 5.0 0.00 0.01 0.00 997.9
20260505191013 0 293 3.0 5.0 0.00 0.01 0.00 998.0
20260505190953 0 315 3.0 5.0 0.00 0.01 0.00 997.9
20260505190943 0 270 3.0 5.0 0.00 0.01 0.00 997.9
20260505190933 0 293 3.0 5.0 0.00 0.01 0.00 997.9
20260505190923 0 270 3.0 5.0 0.00 0.01 0.00 998.0
20260505190914 0 315 3.0 5.0 0.00 0.01 0.00 997.9
20260505190904 0 315 2.0 5.0 0.00 0.01 0.00 997.9
20260505190844 0 293 2.0 5.0 0.00 0.01 0.00 997.9
20260505190834 0 270 2.0 5.0 0.00 0.01 0.00 997.9
20260505190824 0 315 2.0 5.0 0.00 0.01 0.00 997.9
20260505190804 0 315 3.0 5.0 0.00 0.01 0.00 997.9
20260505190734 0 293 3.0 5.0 0.00 0.01 0.00 997.9
20260505190724 0 315 3.0 5.0 0.00 0.01 0.00 997.9
20260505190714 0 293 2.0 5.0 0.00 0.01 0.00 997.9
20260505190704 0 270 2.0 5.0 0.00 0.01 0.00 997.9
20260505190644 0 270 3.0 5.0 0.00 0.01 0.00 997.9
20260505190624 0 270 2.0 5.0 0.00 0.01 0.00 997.9
20260505190544 0 270 2.0 5.0 0.00 0.01 0.00 997.9
20260505190504 0 270 2.0 5.0 0.00 0.01 0.00 997.9
20260505190454 0 315 2.0 5.0 0.00 0.01 0.00 997.9
20260505190424 0 270 2.0 5.0 0.00 0.01 0.00 997.9
20260505190344 0 270 3.0 5.0 0.00 0.01 0.00 997.9
20260505190315 0 270 2.0 5.0 0.00 0.01 0.00 997.9
20260505190235 0 270 2.0 5.0 0.00 0.01 0.00 997.9
20260505190225 0 270 2.0 5.0 0.00 0.01 0.00 998.0
20260505190155 0 270 2.0 5.0 0.00 0.01 0.00 997.9
20260505190115 0 270 2.0 5.0 0.00 0.01 0.00 997.9
20260505190055 0 270 3.0 5.0 0.00 0.01 0.00 997.9
20260505190045 0 248 3.0 5.0 0.00 0.01 0.00 997.9
20260505190005 0 270 3.0 5.0 0.00 0.01 0.00 997.9
20260505185945 0 248 3.0 5.0 0.00 0.01 0.00 997.9
20260505185915 0 270 3.0 5.0 0.00 0.01 0.00 997.9
20260505185835 0 270 3.0 5.0 0.00 0.01 0.00 997.9
20260505185755 0 270 3.0 5.0 0.00 0.01 0.00 997.9
20260505185735 0 270 4.0 5.0 0.00 0.01 0.00 997.9
20260505185656 0 270 4.0 5.0 0.00 0.01 0.00 997.9
20260505185646 0 270 4.0 5.0 0.00 0.01 0.00 997.8
20260505185626 0 270 3.0 5.0 0.00 0.01 0.00 997.9
20260505185616 0 270 4.0 5.0 0.00 0.01 0.00 997.9
20260505185536 0 270 4.0 5.0 0.00 0.01 0.00 997.8
20260505185516 0 270 3.0 5.0 0.00 0.01 0.00 997.8
20260505185506 0 270 3.0 5.0 0.00 0.01 0.00 997.7
20260505185436 0 270 3.0 5.0 0.00 0.01 0.00 997.8
20260505185356 0 270 3.0 5.0 0.00 0.01 0.00 997.8
20260505185316 0 270 3.0 5.0 0.00 0.01 0.00 997.8
20260505185246 0 270 3.0 5.0 0.00 0.01 0.00 997.7
20260505185236 0 270 3.0 5.0 0.00 0.01 0.00 997.8
20260505185216 0 293 3.0 5.0 0.00 0.01 0.00 997.8
20260505185156 0 270 3.0 5.0 0.00 0.01 0.00 997.8
20260505185136 0 270 3.0 6.0 0.00 0.01 0.00 997.8
20260505185056 0 270 3.0 6.0 0.00 0.01 0.00 997.8
20260505185047 0 270 3.0 6.0 0.00 0.01 0.00 997.7
20260505185037 0 293 3.0 6.0 0.00 0.01 0.00 997.8
20260505185017 0 270 2.0 6.0 0.00 0.01 0.00 997.8
20260505185007 0 270 3.0 6.0 0.00 0.01 0.00 997.7
20260505184947 0 270 2.0 6.0 0.00 0.01 0.00 997.7
20260505184927 0 270 2.0 6.0 0.00 0.01 0.00 997.8
20260505184917 0 270 3.0 6.0 0.00 0.01 0.00 997.8
20260505184857 0 270 3.0 6.0 0.00 0.01 0.00 997.7
20260505184837 0 270 3.0 6.0 0.00 0.01 0.00 997.8
20260505184817 0 293 3.0 6.0 0.00 0.01 0.00 997.8
20260505184807 0 270 3.0 6.0 0.00 0.01 0.00 997.7
20260505184757 0 270 3.0 6.0 0.00 0.01 0.00 997.8
20260505184737 0 270 4.0 6.0 0.00 0.01 0.00 997.7
20260505184717 0 270 4.0 6.0 0.00 0.01 0.00 997.8
20260505184637 0 270 4.0 6.0 0.00 0.01 0.00 997.8
20260505184627 0 270 4.0 6.0 0.00 0.01 0.00 997.7
20260505184547 0 270 4.0 6.0 0.00 0.01 0.00 997.8
20260505184537 0 270 4.0 6.0 0.00 0.01 0.00 997.7
20260505184508 0 270 4.0 6.0 0.00 0.01 0.00 997.8
20260505184448 0 270 4.0 7.0 0.00 0.01 0.00 997.8
20260505184408 0 270 4.0 7.0 0.00 0.01 0.00 997.8
20260505184328 0 270 4.0 7.0 0.00 0.01 0.00 997.8
20260505184318 0 225 4.0 7.0 0.00 0.01 0.00 997.8
20260505184248 0 270 4.0 7.0 0.00 0.01 0.00 997.8
20260505184228 0 270 4.0 7.0 0.00 0.01 0.00 997.9
20260505184158 0 248 4.0 7.0 0.00 0.01 0.00 997.8
20260505184138 0 270 4.0 7.0 0.00 0.01 0.00 997.8
20260505184118 0 270 4.0 7.0 0.00 0.01 0.00 997.9
20260505184048 0 270 4.0 7.0 0.00 0.01 0.00 997.8
20260505184008 0 270 4.0 7.0 0.00 0.01 0.00 997.8
20260505183938 0 270 4.0 6.0 0.00 0.01 0.00 997.8
20260505183859 0 270 4.0 6.0 0.00 0.01 0.00 997.8
20260505183849 0 270 4.0 5.0 0.00 0.01 0.00 997.7
20260505183829 0 270 4.0 5.0 0.00 0.01 0.00 997.8
20260505183809 0 270 4.0 5.0 0.00 0.01 0.00 997.7
20260505183739 0 270 4.0 5.0 0.00 0.01 0.00 997.8
20260505183719 0 270 4.0 5.0 0.00 0.01 0.00 997.7
20260505183709 0 270 3.0 5.0 0.00 0.01 0.00 997.7
20260505183559 0 270 3.0 5.0 0.00 0.01 0.00 997.7
20260505183529 0 270 2.0 5.0 0.00 0.01 0.00 997.7
20260505183509 0 270 2.0 5.0 0.00 0.01 0.00 997.6
20260505183459 0 270 2.0 6.0 0.00 0.01 0.00 997.7
20260505183449 0 270 2.0 7.0 0.00 0.01 0.00 997.7
20260505183439 0 270 3.0 7.0 0.00 0.01 0.00 997.7
20260505183429 0 270 3.0 7.0 0.00 0.01 0.00 997.6
20260505183359 0 270 2.0 7.0 0.00 0.01 0.00 997.6
20260505183349 0 270 3.0 7.0 0.00 0.01 0.00 997.7
20260505183319 0 270 2.0 7.0 0.00 0.01 0.00 997.6
20260505183309 0 270 3.0 7.0 0.00 0.01 0.00 997.6
20260505183300 0 270 3.0 7.0 0.00 0.01 0.00 997.7
20260505183240 0 270 2.0 7.0 0.00 0.01 0.00 997.6
20260505183200 0 270 3.0 7.0 0.00 0.01 0.00 997.6
20260505183150 0 270 4.0 7.0 0.00 0.01 0.00 997.6
20260505183110 0 270 4.0 7.0 0.00 0.01 0.00 997.6
20260505183030 0 270 4.0 7.0 0.00 0.01 0.00 997.6
20260505183000 0 270 5.0 7.0 0.00 0.01 0.00 997.6
20260505182920 0 270 4.0 7.0 0.00 0.01 0.00 997.6
20260505182840 0 270 4.0 7.0 0.00 0.01 0.00 997.6
20260505182800 0 270 4.0 7.0 0.00 0.01 0.00 997.6
20260505182740 0 270 4.0 6.0 0.00 0.01 0.00 997.6
20260505182721 0 270 4.0 6.0 0.00 0.01 0.00 997.5
20260505182701 0 270 4.0 6.0 0.00 0.01 0.00 997.6
20260505182641 0 270 4.0 6.0 0.00 0.01 0.00 997.5
20260505182621 0 270 4.0 6.0 0.00 0.01 0.00 997.6
20260505182551 0 270 4.0 6.0 0.00 0.01 0.00 997.5
20260505182511 0 270 4.0 6.0 0.00 0.01 0.00 997.6
20260505182501 0 270 4.0 6.0 0.00 0.01 0.00 997.5
20260505182431 0 270 4.0 6.0 0.00 0.01 0.00 997.6
20260505182421 0 270 4.0 6.0 0.00 0.01 0.00 997.5
20260505182341 0 270 4.0 6.0 0.00 0.01 0.00 997.5
20260505182305 0 270 4.0 6.0 0.00 0.01 0.00 997.5
20260505182231 0 270 4.0 6.0 0.00 0.01 0.00 997.6
20260505182221 0 270 4.0 6.0 0.00 0.01 0.00 997.5
20260505182142 0 270 4.0 6.0 0.00 0.01 0.00 997.5
20260505182102 0 270 4.0 6.0 0.00 0.01 0.00 997.5
20260505182042 0 270 4.0 5.0 0.00 0.01 0.00 997.4
20260505182022 0 270 4.0 5.0 0.00 0.01 0.00 997.5
20260505182012 0 270 4.0 6.0 0.00 0.01 0.00 997.5
20260505181942 0 270 3.0 6.0 0.00 0.01 0.00 997.4
20260505181922 0 270 3.0 6.0 0.00 0.01 0.00 997.5
20260505181912 0 248 4.0 6.0 0.00 0.01 0.00 997.4
20260505181902 0 270 3.0 6.0 0.00 0.01 0.00 997.4
20260505181822 0 270 3.0 6.0 0.00 0.01 0.00 997.4
20260505181812 0 270 3.0 7.0 0.00 0.01 0.00 997.4
20260505181802 0 270 3.0 8.0 0.00 0.01 0.00 997.4
20260505181722 0 270 4.0 8.0 0.00 0.01 0.00 997.4
20260505181642 0 270 4.0 8.0 0.00 0.01 0.00 997.4
20260505181602 0 270 4.0 8.0 0.00 0.01 0.00 997.4
20260505181523 0 270 4.0 8.0 0.00 0.01 0.00 997.4
20260505181443 0 270 4.0 8.0 0.00 0.01 0.00 997.4
20260505181403 0 270 4.0 8.0 0.00 0.01 0.00 997.4
20260505181323 0 270 5.0 8.0 0.00 0.01 0.00 997.4
20260505181313 0 270 4.0 8.0 0.00 0.01 0.00 997.4
20260505181303 0 270 4.0 7.0 0.00 0.01 0.00 997.4
20260505181233 0 270 4.0 6.0 0.00 0.01 0.00 997.4
20260505181213 0 270 4.0 7.0 0.00 0.01 0.00 997.4
20260505181143 0 270 4.0 8.0 0.00 0.01 0.00 997.4
20260505181103 0 270 4.0 8.0 0.00 0.01 0.00 997.4
20260505181053 0 270 4.0 8.0 0.00 0.01 0.00 997.3
20260505181023 0 270 4.0 8.0 0.00 0.01 0.00 997.4
20260505181004 0 270 4.0 8.0 0.00 0.01 0.00 997.3
20260505180944 66 270 4.0 8.0 0.00 0.01 0.00 68 997.4
20260505180924 0 270 4.0 8.0 0.00 0.01 0.00 997.3
20260505180854 0 270 4.0 8.0 0.00 0.01 0.00 997.4
20260505180835 0 270 4.0 8.0 0.00 0.01 0.00 997.3
20260505180804 0 270 5.0 8.0 0.00 0.01 0.00 997.3
20260505180744 0 293 6.0 8.0 0.00 0.01 0.00 997.3
20260505180734 0 270 6.0 8.0 0.00 0.01 0.00 997.4
20260505180724 0 270 5.0 8.0 0.00 0.01 0.00 997.3
20260505180714 0 270 5.0 8.0 0.00 0.01 0.00 997.4
20260505180644 0 270 5.0 8.0 0.00 0.01 0.00 997.3
20260505180634 0 315 5.0 8.0 0.00 0.01 0.00 997.3
20260505180614 0 270 5.0 8.0 0.00 0.01 0.00 997.4
20260505180604 0 270 5.0 8.0 0.00 0.01 0.00 997.3
20260505180534 0 315 4.0 7.0 0.00 0.01 0.00 997.3
20260505180524 0 270 4.0 7.0 0.00 0.01 0.00 997.3
20260505180504 0 315 5.0 7.0 0.00 0.01 0.00 997.3
20260505180454 0 270 5.0 7.0 0.00 0.01 0.00 997.3
20260505180444 0 293 5.0 7.0 0.00 0.01 0.00 997.3
20260505180415 0 270 5.0 7.0 0.00 0.01 0.00 997.3
20260505180405 0 0 5.0 7.0 0.00 0.01 0.00 997.3
20260505180325 0 270 5.0 7.0 0.00 0.01 0.00 997.3
20260505180305 0 293 5.0 7.0 0.00 0.01 0.00 997.3
20260505180245 0 270 5.0 7.0 0.00 0.01 0.00 997.3
20260505180235 0 270 5.0 7.0 0.00 0.01 0.00 997.2
20260505180215 0 270 6.0 7.0 0.00 0.01 0.00 997.3
20260505180205 0 270 6.0 7.0 0.00 0.01 0.00 997.2
20260505180145 0 270 5.0 7.0 0.00 0.01 0.00 997.3
20260505180135 0 270 5.0 7.0 0.00 0.01 0.00 997.2
20260505180055 0 270 5.0 7.0 0.00 0.01 0.00 997.2
20260505180035 0 270 5.0 7.0 0.00 0.01 0.00 997.3
20260505180015 0 270 5.0 7.0 0.00 0.01 0.00 997.2
20260505175935 0 270 5.0 7.0 0.00 0.01 0.00 997.2
20260505175925 0 270 4.0 7.0 0.00 0.01 0.00 997.2
20260505175906 0 293 4.0 8.0 0.00 0.01 0.00 997.2
20260505175846 0 270 4.0 8.0 0.00 0.01 0.00 997.2
20260505175836 0 270 4.0 8.0 0.00 0.01 0.00 997.3
20260505175756 0 270 4.0 8.0 0.00 0.01 0.00 997.2
20260505175736 0 270 4.0 8.0 0.00 0.01 0.00 997.3
20260505175726 0 293 4.0 8.0 0.00 0.01 0.00 997.3
20260505175716 0 270 4.0 8.0 0.00 0.01 0.00 997.2
20260505175656 0 315 4.0 8.0 0.00 0.01 0.00 997.3
20260505175636 0 270 4.0 8.0 0.00 0.01 0.00 997.2
20260505175626 0 270 4.0 8.0 0.00 0.01 0.00 997.3
20260505175556 0 293 4.0 8.0 0.00 0.01 0.00 997.3
20260505175546 0 270 4.0 8.0 0.00 0.01 0.00 997.2
20260505175536 0 270 4.0 8.0 0.00 0.01 0.00 997.3
20260505175526 0 315 5.0 8.0 0.00 0.01 0.00 997.2
20260505175516 0 270 5.0 8.0 0.00 0.01 0.00 997.2
20260505175506 0 270 5.0 9.0 0.00 0.01 0.00 997.3
20260505175446 0 270 6.0 9.0 0.00 0.01 0.00 997.3
20260505175436 0 315 6.0 9.0 0.00 0.01 0.00 997.3
20260505175406 0 270 6.0 9.0 0.00 0.01 0.00 997.3
20260505175336 0 270 5.0 9.0 0.00 0.01 0.00 997.3
20260505175326 65 270 6.0 9.0 0.00 0.01 0.00 67 997.3
20260505175316 0 270 6.0 9.0 0.00 0.01 0.00 997.3
20260505175247 0 270 5.0 9.0 0.00 0.01 0.00 997.3
20260505175237 0 270 6.0 9.0 0.00 0.01 0.00 997.3
20260505175157 0 270 6.0 9.0 0.00 0.01 0.00 997.3
20260505175117 0 270 6.0 9.0 0.00 0.01 0.00 997.3
20260505175037 0 270 6.0 9.0 0.00 0.01 0.00 997.3
20260505175027 0 270 6.0 9.0 0.00 0.01 0.00 997.4
20260505175017 0 315 6.0 9.0 0.00 0.01 0.00 997.3
20260505175007 0 270 6.0 8.0 0.00 0.01 0.00 997.3
20260505174947 0 270 5.0 8.0 0.00 0.01 0.00 997.3
20260505174917 0 293 5.0 8.0 0.00 0.01 0.00 997.3
20260505174907 0 315 6.0 8.0 0.00 0.01 0.00 997.3
20260505174857 0 270 6.0 8.0 0.00 0.01 0.00 997.3
20260505174847 0 270 5.0 8.0 0.00 0.01 0.00 997.3
20260505174827 0 270 5.0 7.0 0.00 0.01 0.00 997.3
20260505174817 65 293 5.0 7.0 0.00 0.01 0.00 69 997.3
20260505174757 0 293 5.0 7.0 0.00 0.01 0.00 997.3
20260505174747 0 270 5.0 7.0 0.00 0.01 0.00 997.3
20260505174708 0 270 5.0 7.0 0.00 0.01 0.00 997.3
20260505174638 0 270 4.0 6.0 0.00 0.01 0.00 997.3
20260505174628 0 315 4.0 5.0 0.00 0.01 0.00 997.3
20260505174608 0 270 4.0 5.0 0.00 0.01 0.00 997.3
20260505174558 0 293 4.0 5.0 0.00 0.01 0.00 997.3
20260505174548 0 315 4.0 5.0 0.00 0.01 0.00 997.2
20260505174528 0 270 4.0 6.0 0.00 0.01 0.00 997.3
20260505174518 0 270 4.0 6.0 0.00 0.01 0.00 997.2
20260505174508 0 315 4.0 6.0 0.00 0.01 0.00 997.3
20260505174458 0 315 4.0 7.0 0.00 0.01 0.00 997.3
20260505174438 0 293 4.0 7.0 0.00 0.01 0.00 997.3
20260505174428 0 293 4.0 7.0 0.00 0.01 0.00 997.2
20260505174418 0 270 4.0 7.0 0.00 0.01 0.00 997.2
20260505174408 0 270 4.0 7.0 0.00 0.01 0.00 997.3
20260505174358 0 315 4.0 7.0 0.00 0.01 0.00 997.2
20260505174348 0 270 3.0 7.0 0.00 0.01 0.00 997.3
20260505174338 0 270 3.0 7.0 0.00 0.01 0.00 997.2
20260505174328 0 293 3.0 7.0 0.00 0.01 0.00 997.2
20260505174258 0 270 3.0 7.0 0.00 0.01 0.00 997.3
20260505174248 0 270 3.0 7.0 0.00 0.01 0.00 997.2
20260505174228 0 315 4.0 7.0 0.00 0.01 0.00 997.2
20260505174218 0 315 4.0 7.0 0.00 0.01 0.00 997.3
20260505174208 0 270 4.0 7.0 0.00 0.01 0.00 997.2
20260505174128 0 315 4.0 7.0 0.00 0.01 0.00 997.3
20260505174118 0 293 4.0 7.0 0.00 0.01 0.00 997.3
20260505174049 0 270 4.0 7.0 0.00 0.01 0.00 997.3
20260505174039 0 270 4.0 7.0 0.00 0.01 0.00 997.2
20260505174029 0 270 5.0 7.0 0.00 0.01 0.00 997.3
20260505173959 0 270 4.0 7.0 0.00 0.01 0.00 997.2
20260505173939 0 270 4.0 7.0 0.00 0.01 0.00 997.3
20260505173929 0 315 4.0 7.0 0.00 0.01 0.00 997.2
20260505173919 0 293 4.0 7.0 0.00 0.01 0.00 997.3
20260505173859 0 315 4.0 7.0 0.00 0.01 0.00 997.3
20260505173849 0 270 4.0 7.0 0.00 0.01 0.00 997.3
20260505173819 0 293 4.0 7.0 0.00 0.01 0.00 997.3
20260505173759 0 270 4.0 7.0 0.00 0.01 0.00 997.3
20260505173729 0 270 5.0 7.0 0.00 0.01 0.00 997.3
20260505173659 0 293 5.0 7.0 0.00 0.01 0.00 997.3
20260505173649 0 270 5.0 7.0 0.00 0.01 0.00 997.3
20260505173609 0 270 4.0 7.0 0.00 0.01 0.00 997.3
20260505173529 0 270 4.0 7.0 0.00 0.01 0.00 997.3
20260505173500 0 270 4.0 7.0 0.00 0.01 0.00 997.4
20260505173450 0 270 4.0 7.0 0.00 0.01 0.00 997.3
20260505173440 0 293 4.0 7.0 0.00 0.01 0.00 997.4
20260505173410 0 270 4.0 7.0 0.00 0.01 0.00 997.4
20260505173400 0 270 4.0 7.0 0.00 0.01 0.00 997.3
20260505173350 0 315 4.0 7.0 0.00 0.01 0.00 997.4
20260505173340 0 315 4.0 7.0 0.00 0.01 0.00 997.3
20260505173330 0 270 4.0 7.0 0.00 0.01 0.00 997.4
20260505173320 0 270 4.0 7.0 0.00 0.01 0.00 997.3
20260505173250 0 270 4.0 7.0 0.00 0.01 0.00 997.4
20260505173140 0 270 4.0 7.0 0.00 0.01 0.00 997.3
20260505173100 0 270 4.0 8.0 0.00 0.01 0.00 997.3
20260505173050 0 270 4.0 8.0 0.00 0.01 0.00 997.2
20260505173020 0 270 4.0 8.0 0.00 0.01 0.00 997.3
20260505173010 0 315 4.0 8.0 0.00 0.01 0.00 997.3
20260505173000 0 293 4.0 8.0 0.00 0.01 0.00 997.3
20260505172930 0 315 4.0 8.0 0.00 0.01 0.00 997.3
20260505172920 0 315 4.0 8.0 0.00 0.01 0.00 997.2
20260505172910 0 293 4.0 8.0 0.00 0.01 0.00 997.2
20260505172900 0 270 4.0 8.0 0.00 0.01 0.00 997.2
20260505172851 0 315 4.0 8.0 0.00 0.01 0.00 997.3
20260505172831 0 315 4.0 8.0 0.00 0.01 0.00 997.2
20260505172821 0 270 4.0 8.0 0.00 0.01 0.00 997.2
20260505172751 0 315 4.0 10.0 0.00 0.01 0.00 997.2
20260505172741 0 315 5.0 10.0 0.00 0.01 0.00 997.3
20260505172711 0 293 5.0 10.0 0.00 0.01 0.00 997.2
20260505172701 0 315 5.0 10.0 0.00 0.01 0.00 997.2
20260505172641 0 270 5.0 10.0 0.00 0.01 0.00 997.2
20260505172621 0 315 4.0 10.0 0.00 0.01 0.00 997.2
20260505172611 0 315 5.0 10.0 0.00 0.01 0.00 997.2
20260505172601 0 315 5.0 10.0 0.00 0.01 0.00 997.1
20260505172531 0 293 5.0 10.0 0.00 0.01 0.00 997.2
20260505172521 0 270 5.0 10.0 0.00 0.01 0.00 997.2
20260505172511 0 315 5.0 10.0 0.00 0.01 0.00 997.2
20260505172501 0 315 5.0 10.0 0.00 0.01 0.00 687.3
20260505172451 0 315 4.0 10.0 0.00 0.01 0.00 997.2
20260505172431 0 270 5.0 10.0 0.00 0.01 0.00 997.2
20260505172421 0 315 6.0 10.0 0.00 0.01 0.00 997.2
20260505172411 0 293 6.0 10.0 0.00 0.01 0.00 834.0
20260505172351 0 270 6.0 10.0 0.00 0.01 0.00 997.2
20260505172341 65 270 6.0 10.0 0.00 0.01 0.00 74 997.2
20260505172331 0 293 6.0 10.0 0.00 0.01 0.00 997.2
20260505172321 0 270 6.0 10.0 0.00 0.01 0.00 997.3
20260505172311 0 270 6.0 9.0 0.00 0.01 0.00 997.3
20260505172301 0 315 5.0 9.0 0.00 0.01 0.00 997.3
20260505172251 0 270 5.0 9.0 0.00 0.01 0.00 997.3
20260505172222 0 270 6.0 9.0 0.00 0.01 0.00 997.3
20260505172142 0 270 6.0 9.0 0.00 0.01 0.00 997.3
20260505172122 0 270 7.0 9.0 0.00 0.01 0.00 997.3
20260505172112 0 270 7.0 10.0 0.00 0.01 0.00 997.3
20260505172102 0 293 7.0 10.0 0.00 0.01 0.00 997.3
20260505172032 0 270 6.0 10.0 0.00 0.01 0.00 997.3
20260505172002 0 270 5.0 10.0 0.00 0.01 0.00 997.3
20260505171952 0 270 4.0 10.0 0.00 0.01 0.00 997.3
20260505171912 0 270 5.0 10.0 0.00 0.01 0.00 997.3
20260505171832 0 270 6.0 10.0 0.00 0.01 0.00 997.3
20260505171822 0 270 7.0 10.0 0.00 0.01 0.00 997.3
20260505171752 0 270 6.0 10.0 0.00 0.01 0.00 997.3
20260505171742 0 225 6.0 10.0 0.00 0.01 0.00 997.4
20260505171732 0 248 5.0 10.0 0.00 0.01 0.00 997.3
20260505171722 0 270 5.0 10.0 0.00 0.01 0.00 997.3
20260505171712 0 270 6.0 10.0 0.00 0.01 0.00 997.3
20260505171642 0 315 6.0 10.0 0.00 0.01 0.00 997.3
20260505171633 0 270 6.0 10.0 0.00 0.01 0.00 997.3
20260505171623 0 270 5.0 10.0 0.00 0.01 0.00 997.4
20260505171603 0 270 5.0 10.0 0.00 0.01 0.00 997.2
20260505171543 0 270 5.0 10.0 0.00 0.01 0.00 997.3
20260505171503 0 270 5.0 11.0 0.00 0.01 0.00 997.3
20260505171423 0 270 5.0 11.0 0.00 0.01 0.00 997.3
20260505171413 0 270 5.0 13.0 0.00 0.01 0.00 997.3
20260505171403 0 270 4.0 14.0 0.00 0.01 0.00 997.3
20260505171323 0 270 5.0 14.0 0.00 0.01 0.00 997.3
20260505171253 0 270 6.0 14.0 0.00 0.01 0.00 997.4
20260505171243 0 270 6.0 14.0 0.00 0.01 0.00 997.3
20260505171213 0 270 7.0 14.0 0.00 0.01 0.00 997.4
20260505171143 0 248 7.0 14.0 0.00 0.01 0.00 997.4
20260505171133 0 270 7.0 14.0 0.00 0.01 0.00 997.4
20260505171053 0 270 8.0 14.0 0.00 0.01 0.00 997.3
20260505171033 0 270 8.0 14.0 0.00 0.01 0.00 997.4
20260505171004 0 270 8.0 14.0 0.00 0.01 0.00 997.3
20260505170954 0 270 8.0 14.0 0.00 0.01 0.00 997.2
20260505170944 0 315 8.0 14.0 0.00 0.01 0.00 997.3
20260505170924 0 270 8.0 14.0 0.00 0.01 0.00 997.3
20260505170914 0 270 6.0 14.0 0.00 0.01 0.00 997.3
20260505170904 0 270 6.0 11.0 0.00 0.01 0.00 997.3
20260505170844 0 270 6.0 11.0 0.00 0.01 0.00 997.2
20260505170834 0 270 5.0 11.0 0.00 0.01 0.00 997.2
20260505170754 0 270 6.0 11.0 0.00 0.01 0.00 997.2
20260505170724 0 270 7.0 11.0 0.00 0.01 0.00 997.2
20260505170714 0 315 7.0 11.0 0.00 0.01 0.00 997.2
20260505170654 0 315 6.0 10.0 0.00 0.01 0.00 997.3
20260505170644 0 270 6.0 10.0 0.00 0.01 0.00 997.2
20260505170634 0 315 6.0 10.0 0.00 0.01 0.00 997.2
20260505170604 0 315 5.0 10.0 0.00 0.01 0.00 997.2
20260505170554 0 270 5.0 10.0 0.00 0.01 0.00 997.2
20260505170544 0 270 5.0 10.0 0.00 0.01 0.00 997.1
20260505170514 0 270 6.0 10.0 0.00 0.01 0.00 997.2
20260505170504 0 315 5.0 10.0 0.00 0.01 0.00 997.2
20260505170435 0 315 5.0 10.0 0.00 0.01 0.00 997.1
20260505170425 0 270 5.0 10.0 0.00 0.01 0.00 997.2
20260505170415 0 270 6.0 10.0 0.00 0.01 0.00 997.1
20260505170355 0 315 6.0 10.0 0.00 0.01 0.00 997.1
20260505170345 0 293 6.0 10.0 0.00 0.01 0.00 997.2
20260505170335 0 293 6.0 10.0 0.00 0.01 0.00 997.1
20260505170325 0 270 6.0 10.0 0.00 0.01 0.00 997.2
20260505170315 0 315 6.0 10.0 0.00 0.01 0.00 997.1
20260505170305 0 293 5.0 10.0 0.00 0.01 0.00 997.1
20260505170255 0 270 5.0 10.0 0.00 0.01 0.00 997.1
20260505170245 0 270 4.0 10.0 0.00 0.01 0.00 997.2
20260505170235 0 315 4.0 10.0 0.00 0.01 0.00 1017.7
20260505170225 0 270 4.0 10.0 0.00 0.01 0.00 997.1
20260505170155 0 315 5.0 10.0 0.00 0.01 0.00 997.1
20260505170135 0 293 5.0 10.0 0.00 0.01 0.00 997.1
20260505170115 0 315 5.0 10.0 0.00 0.01 0.00 997.1
20260505170105 0 293 6.0 10.0 0.00 0.01 0.00 997.1
20260505170055 0 270 6.0 10.0 0.00 0.01 0.00 997.1
20260505170025 0 315 6.0 10.0 0.00 0.01 0.00 997.1
20260505170015 0 270 6.0 10.0 0.00 0.01 0.00 997.1
20260505165955 0 293 6.0 10.0 0.00 0.01 0.00 997.1
20260505165935 0 270 6.0 10.0 0.00 0.01 0.00 997.1
20260505165925 0 315 6.0 10.0 0.00 0.01 0.00 997.1
20260505165905 0 270 5.0 8.0 0.00 0.01 0.00 997.1
20260505165845 0 270 4.0 8.0 0.00 0.01 0.00 997.1
20260505165835 0 315 4.0 8.0 0.00 0.01 0.00 997.0
20260505165826 0 315 4.0 8.0 0.00 0.01 0.00 997.1
20260505165816 0 270 4.0 8.0 0.00 0.01 0.00 997.0
20260505165806 0 293 4.0 8.0 0.00 0.01 0.00 997.1
20260505165746 0 315 4.0 8.0 0.00 0.01 0.00 997.1
20260505165736 0 315 4.0 8.0 0.00 0.01 0.00 997.0
20260505165716 0 270 4.0 8.0 0.00 0.01 0.00 997.0
20260505165706 0 270 4.0 9.0 0.00 0.01 0.00 997.1
20260505165656 0 293 4.0 9.0 0.00 0.01 0.00 997.0
20260505165646 0 270 4.0 10.0 0.00 0.01 0.00 997.1
20260505165626 0 270 5.0 10.0 0.00 0.01 0.00 997.0
20260505165616 0 315 5.0 11.0 0.00 0.01 0.00 997.0
20260505165606 0 270 5.0 11.0 0.00 0.01 0.00 997.1
20260505165556 0 270 6.0 11.0 0.00 0.01 0.00 997.0
20260505165546 0 293 6.0 11.0 0.00 0.01 0.00 997.0
20260505165536 0 270 5.0 11.0 0.00 0.01 0.00 997.0
20260505165526 0 270 5.0 11.0 0.00 0.01 0.00 997.1
20260505165516 64 293 6.0 11.0 0.00 0.01 0.00 79 997.0
20260505165506 0 270 6.0 11.0 0.00 0.01 0.00 997.0
20260505165456 0 293 5.0 11.0 0.00 0.01 0.00 997.0
20260505165446 0 270 6.0 11.0 0.00 0.01 0.00 997.1
20260505165426 0 315 5.0 11.0 0.00 0.01 0.00 997.0
20260505165416 0 315 5.0 11.0 0.00 0.01 0.00 997.1
20260505165356 0 293 5.0 11.0 0.00 0.01 0.00 997.1
20260505165347 0 315 5.0 11.0 0.00 0.01 0.00 997.0
20260505165336 0 270 5.0 11.0 0.00 0.01 0.00 997.0
20260505165316 0 270 6.0 11.0 0.00 0.01 0.00 997.1
20260505165256 0 270 6.0 11.0 0.00 0.01 0.00 997.0
20260505165247 0 293 6.0 11.0 0.00 0.01 0.00 997.1
20260505165237 0 315 6.0 11.0 0.00 0.01 0.00 997.1
20260505165227 0 293 6.0 11.0 0.00 0.01 0.00 997.0
20260505165217 0 270 7.0 11.0 0.00 0.01 0.00 997.0
20260505165207 0 315 7.0 11.0 0.00 0.01 0.00 997.0
20260505165157 0 270 7.0 11.0 0.00 0.01 0.00 997.1
20260505165147 0 270 6.0 11.0 0.00 0.01 0.00 997.1
20260505165137 0 315 7.0 12.0 0.00 0.01 0.00 997.0
20260505165057 0 270 7.0 12.0 0.00 0.01 0.00 997.1
20260505165047 0 315 7.0 12.0 0.00 0.01 0.00 997.1
20260505165037 74 293 7.0 12.0 0.00 0.01 0.00 38 997.1
20260505165017 0 270 7.0 12.0 0.00 0.01 0.00 997.1
20260505165007 0 315 7.0 12.0 0.00 0.01 0.00 997.1
20260505164947 0 315 7.0 12.0 0.00 0.01 0.00 997.0
20260505164937 0 270 7.0 12.0 0.00 0.01 0.00 997.1
20260505164917 0 293 8.0 12.0 0.00 0.01 0.00 997.0
20260505164907 0 293 8.0 12.0 0.00 0.01 0.00 997.1
20260505164857 0 315 8.0 12.0 0.00 0.01 0.00 997.1
20260505164847 0 270 8.0 12.0 0.00 0.01 0.00 997.0
20260505164837 0 270 8.0 12.0 0.00 0.01 0.00 997.1
20260505164827 0 270 8.0 13.0 0.00 0.01 0.00 997.0
20260505164817 0 315 8.0 13.0 0.00 0.01 0.00 997.0
20260505164747 0 315 8.0 13.0 0.00 0.01 0.00 997.1
20260505164737 0 270 8.0 13.0 0.00 0.01 0.00 997.1
20260505164717 0 270 9.0 13.0 0.00 0.01 0.00 997.1
20260505164707 0 315 9.0 13.0 0.00 0.01 0.00 997.1
20260505164658 0 270 8.0 13.0 0.00 0.01 0.00 997.1
20260505164648 0 270 8.0 13.0 0.00 0.01 0.00 997.0
20260505164638 0 293 8.0 13.0 0.00 0.01 0.00 997.1
20260505164628 0 293 7.0 13.0 0.00 0.01 0.00 997.1
20260505164618 0 315 6.0 13.0 0.00 0.01 0.00 997.1
20260505164608 0 315 6.0 13.0 0.00 0.01 0.00 997.0
20260505164558 0 293 6.0 13.0 0.00 0.01 0.00 997.1
20260505164548 0 293 6.0 13.0 0.00 0.01 0.00 997.0
20260505164538 0 293 7.0 13.0 0.00 0.01 0.00 997.0
20260505164528 0 293 8.0 13.0 0.00 0.01 0.00 997.1
20260505164518 0 315 8.0 13.0 0.00 0.01 0.00 997.1
20260505164508 0 270 8.0 13.0 0.00 0.01 0.00 997.0
20260505164438 0 270 8.0 13.0 0.00 0.01 0.00 997.1
20260505164358 0 270 8.0 13.0 0.00 0.01 0.00 997.1
20260505164328 0 315 8.0 13.0 0.00 0.01 0.00 997.1
20260505164318 0 270 8.0 13.0 0.00 0.01 0.00 997.1
20260505164238 0 315 8.0 13.0 0.00 0.01 0.00 997.1
20260505164228 0 315 8.0 13.0 0.00 0.01 0.00 997.2
20260505164218 0 270 8.0 13.0 0.00 0.01 0.00 997.2
20260505164208 0 270 8.0 14.0 0.00 0.01 0.00 997.1
20260505164158 0 270 8.0 14.0 0.00 0.01 0.00 997.2
20260505164148 0 293 9.0 14.0 0.00 0.01 0.00 997.2
20260505164138 0 270 9.0 14.0 0.00 0.01 0.00 997.1
20260505164118 0 315 8.0 15.0 0.00 0.01 0.00 997.1
20260505164109 0 293 8.0 15.0 0.00 0.01 0.00 997.1
20260505164059 0 270 8.0 15.0 0.00 0.01 0.00 997.2
20260505164039 0 270 8.0 15.0 0.00 0.01 0.00 997.1
20260505164019 0 315 8.0 15.0 0.00 0.01 0.00 997.1
20260505164009 0 270 8.0 15.0 0.00 0.01 0.00 997.2
20260505163959 0 315 8.0 15.0 0.00 0.01 0.00 997.2
20260505163949 0 315 9.0 15.0 0.00 0.01 0.00 997.2
20260505163939 0 270 9.0 15.0 0.00 0.01 0.00 997.2
20260505163909 0 293 8.0 15.0 0.00 0.01 0.00 997.2
20260505163859 0 270 8.0 15.0 0.00 0.01 0.00 997.2
20260505163849 0 293 8.0 15.0 0.00 0.01 0.00 997.1
20260505163839 0 270 8.0 15.0 0.00 0.01 0.00 997.1
20260505163829 0 315 8.0 15.0 0.00 0.01 0.00 997.2
20260505163819 0 293 8.0 15.0 0.00 0.01 0.00 997.2
20260505163759 0 293 9.0 15.0 0.00 0.01 0.00 997.2
20260505163749 0 315 9.0 15.0 0.00 0.01 0.00 997.2
20260505163719 0 315 10.0 15.0 0.00 0.01 0.00 997.2
20260505163659 0 293 10.0 15.0 0.00 0.01 0.00 997.2
20260505163649 0 270 10.0 15.0 0.00 0.01 0.00 997.2
20260505163639 0 270 10.0 15.0 0.00 0.01 0.00 997.1
20260505163629 0 315 10.0 15.0 0.00 0.01 0.00 997.2
20260505163619 0 315 10.0 15.0 0.00 0.01 0.00 997.1
20260505163559 0 315 9.0 15.0 0.00 0.01 0.00 997.2
20260505163549 0 270 9.0 15.0 0.00 0.01 0.00 997.2
20260505163539 0 315 10.0 15.0 0.00 0.01 0.00 997.2
20260505163500 0 270 10.0 15.0 0.00 0.01 0.00 997.2
20260505163450 0 315 10.0 15.0 0.00 0.01 0.00 997.2
20260505163440 0 270 9.0 15.0 0.00 0.01 0.00 997.2
20260505163430 0 270 8.0 15.0 0.00 0.01 0.00 997.2
20260505163410 0 270 8.0 14.0 0.00 0.01 0.00 997.2
20260505163340 0 293 8.0 14.0 0.00 0.01 0.00 997.2
20260505163330 0 270 8.0 14.0 0.00 0.01 0.00 997.2
20260505163320 0 293 8.0 15.0 0.00 0.01 0.00 997.2
20260505163250 0 270 8.0 15.0 0.00 0.01 0.00 997.1
20260505163240 0 270 8.0 15.0 0.00 0.01 0.00 997.2
20260505163230 0 315 8.0 15.0 0.00 0.01 0.00 997.3
20260505163200 0 315 9.0 15.0 0.00 0.01 0.00 997.2
20260505163150 0 270 9.0 15.0 0.00 0.01 0.00 997.2
20260505163140 0 270 10.0 15.0 0.00 0.01 0.00 997.3
20260505163120 0 270 10.0 15.0 0.00 0.01 0.00 997.2
20260505163110 0 315 9.0 15.0 0.00 0.01 0.00 997.2
20260505163100 0 293 9.0 15.0 0.00 0.01 0.00 997.2
20260505163050 0 270 9.0 15.0 0.00 0.01 0.00 997.2
20260505163040 0 270 8.0 15.0 0.00 0.01 0.00 997.3
20260505163020 0 315 8.0 15.0 0.00 0.01 0.00 997.3
20260505163010 0 270 8.0 15.0 0.00 0.01 0.00 997.2
20260505162951 0 293 8.0 15.0 0.00 0.01 0.00 997.2
20260505162941 0 315 8.0 15.0 0.00 0.01 0.00 997.2
20260505162921 0 315 9.0 15.0 0.00 0.01 0.00 997.2
20260505162841 0 315 9.0 15.0 0.00 0.01 0.00 997.2
20260505162831 0 270 9.0 15.0 0.00 0.01 0.00 997.2
20260505162821 0 270 8.0 14.0 0.00 0.01 0.00 997.2
20260505162811 0 315 8.0 14.0 0.00 0.01 0.00 997.2
20260505162751 0 315 9.0 14.0 0.00 0.01 0.00 997.2
20260505162731 0 270 9.0 14.0 0.00 0.01 0.00 997.3
20260505162721 0 270 10.0 14.0 0.00 0.01 0.00 997.3
20260505162711 0 293 10.0 14.0 0.00 0.01 0.00 997.3
20260505162651 0 315 10.0 14.0 0.00 0.01 0.00 997.2
20260505162631 0 293 10.0 14.0 0.00 0.01 0.00 997.2
20260505162621 0 270 10.0 14.0 0.00 0.01 0.00 997.3
20260505162611 0 315 10.0 14.0 0.00 0.01 0.00 997.3
20260505162601 0 270 9.0 14.0 0.00 0.01 0.00 997.2
20260505162551 0 293 9.0 14.0 0.00 0.01 0.00 997.3
20260505162541 0 270 8.0 14.0 0.00 0.01 0.00 997.2
20260505162521 0 270 8.0 14.0 0.00 0.01 0.00 997.3
20260505162501 0 270 8.0 15.0 0.00 0.01 0.00 997.3
20260505162451 0 270 8.0 15.0 0.00 0.01 0.00 997.2
20260505162431 0 293 8.0 16.0 0.00 0.01 0.00 997.3
20260505162421 0 270 8.0 16.0 0.00 0.01 0.00 997.3
20260505162402 0 270 9.0 16.0 0.00 0.01 0.00 997.3
20260505162352 0 270 10.0 16.0 0.00 0.01 0.00 997.3
20260505162332 0 293 10.0 16.0 0.00 0.01 0.00 997.3
20260505162322 0 315 10.0 16.0 0.00 0.01 0.00 997.3
20260505162312 0 293 10.0 16.0 0.00 0.01 0.00 997.2
20260505162302 0 315 10.0 16.0 0.00 0.01 0.00 997.2
20260505162252 0 270 10.0 16.0 0.00 0.01 0.00 997.3
20260505162232 0 270 10.0 16.0 0.00 0.01 0.00 997.2
20260505162222 0 270 9.0 16.0 0.00 0.01 0.00 997.2
20260505162212 0 270 9.0 16.0 0.00 0.01 0.00 997.3
20260505162152 0 315 8.0 16.0 0.00 0.01 0.00 997.2
20260505162142 0 293 8.0 16.0 0.00 0.01 0.00 997.3
20260505162132 0 270 8.0 16.0 0.00 0.01 0.00 997.2
20260505162122 0 293 8.0 16.0 0.00 0.01 0.00 997.2
20260505162112 0 270 9.0 16.0 0.00 0.01 0.00 997.2
20260505162102 0 293 10.0 16.0 0.00 0.01 0.00 997.3
20260505162032 0 270 10.0 16.0 0.00 0.01 0.00 997.2
20260505162002 0 293 10.0 16.0 0.00 0.01 0.00 997.3
20260505161952 0 315 10.0 16.0 0.00 0.01 0.00 997.2
20260505161942 0 293 10.0 15.0 0.00 0.01 0.00 997.3
20260505161932 0 315 10.0 15.0 0.00 0.01 0.00 997.3
20260505161922 0 293 10.0 15.0 0.00 0.01 0.00 997.2
20260505161902 0 270 10.0 15.0 0.00 0.01 0.00 997.3
20260505161842 0 270 10.0 15.0 0.00 0.01 0.00 997.2
20260505161823 0 270 10.0 15.0 0.00 0.01 0.00 997.3
20260505161803 0 293 10.0 15.0 0.00 0.01 0.00 997.3
20260505161743 0 270 10.0 15.0 0.00 0.01 0.00 997.3
20260505161733 0 293 10.0 14.0 0.00 0.01 0.00 997.3
20260505161723 0 270 10.0 14.0 0.01 0.01 0.00 997.3
20260505161713 0 293 9.0 14.0 0.01 0.01 0.00 997.3
20260505161653 0 270 9.0 14.0 0.01 0.01 0.00 997.3
20260505161643 0 315 9.0 15.0 0.01 0.01 0.00 997.3
20260505161623 0 270 9.0 15.0 0.01 0.01 0.00 997.3
20260505161603 0 293 9.0 15.0 0.01 0.01 0.00 997.2
20260505161543 0 270 9.0 15.0 0.01 0.01 0.00 997.2
20260505161523 0 270 10.0 15.0 0.01 0.01 0.00 997.2
20260505161503 0 315 10.0 15.0 0.01 0.01 0.00 997.2
20260505161443 0 270 10.0 15.0 0.01 0.01 0.00 997.2
20260505161423 0 270 9.0 15.0 0.01 0.01 0.00 997.1
20260505161413 0 270 9.0 15.0 0.01 0.01 0.00 997.2
20260505161353 0 293 9.0 15.0 0.01 0.01 0.00 997.3
20260505161343 0 270 10.0 15.0 0.01 0.01 0.00 997.2
20260505161333 0 293 9.0 15.0 0.01 0.01 0.00 997.2
20260505161323 0 315 10.0 15.0 0.01 0.01 0.00 997.1
20260505161313 0 315 10.0 15.0 0.01 0.01 0.00 997.2
20260505161254 0 293 9.0 15.0 0.01 0.01 0.00 997.2
20260505161244 0 315 10.0 15.0 0.01 0.01 0.00 997.1
20260505161224 0 270 10.0 15.0 0.01 0.01 0.00 997.1
20260505161214 0 270 10.0 15.0 0.01 0.01 0.00 997.2
20260505161204 0 270 11.0 15.0 0.01 0.01 0.00 997.1
20260505161154 0 293 11.0 15.0 0.01 0.01 0.00 997.2
20260505161144 0 270 10.0 15.0 0.01 0.01 0.00 997.1
20260505161124 0 293 10.0 15.0 0.01 0.01 0.00 997.1
20260505161104 0 270 10.0 14.0 0.01 0.01 0.00 997.2
20260505161044 0 315 10.0 14.0 0.01 0.01 0.00 997.1
20260505161014 0 270 10.0 14.0 0.01 0.01 0.00 997.1
20260505161004 0 315 10.0 14.0 0.01 0.01 0.00 997.1
20260505160954 0 315 10.0 14.0 0.01 0.01 0.00 997.0
20260505160934 0 270 10.0 14.0 0.01 0.01 0.00 997.1
20260505160914 0 315 10.0 14.0 0.01 0.01 0.00 997.1
20260505160904 0 270 9.0 14.0 0.01 0.01 0.00 997.1
20260505160854 0 270 9.0 13.0 0.01 0.01 0.00 997.1
20260505160844 0 315 9.0 13.0 0.01 0.01 0.00 997.1
20260505160834 0 293 9.0 13.0 0.01 0.01 0.00 997.1
20260505160824 0 315 10.0 13.0 0.01 0.01 0.00 997.1
20260505160814 0 270 10.0 13.0 0.01 0.01 0.00 997.1
20260505160804 0 270 9.0 13.0 0.01 0.01 0.00 997.1
20260505160754 0 315 9.0 13.0 0.01 0.01 0.00 997.2
20260505160744 0 293 8.0 13.0 0.01 0.01 0.00 997.1
20260505160715 0 315 8.0 13.0 0.01 0.01 0.00 997.1
20260505160705 0 293 8.0 13.0 0.01 0.01 0.00 997.1
20260505160645 0 270 8.0 13.0 0.01 0.01 0.00 997.1
20260505160635 0 270 8.0 13.0 0.01 0.01 0.00 997.0
20260505160625 0 293 8.0 13.0 0.01 0.01 0.00 997.1
20260505160615 0 315 9.0 13.0 0.01 0.01 0.00 997.1
20260505160605 0 270 9.0 13.0 0.01 0.01 0.00 997.1
20260505160555 0 270 8.0 13.0 0.01 0.01 0.00 997.1
20260505160535 0 315 8.0 13.0 0.01 0.01 0.00 997.1
20260505160515 0 270 8.0 13.0 0.01 0.01 0.00 997.1
20260505160445 0 270 9.0 13.0 0.01 0.01 0.00 997.1
20260505160415 0 293 9.0 13.0 0.01 0.01 0.00 997.1
20260505160405 0 270 9.0 13.0 0.01 0.01 0.00 997.1
20260505160355 0 270 9.0 13.0 0.01 0.01 0.00 997.0
20260505160345 0 315 8.0 13.0 0.01 0.01 0.00 997.0
20260505160335 0 270 8.0 13.0 0.01 0.01 0.00 997.1
20260505160315 0 315 8.0 13.0 0.01 0.01 0.00 997.1
20260505160305 0 315 8.0 13.0 0.01 0.01 0.00 997.0
20260505160255 0 270 8.0 13.0 0.01 0.01 0.00 997.0
20260505160245 0 293 8.0 13.0 0.01 0.01 0.00 997.0
20260505160235 0 270 8.0 13.0 0.01 0.01 0.00 997.1
20260505160225 0 315 9.0 14.0 0.01 0.01 0.00 997.0
20260505160206 0 293 8.0 15.0 0.01 0.01 0.00 997.0
20260505160156 0 270 8.0 15.0 0.01 0.01 0.00 997.0
20260505160116 0 270 8.0 15.0 0.01 0.01 0.00 997.0
20260505160106 0 293 8.0 15.0 0.01 0.01 0.00 997.0
20260505153341 0 315 8.0 14.0 0.01 0.01 0.00 996.8
20260505153331 0 270 7.0 14.0 0.01 0.01 0.00 996.9
20260505153251 0 293 7.0 14.0 0.01 0.01 0.00 996.8
20260505153241 0 270 7.0 14.0 0.01 0.01 0.00 996.8
20260505153231 0 315 8.0 14.0 0.01 0.01 0.00 996.8
20260505153221 0 270 8.0 14.0 0.01 0.01 0.00 996.9
20260505153211 0 270 8.0 14.0 0.01 0.01 0.00 996.8
20260505153201 0 293 9.0 14.0 0.01 0.01 0.00 996.9
20260505153141 0 315 9.0 14.0 0.01 0.01 0.00 996.8
20260505153131 0 270 9.0 14.0 0.01 0.01 0.00 996.9
20260505153121 0 270 9.0 14.0 0.01 0.01 0.00 996.8
20260505153051 0 270 9.0 14.0 0.01 0.01 0.00 996.9
20260505153041 0 270 9.0 14.0 0.01 0.01 0.00 996.8
20260505153031 0 270 10.0 14.0 0.01 0.01 0.00 996.9
20260505153021 0 270 10.0 14.0 0.01 0.01 0.00 996.8
20260505153001 0 315 10.0 14.0 0.01 0.01 0.00 996.8
20260505152951 0 293 10.0 14.0 0.01 0.01 0.00 996.8
20260505152911 0 270 10.0 14.0 0.01 0.01 0.00 996.8
20260505152901 0 270 9.0 14.0 0.01 0.01 0.00 996.7
20260505152852 0 270 9.0 14.0 0.01 0.01 0.00 996.8
20260505152842 0 293 8.0 14.0 0.01 0.01 0.00 996.7
20260505152812 0 270 8.0 16.0 0.01 0.01 0.00 996.7
20260505152752 0 315 8.0 16.0 0.01 0.01 0.00 996.7
20260505152732 0 270 8.0 16.0 0.01 0.01 0.00 996.7
20260505152722 0 270 8.0 16.0 0.01 0.01 0.00 996.8
20260505152642 0 270 8.0 16.0 0.01 0.01 0.00 996.7
20260505152602 0 270 8.0 16.0 0.01 0.01 0.00 996.7
20260505152552 0 270 8.0 16.0 0.01 0.01 0.00 996.8
20260505152522 0 270 8.0 16.0 0.01 0.01 0.00 996.7
20260505152442 0 270 8.0 16.0 0.01 0.01 0.00 996.7
20260505152432 0 315 8.0 16.0 0.01 0.01 0.00 996.7
20260505152352 0 270 9.0 16.0 0.01 0.01 0.00 996.7
20260505152342 0 315 10.0 16.0 0.01 0.01 0.00 996.7
20260505152313 0 270 9.0 16.0 0.01 0.01 0.00 996.7
20260505152305 0 270 9.0 16.0 0.01 0.01 0.00 996.8
20260505152253 0 293 9.0 16.0 0.01 0.01 0.00 996.6
20260505152233 0 270 8.0 11.0 0.01 0.01 0.00 996.7
20260505152223 0 315 8.0 11.0 0.01 0.01 0.00 996.7
20260505152153 0 270 8.0 11.0 0.01 0.01 0.00 996.7
20260505152143 0 315 7.0 11.0 0.01 0.01 0.00 996.7
20260505152133 0 270 7.0 11.0 0.01 0.01 0.00 996.6
20260505152123 0 270 6.0 10.0 0.01 0.01 0.00 996.7
20260505152043 0 270 6.0 10.0 0.01 0.01 0.00 996.7
20260505152023 0 270 5.0 10.0 0.01 0.01 0.00 996.7
20260505152003 0 270 4.0 10.0 0.01 0.01 0.00 996.7
20260505151953 0 248 4.0 10.0 0.01 0.01 0.00 996.7
20260505151933 0 270 3.0 10.0 0.01 0.01 0.00 996.7
20260505151853 0 270 4.0 10.0 0.01 0.01 0.00 996.7
20260505151843 0 315 4.0 10.0 0.01 0.01 0.00 996.7
20260505151833 0 270 5.0 10.0 0.01 0.01 0.00 996.7
20260505151803 0 270 6.0 10.0 0.01 0.01 0.00 996.7
20260505151743 0 315 6.0 10.0 0.01 0.01 0.00 996.7
20260505151724 0 315 6.0 10.0 0.00 0.00 0.00 996.6
20260505151714 0 270 6.0 10.0 0.00 0.00 0.00 996.7
20260505151654 0 0 6.0 10.0 0.00 0.00 0.00 996.7
20260505151634 0 315 6.0 10.0 0.00 0.00 0.00 996.7
20260505151624 0 270 6.0 10.0 0.00 0.00 0.00 996.7
20260505151544 0 315 6.0 10.0 0.00 0.00 0.00 996.7
20260505151524 0 315 6.0 10.0 0.00 0.00 0.00 996.8
20260505151514 0 315 5.0 10.0 0.00 0.00 0.00 996.8
20260505151504 0 0 5.0 10.0 0.00 0.00 0.00 996.8
20260505151434 0 338 4.0 10.0 0.00 0.00 0.00 996.8
20260505151424 0 315 4.0 10.0 0.00 0.00 0.00 996.8
20260505151344 0 315 5.0 10.0 0.00 0.00 0.00 996.8
20260505151334 0 315 6.0 10.0 0.00 0.00 0.00 996.9
20260505151324 0 293 6.0 10.0 0.00 0.00 0.00 996.8
20260505151304 0 0 6.0 10.0 0.00 0.00 0.00 996.9
20260505151254 0 315 6.0 10.0 0.00 0.00 0.00 997.0
20260505151234 0 0 6.0 10.0 0.00 0.00 0.00 997.0
20260505151224 0 315 6.0 9.0 0.00 0.00 0.00 997.0
20260505151204 0 315 5.0 9.0 0.00 0.00 0.00 997.0
20260505151154 0 315 5.0 8.0 0.00 0.00 0.00 997.0
20260505151145 0 315 4.0 8.0 0.00 0.00 0.00 997.0
20260505151115 0 315 4.0 8.0 0.00 0.00 0.00 997.1
20260505151105 0 315 4.0 8.0 0.00 0.00 0.00 997.2
20260505151025 0 315 4.0 8.0 0.00 0.00 0.00 997.2
20260505151015 0 0 4.0 8.0 0.00 0.00 0.00 997.2
20260505151005 0 315 5.0 8.0 0.00 0.00 0.00 997.3
20260505150925 0 315 4.0 8.0 0.00 0.00 0.00 997.3
20260505150915 0 315 4.0 8.0 0.00 0.00 0.00 997.4
20260505150905 0 315 3.0 7.0 0.00 0.00 0.00 997.4
20260505150855 0 338 3.0 7.0 0.00 0.00 0.00 997.4
20260505150845 0 315 3.0 8.0 0.00 0.00 0.00 997.4
20260505150815 0 0 3.0 8.0 0.00 0.00 0.00 997.4
20260505150805 0 315 3.0 8.0 0.00 0.00 0.00 997.5
20260505150755 0 270 2.0 8.0 0.00 0.00 0.00 997.5
20260505150745 0 315 2.0 8.0 0.00 0.00 0.00 997.5
20260505150735 0 315 2.0 10.0 0.00 0.00 0.00 997.5
20260505150725 0 315 2.0 11.0 0.00 0.00 0.00 997.5
20260505150715 0 315 2.0 13.0 0.00 0.00 0.00 997.6
20260505150705 0 315 2.0 14.0 0.00 0.00 0.00 997.6
20260505150655 0 0 2.0 14.0 0.00 0.00 0.00 997.6
20260505150635 0 315 2.0 16.0 0.00 0.00 0.00 997.6
20260505150616 0 0 2.0 16.0 0.00 0.00 0.00 997.6
20260505150606 0 45 2.0 16.0 0.00 0.00 0.00 997.5
20260505150556 0 338 2.0 16.0 0.00 0.00 0.00 997.6
20260505150546 0 293 2.0 16.0 0.00 0.00 0.00 997.6
20260505150536 0 315 3.0 16.0 0.00 0.00 0.00 997.6
20260505150526 0 0 3.0 16.0 0.00 0.00 0.00 997.6
20260505150516 0 315 4.0 16.0 0.00 0.00 0.00 997.6
20260505150506 0 338 4.0 16.0 0.00 0.00 0.00 997.6
20260505150456 0 338 4.0 16.0 0.00 0.00 0.00 997.5
20260505150446 0 293 5.0 16.0 0.00 0.00 0.00 997.5
20260505150436 0 315 5.0 16.0 0.00 0.00 0.00 997.5
20260505150426 0 293 6.0 16.0 0.00 0.00 0.00 997.6
20260505150356 0 315 6.0 16.0 0.00 0.00 0.00 997.6
20260505150336 0 315 6.0 16.0 0.00 0.00 0.00 997.5
20260505150326 0 270 7.0 16.0 0.00 0.00 0.00 997.6
20260505150316 0 293 8.0 16.0 0.00 0.00 0.00 997.5
20260505150306 0 270 9.0 16.0 0.00 0.00 0.00 997.5
20260505150256 0 293 10.0 16.0 0.00 0.00 0.00 997.5
20260505150246 0 315 10.0 16.0 0.00 0.00 0.00 997.5
20260505150226 0 315 12.0 16.0 0.00 0.00 0.00 997.5
20260505150216 0 315 12.0 16.0 0.00 0.00 0.00 997.4
20260505150206 0 315 11.0 16.0 0.00 0.00 0.00 997.5
20260505150156 0 293 10.0 16.0 0.00 0.00 0.00 997.4
20260505150146 0 270 10.0 16.0 0.00 0.00 0.00 997.4
20260505150136 0 270 9.0 16.0 0.00 0.00 0.00 997.5
20260505150116 0 293 9.0 17.0 0.00 0.00 0.00 997.5
20260505140626 78 225 3.0 5.0 0.00 0.00 0.00 32 996.4
20260505140556 78 225 2.0 5.0 0.00 0.00 0.00 32 996.4
20260505140526 79 225 2.0 5.0 0.00 0.00 0.00 32 996.4
20260505140516 79 180 2.0 5.0 0.00 0.00 0.00 32 996.4
20260505140507 79 225 2.0 5.0 0.00 0.00 0.00 32 996.3
20260505140447 0 203 2.0 5.0 0.00 0.00 0.00 996.4
20260505140437 0 225 2.0 5.0 0.00 0.00 0.00 996.4
20260505140427 79 225 2.0 5.0 0.00 0.00 0.00 32 996.4
20260505140407 79 135 2.0 5.0 0.00 0.00 0.00 32 996.4
20260505140347 79 180 2.0 5.0 0.00 0.00 0.00 31 996.4
20260505140337 79 225 2.0 5.0 0.00 0.00 0.00 31 996.4
20260505140317 0 225 2.0 5.0 0.00 0.00 0.00 996.4
20260505140307 79 180 2.0 5.0 0.00 0.00 0.00 31 996.4
20260505140257 0 270 2.0 5.0 0.00 0.00 0.00 996.4
20260505140247 79 203 2.0 5.0 0.00 0.00 0.00 31 996.4
20260505140237 0 180 2.0 6.0 0.00 0.00 0.00 996.4
20260505140227 79 180 2.0 7.0 0.00 0.00 0.00 31 996.4
20260505140217 79 225 2.0 7.0 0.00 0.00 0.00 31 996.4
20260505140157 0 135 2.0 7.0 0.00 0.00 0.00 996.4
20260505140137 79 135 2.0 7.0 0.00 0.00 0.00 31 996.4
20260505140127 0 180 2.0 7.0 0.00 0.00 0.00 996.4
20260505140117 79 180 2.0 7.0 0.00 0.00 0.00 31 996.4
20260505140107 79 113 2.0 7.0 0.00 0.00 0.00 31 996.4
20260505130309 85 225 2.0 7.0 0.00 0.00 0.00 28 996.9
20260505130259 0 180 1.0 7.0 0.00 0.00 0.00 996.9
20260505130239 85 180 1.0 7.0 0.00 0.00 0.00 28 996.9
20260505130229 0 270 2.0 7.0 0.00 0.00 0.00 996.9
20260505130219 85 225 2.0 7.0 0.00 0.00 0.00 29 996.9
20260505130209 84 135 2.0 7.0 0.00 0.00 0.00 29 996.9
20260505130149 84 180 3.0 7.0 0.00 0.00 0.00 29 996.9
20260505130139 84 180 4.0 7.0 0.00 0.00 0.00 29 996.9
20260505130109 84 158 4.0 7.0 0.00 0.00 0.00 29 996.9
20260505125041 84 180 4.0 8.0 0.00 0.00 0.00 28 997.0
20260505125031 84 180 3.0 8.0 0.00 0.00 0.00 29 997.0
20260505125021 0 180 3.0 8.0 0.00 0.00 0.00 997.0
20260505125011 0 225 2.0 8.0 0.00 0.00 0.00 997.0
20260505125001 85 158 3.0 8.0 0.00 0.00 0.00 29 997.0
20260505124951 85 270 3.0 8.0 0.00 0.00 0.00 29 997.0
20260505124941 85 203 3.0 8.0 0.00 0.00 0.00 29 997.0
20260505124932 85 203 4.0 8.0 0.00 0.00 0.00 29 997.0
20260505124911 85 225 3.0 8.0 0.00 0.00 0.00 29 997.0
20260505124901 0 225 2.0 8.0 0.00 0.00 0.00 997.0
20260505124852 85 180 2.0 8.0 0.00 0.00 0.00 29 997.0
20260505124842 85 203 2.0 8.0 0.00 0.00 0.00 29 997.0
20260505124832 85 180 1.0 8.0 0.00 0.00 0.00 29 997.0
20260505124822 85 225 1.0 8.0 0.00 0.00 0.00 29 997.0
20260505124812 85 180 1.0 8.0 0.00 0.00 0.00 29 997.1
20260505124752 0 180 1.0 8.0 0.00 0.00 0.00 997.1
20260505124742 85 180 1.0 8.0 0.00 0.00 0.00 29 997.0
20260505124732 85 135 2.0 8.0 0.00 0.00 0.00 29 997.1
20260505124722 85 135 2.0 8.0 0.00 0.00 0.00 29 997.0
20260505124702 0 135 2.0 8.0 0.00 0.00 0.00 997.0
20260505124652 84 135 2.0 8.0 0.00 0.00 0.00 29 997.1
20260505124642 84 135 2.0 8.0 0.00 0.00 0.00 29 997.0
20260505124632 84 90 2.0 8.0 0.00 0.00 0.00 29 997.1
20260505124622 84 113 3.0 8.0 0.00 0.00 0.00 29 997.0
20260505124602 84 135 3.0 8.0 0.00 0.00 0.00 29 997.0
20260505124552 84 135 2.0 8.0 0.00 0.00 0.00 29 997.0
20260505124542 84 113 2.0 8.0 0.00 0.00 0.00 29 997.0
20260505124532 84 90 3.0 8.0 0.00 0.00 0.00 29 997.0
20260505124522 0 135 3.0 8.0 0.00 0.00 0.00 997.0
20260505124502 84 90 4.0 8.0 0.00 0.00 0.00 29 997.0
20260505124452 84 135 4.0 8.0 0.00 0.00 0.00 29 997.0
20260505124442 84 90 5.0 8.0 0.00 0.00 0.00 28 997.0
20260505124432 84 135 5.0 8.0 0.00 0.00 0.00 28 997.0
20260505124422 85 135 4.0 8.0 0.00 0.00 0.00 28 997.1
20260505124412 0 135 4.0 8.0 0.00 0.00 0.00 997.0
20260505124402 86 135 3.0 7.0 0.00 0.00 0.00 28 997.0
20260505124353 86 135 2.0 7.0 0.00 0.00 0.00 28 997.1
20260505124333 86 90 2.0 6.0 0.00 0.00 0.00 28 997.1
20260505124323 86 135 2.0 6.0 0.00 0.00 0.00 28 997.1
20260505124313 85 135 2.0 6.0 0.00 0.00 0.00 29 997.1
20260505124243 85 90 2.0 6.0 0.00 0.00 0.00 29 997.1
20260505124233 0 113 2.0 6.0 0.00 0.00 0.00 997.1
20260505124223 0 90 2.0 6.0 0.00 0.00 0.00 997.1
20260505124203 85 90 2.0 6.0 0.00 0.00 0.00 29 997.1
20260505124153 84 135 2.0 6.0 0.00 0.00 0.00 29 997.1
20260505124143 84 135 3.0 6.0 0.00 0.00 0.00 29 997.1
20260505124133 84 135 3.0 6.0 0.00 0.00 0.00 28 997.1
20260505124123 84 135 4.0 6.0 0.00 0.00 0.00 28 997.1
20260505124113 84 135 3.0 6.0 0.00 0.00 0.00 28 997.2
20260505124103 85 135 3.0 6.0 0.00 0.00 0.00 28 997.1
20260505124043 85 135 2.0 6.0 0.00 0.00 0.00 28 997.1
20260505124023 85 135 2.0 5.0 0.00 0.00 0.00 28 997.1
20260505124013 85 135 2.0 6.0 0.00 0.00 0.00 28 997.2
20260505123953 84 135 2.0 8.0 0.00 0.00 0.00 28 997.1
20260505123933 0 135 3.0 8.0 0.00 0.00 0.00 997.1
20260505123923 84 135 3.0 8.0 0.00 0.00 0.00 28 997.1
20260505123854 84 135 4.0 11.0 0.00 0.00 0.00 28 997.1
20260505123843 84 135 3.0 11.0 0.00 0.00 0.00 28 997.2
20260505123834 84 135 3.0 11.0 0.00 0.00 0.00 28 997.1
20260505123824 85 135 3.0 11.0 0.00 0.00 0.00 28 997.1
20260505123814 85 135 2.0 11.0 0.00 0.00 0.00 28 997.1
20260505123804 85 135 2.0 11.0 0.00 0.00 0.00 29 997.2
20260505123754 0 135 2.0 11.0 0.00 0.00 0.00 997.2
20260505123724 84 135 2.0 11.0 0.00 0.00 0.00 29 997.1
20260505123704 84 180 2.0 11.0 0.00 0.00 0.00 29 997.1
20260505123644 84 180 2.0 11.0 0.00 0.00 0.00 28 997.1
20260505123624 84 180 3.0 11.0 0.00 0.00 0.00 28 997.1
20260505123614 84 203 4.0 11.0 0.00 0.00 0.00 29 997.1
20260505123604 0 293 4.0 11.0 0.00 0.00 0.00 997.1
20260505123554 84 180 4.0 11.0 0.00 0.00 0.00 28 997.1
20260505123534 84 180 5.0 11.0 0.00 0.00 0.00 28 997.1
20260505123514 84 180 6.0 11.0 0.00 0.00 0.00 28 997.2
20260505123454 85 180 7.0 11.0 0.00 0.00 0.00 27 997.1
20260505123444 85 180 6.0 11.0 0.00 0.00 0.00 27 997.1
20260505123434 86 180 6.0 11.0 0.00 0.00 0.00 27 997.1
20260505123424 86 180 5.0 11.0 0.00 0.00 0.00 26 997.2
20260505123414 87 180 4.0 11.0 0.00 0.00 0.00 26 997.1
20260505123404 87 180 3.0 10.0 0.00 0.00 0.00 27 997.1
20260505123355 87 293 3.0 5.0 0.00 0.00 0.00 27 997.1
20260505123345 87 225 3.0 5.0 0.00 0.00 0.00 27 997.1
20260505123335 87 180 3.0 6.0 0.00 0.00 0.00 27 997.1
20260505123325 87 180 2.0 6.0 0.00 0.00 0.00 27 997.1
20260505123315 88 225 2.0 6.0 0.00 0.00 0.00 27 997.1
20260505123255 88 180 2.0 6.0 0.00 0.00 0.00 27 997.1
20260505123245 88 225 0.0 7.0 0.00 0.00 0.00 27 997.1
20260505123235 87 180 0.0 7.0 0.00 0.00 0.00 27 997.1
20260505123225 0 225 0.0 7.0 0.00 0.00 0.00 997.1
20260505123215 87 135 0.0 8.0 0.00 0.00 0.00 28 997.1
20260505123205 87 180 0.0 8.0 0.00 0.00 0.00 28 997.1
20260505123155 86 180 0.0 8.0 0.00 0.00 0.00 28 997.1
20260505123145 86 135 2.0 8.0 0.00 0.00 0.00 28 997.1
20260505123135 86 135 2.0 9.0 0.00 0.00 0.00 28 997.1
20260505123125 86 225 3.0 9.0 0.00 0.00 0.00 28 997.1
20260505123115 85 203 3.0 9.0 0.00 0.00 0.00 28 997.2
20260505123105 85 270 3.0 9.0 0.00 0.00 0.00 28 997.1
20260505123055 85 180 3.0 9.0 0.00 0.00 0.00 28 997.1
20260505123045 85 180 2.0 9.0 0.00 0.00 0.00 28 997.1
20260505123015 85 158 2.0 9.0 0.00 0.00 0.00 28 997.2
20260505123005 85 180 2.0 9.0 0.00 0.00 0.00 28 997.1
20260505122955 85 180 3.0 9.0 0.00 0.00 0.00 28 997.1
20260505122935 85 180 3.0 10.0 0.00 0.00 0.00 28 997.1
20260505122925 85 180 3.0 11.0 0.00 0.00 0.00 28 997.2
20260505122906 84 135 4.0 11.0 0.00 0.00 0.00 28 997.1
20260505122856 84 180 4.0 11.0 0.00 0.00 0.00 28 997.1
20260505122826 84 180 5.0 11.0 0.00 0.00 0.00 29 997.2
20260505122816 84 180 5.0 11.0 0.00 0.00 0.00 29 997.1
20260505122756 84 180 6.0 11.0 0.00 0.00 0.00 29 997.1
20260505122736 84 158 6.0 11.0 0.00 0.00 0.00 28 997.1
20260505122716 84 180 6.0 11.0 0.00 0.00 0.00 28 997.1
20260505122706 84 180 6.0 11.0 0.00 0.00 0.00 28 997.2
20260505122656 84 180 6.0 11.0 0.00 0.00 0.00 29 997.1
20260505122616 84 180 6.0 11.0 0.00 0.00 0.00 28 997.1
20260505122606 84 135 6.0 11.0 0.00 0.00 0.00 28 997.1
20260505122556 0 158 6.0 11.0 0.00 0.00 0.00 997.1
20260505122536 84 180 6.0 11.0 0.00 0.00 0.00 28 997.1
20260505122526 84 158 7.0 11.0 0.00 0.00 0.00 28 997.1
20260505122516 84 158 8.0 11.0 0.00 0.00 0.00 28 997.1
20260505122456 84 180 8.0 11.0 0.00 0.00 0.00 28 997.1
20260505122446 85 180 8.0 11.0 0.00 0.00 0.00 27 997.0
20260505122417 85 180 7.0 11.0 0.00 0.00 0.00 27 997.1
20260505122406 85 180 8.0 11.0 0.00 0.00 0.00 27 997.1
20260505122356 0 180 8.0 11.0 0.00 0.00 0.00 997.1
20260505122346 86 180 7.0 11.0 0.00 0.00 0.00 27 997.1
20260505122336 86 180 8.0 11.0 0.00 0.00 0.00 27 997.1
20260505122327 86 180 8.0 11.0 0.00 0.00 0.00 26 997.0
20260505122317 87 180 7.0 11.0 0.00 0.00 0.00 26 997.1
20260505122307 87 180 6.0 11.0 0.00 0.00 0.00 26 997.1
20260505122257 88 180 6.0 11.0 0.00 0.00 0.00 26 997.1
20260505122247 88 158 4.0 11.0 0.00 0.00 0.00 26 997.1
20260505122237 88 180 3.0 11.0 0.00 0.00 0.00 26 997.2
20260505122227 0 180 2.0 8.0 0.00 0.00 0.00 997.1
20260505122217 0 203 1.0 8.0 0.00 0.00 0.00 997.1
20260505122207 88 203 1.0 8.0 0.00 0.00 0.00 26 997.2
20260505122147 0 225 2.0 8.0 0.00 0.00 0.00 997.2
20260505122137 87 45 2.0 8.0 0.00 0.00 0.00 26 997.2
20260505122127 87 135 3.0 8.0 0.00 0.00 0.00 26 997.1
20260505122107 87 180 4.0 8.0 0.00 0.00 0.00 26 997.1
20260505122047 87 203 4.0 8.0 0.00 0.00 0.00 26 997.1
20260505122037 87 203 4.0 8.0 0.00 0.00 0.00 25 997.2
20260505122027 87 180 4.0 8.0 0.00 0.00 0.00 26 997.1
20260505122017 87 180 2.0 8.0 0.00 0.00 0.00 26 997.1
20260505122007 87 225 2.0 9.0 0.00 0.00 0.00 26 997.1
20260505121957 87 180 2.0 9.0 0.00 0.00 0.00 26 997.2
20260505121947 87 180 1.0 9.0 0.00 0.00 0.00 27 997.2
20260505121927 87 135 2.0 9.0 0.00 0.00 0.00 27 997.1
20260505121907 87 90 2.0 9.0 0.00 0.00 0.00 27 997.2
20260505121847 86 90 2.0 9.0 0.00 0.00 0.00 28 997.2
20260505121828 86 90 2.0 9.0 0.00 0.00 0.00 27 997.2
20260505121818 85 90 2.0 9.0 0.00 0.00 0.00 28 997.2
20260505121807 85 90 2.0 9.0 0.00 0.00 0.00 28 997.1
20260505121758 85 90 2.0 9.0 0.00 0.00 0.00 27 997.1
20260505121748 85 90 3.0 9.0 0.00 0.00 0.00 28 997.2
20260505121738 84 68 4.0 9.0 0.00 0.00 0.00 28 997.1
20260505121728 84 90 4.0 9.0 0.00 0.00 0.00 28 997.2
20260505121718 84 90 4.0 9.0 0.00 0.00 0.00 28 997.1
20260505121658 84 113 4.0 9.0 0.00 0.00 0.00 28 997.1
20260505121648 84 135 4.0 9.0 0.00 0.00 0.00 28 997.1
20260505121628 84 90 5.0 9.0 0.00 0.00 0.00 28 997.1
20260505121618 84 135 6.0 9.0 0.00 0.00 0.00 27 997.1
20260505121608 0 135 6.0 9.0 0.00 0.00 0.00 997.1
20260505121558 84 135 6.0 9.0 0.00 0.00 0.00 28 997.1
20260505121548 85 135 6.0 9.0 0.00 0.00 0.00 27 997.2
20260505121538 85 135 6.0 9.0 0.00 0.00 0.00 28 997.1
20260505121518 85 135 6.0 9.0 0.00 0.00 0.00 28 997.2
20260505121508 86 135 6.0 9.0 0.00 0.00 0.00 29 997.2
20260505121458 86 135 6.0 9.0 0.00 0.00 0.00 28 997.2
20260505121448 86 158 6.0 9.0 0.00 0.00 0.00 27 997.2
20260505121438 86 180 6.0 9.0 0.00 0.00 0.00 27 997.1
20260505121428 86 158 6.0 9.0 0.00 0.00 0.00 27 997.1
20260505121408 86 135 6.0 9.0 0.00 0.00 0.00 26 997.1
20260505121358 87 135 6.0 8.0 0.00 0.00 0.00 26 997.1
20260505121348 87 158 5.0 8.0 0.00 0.00 0.00 26 997.1
20260505121338 87 180 5.0 8.0 0.00 0.00 0.00 25 997.1
20260505121328 87 180 4.0 8.0 0.00 0.00 0.00 25 997.2
20260505121318 87 135 4.0 8.0 0.00 0.00 0.00 24 997.2
20260505121249 88 158 4.0 8.0 0.00 0.00 0.00 25 997.2
20260505121239 88 135 4.0 8.0 0.00 0.00 0.00 24 997.2
20260505121229 88 180 4.0 8.0 0.00 0.00 0.00 24 997.1
20260505121219 89 135 4.0 8.0 0.00 0.00 0.00 24 997.2
20260505121209 89 180 3.0 8.0 0.00 0.00 0.00 24 997.1
20260505121159 89 180 2.0 8.0 0.00 0.00 0.00 24 997.1
20260505121149 90 180 2.0 8.0 0.00 0.00 0.00 25 997.2
20260505121139 90 180 1.0 7.0 0.00 0.00 0.00 25 997.1
20260505121129 89 135 1.0 5.0 0.00 0.00 0.00 25 997.1
20260505121119 89 45 1.0 5.0 0.00 0.00 0.00 25 997.2
20260505121109 89 180 1.0 5.0 0.00 0.00 0.00 25 997.2
20260505121059 89 225 1.0 5.0 0.00 0.00 0.00 25 997.2
20260505121049 89 270 0.0 5.0 0.00 0.00 0.00 25 997.2
20260505121029 89 225 0.0 5.0 0.00 0.00 0.00 25 997.2
20260505121019 88 180 1.0 5.0 0.00 0.00 0.00 24 997.2
20260505121009 88 225 1.0 5.0 0.00 0.00 0.00 24 997.2
20260505120959 88 180 1.0 5.0 0.00 0.00 0.00 24 997.1
20260505120949 88 225 2.0 7.0 0.00 0.00 0.00 24 997.2
20260505120939 88 180 2.0 7.0 0.00 0.00 0.00 24 997.2
20260505120919 89 225 2.0 7.0 0.00 0.00 0.00 24 997.2
20260505120859 89 180 3.0 7.0 0.00 0.00 0.00 24 997.2
20260505120849 89 225 3.0 7.0 0.00 0.00 0.00 24 997.2
20260505120839 89 248 2.0 7.0 0.00 0.00 0.00 24 997.2
20260505120829 90 225 2.0 7.0 0.00 0.00 0.00 24 997.2
20260505120819 90 225 1.0 7.0 0.00 0.00 0.00 24 997.1
20260505120810 90 270 0.0 7.0 0.00 0.00 0.00 24 997.2
20260505120800 90 225 0.0 7.0 0.00 0.00 0.00 25 997.1
20260505120750 89 270 0.0 7.0 0.00 0.00 0.00 25 997.2
20260505120740 89 135 0.0 7.0 0.00 0.00 0.00 25 997.2
20260505120730 89 90 0.0 7.0 0.00 0.00 0.00 25 997.2
20260505120710 88 180 1.0 7.0 0.00 0.00 0.00 25 997.2
20260505120700 88 203 2.0 7.0 0.00 0.00 0.00 25 997.2
20260505120650 88 315 2.0 7.0 0.00 0.00 0.00 25 997.2
20260505120640 87 225 3.0 7.0 0.00 0.00 0.00 25 997.2
20260505120620 87 270 3.0 7.0 0.00 0.00 0.00 25 997.2
20260505120610 87 225 4.0 7.0 0.00 0.00 0.00 24 997.2
20260505120530 88 270 4.0 7.0 0.00 0.00 0.00 24 997.2
20260505120520 89 270 4.0 7.0 0.00 0.00 0.00 24 997.2
20260505120500 89 270 3.0 7.0 0.00 0.00 0.00 24 997.2
20260505120440 89 270 2.0 7.0 0.00 0.00 0.00 25 997.2
20260505120430 89 180 2.0 7.0 0.00 0.00 0.00 25 997.2
20260505120420 88 180 2.0 7.0 0.00 0.00 0.00 25 997.2
20260505120400 88 180 3.0 7.0 0.00 0.00 0.00 25 997.2
20260505120330 88 270 3.0 7.0 0.00 0.00 0.00 24 997.2
20260505120320 88 248 2.0 7.0 0.00 0.00 0.00 25 997.2
20260505120310 88 135 2.0 5.0 0.00 0.00 0.00 25 997.2
20260505120301 88 203 2.0 5.0 0.00 0.00 0.00 25 997.2
20260505120251 88 270 2.0 5.0 0.00 0.00 0.00 24 997.2
20260505120221 88 180 3.0 5.0 0.00 0.00 0.00 24 997.2
20260505120211 88 225 3.0 5.0 0.00 0.00 0.00 24 997.2
20260505120201 88 270 3.0 5.0 0.00 0.00 0.00 24 997.2
20260505120151 88 225 2.0 5.0 0.00 0.00 0.00 25 997.2
20260505120111 88 180 2.0 5.0 0.00 0.00 0.00 25 997.2
20260505120031 88 225 2.0 5.0 0.00 0.00 0.00 25 997.2
20260505120021 88 270 2.0 5.0 0.00 0.00 0.00 25 997.2
20260505120011 88 203 2.0 5.0 0.00 0.00 0.00 25 997.2
20260505115951 88 225 2.0 5.0 0.00 0.00 0.00 25 997.2
20260505115931 88 270 2.0 5.0 0.00 0.00 0.00 25 997.2
20260505115921 88 270 2.0 5.0 0.00 0.00 0.00 24 997.2
20260505115901 88 270 3.0 5.0 0.00 0.00 0.00 24 997.2
20260505115841 88 270 4.0 5.0 0.00 0.00 0.00 24 997.2
20260505115821 89 270 4.0 5.0 0.00 0.00 0.00 23 997.2
20260505115811 90 270 3.0 5.0 0.00 0.00 0.00 23 997.2
20260505115751 90 270 2.0 5.0 0.00 0.00 0.00 23 997.2
20260505115742 91 293 1.0 5.0 0.00 0.00 0.00 23 997.2
20260505115722 91 270 1.0 4.0 0.00 0.00 0.00 23 997.2
20260505115712 90 270 1.0 4.0 0.00 0.00 0.00 23 997.2
20260505115702 90 315 1.0 4.0 0.00 0.00 0.00 23 997.2
20260505115632 90 315 2.0 4.0 0.00 0.00 0.00 23 997.2
20260505115622 0 270 2.0 4.0 0.00 0.00 0.00 997.2
20260505115612 91 315 2.0 4.0 0.00 0.00 0.00 23 997.2
20260505115602 91 270 2.0 4.0 0.00 0.00 0.00 23 997.2
20260505115552 91 180 1.0 4.0 0.00 0.00 0.00 23 997.2
20260505115542 91 270 1.0 4.0 0.00 0.00 0.00 23 997.2
20260505115532 91 315 0.0 4.0 0.00 0.00 0.00 23 997.2
20260505115512 91 270 0.0 4.0 0.00 0.00 0.00 23 997.2
20260505115502 91 315 0.0 4.0 0.00 0.00 0.00 24 997.2
20260505115442 91 90 1.0 4.0 0.00 0.00 0.00 24 997.2
20260505115432 90 113 1.0 4.0 0.00 0.00 0.00 24 997.2
20260505115412 90 180 2.0 4.0 0.00 0.00 0.00 24 997.2
20260505115402 90 180 2.0 4.0 0.00 0.00 0.00 25 997.2
20260505115332 90 135 2.0 5.0 0.00 0.00 0.00 25 997.2
20260505115322 90 135 2.0 5.0 0.00 0.00 0.00 25 997.3
20260505115312 90 135 2.0 6.0 0.00 0.00 0.00 25 997.2
20260505115304 89 135 1.0 7.0 0.00 0.00 0.00 25 997.2
20260505115253 89 135 1.0 7.0 0.00 0.00 0.00 24 997.3
20260505115243 89 158 1.0 7.0 0.00 0.00 0.00 24 997.2
20260505115233 89 180 1.0 7.0 0.00 0.00 0.00 24 997.3
20260505115223 89 135 2.0 7.0 0.00 0.00 0.00 24 997.2
20260505115203 89 180 2.0 7.0 0.00 0.00 0.00 24 997.3
20260505115153 88 180 2.0 7.0 0.00 0.00 0.00 24 997.3
20260505115123 88 203 2.0 7.0 0.00 0.00 0.00 24 997.3
20260505115113 88 180 2.0 7.0 0.00 0.00 0.00 24 997.3
20260505115053 88 180 2.0 7.0 0.00 0.00 0.00 25 997.3
20260505115043 87 180 2.0 7.0 0.00 0.00 0.00 25 997.3
20260505115023 87 225 2.0 7.0 0.00 0.00 0.00 25 997.3
20260505115003 87 180 2.0 7.0 0.00 0.00 0.00 25 997.3
20260505114943 86 158 2.0 7.0 0.00 0.00 0.00 25 997.3
20260505114923 86 225 3.0 7.0 0.00 0.00 0.00 25 997.3
20260505114913 86 180 4.0 7.0 0.00 0.00 0.00 25 997.3
20260505114853 86 135 4.0 7.0 0.00 0.00 0.00 25 997.3
20260505114843 86 135 4.0 7.0 0.00 0.00 0.00 24 997.3
20260505114833 86 158 4.0 7.0 0.00 0.00 0.00 25 997.3
20260505114813 86 180 4.0 7.0 0.00 0.00 0.00 25 997.3
20260505114803 86 158 3.0 7.0 0.00 0.00 0.00 25 997.3
20260505114754 86 180 3.0 7.0 0.00 0.00 0.00 25 997.3
20260505114743 86 158 3.0 7.0 0.00 0.00 0.00 26 997.4
20260505114734 86 180 3.0 7.0 0.00 0.00 0.00 26 997.3
20260505114724 86 180 3.0 7.0 0.00 0.00 0.00 27 997.4
20260505114714 86 225 3.0 7.0 0.00 0.00 0.00 27 997.4
20260505114704 85 225 4.0 7.0 0.00 0.00 0.00 27 997.4
20260505114654 85 180 4.0 7.0 0.00 0.00 0.00 26 997.4
20260505114634 85 225 4.0 7.0 0.00 0.00 0.00 26 997.4
20260505114624 85 270 4.0 7.0 0.00 0.00 0.00 26 997.4
20260505114614 85 0 4.0 7.0 0.00 0.00 0.00 26 997.4
20260505114604 85 225 4.0 7.0 0.00 0.00 0.00 25 997.4
20260505114554 86 270 5.0 7.0 0.00 0.00 0.00 25 997.4
20260505114524 86 225 5.0 7.0 0.00 0.00 0.00 26 997.4
20260505114514 86 270 4.0 7.0 0.00 0.00 0.00 25 997.4
20260505114504 86 225 4.0 7.0 0.00 0.00 0.00 25 997.4
20260505114454 86 248 4.0 7.0 0.00 0.00 0.00 25 997.4
20260505114444 86 225 4.0 6.0 0.00 0.00 0.00 26 997.4
20260505114434 86 270 4.0 6.0 0.00 0.00 0.00 25 997.4
20260505114424 86 270 4.0 5.0 0.00 0.00 0.00 25 997.4
20260505114354 86 225 3.0 5.0 0.00 0.00 0.00 25 997.4
20260505114334 87 225 2.0 5.0 0.00 0.00 0.00 25 997.4
20260505114254 87 225 2.0 5.0 0.00 0.00 0.00 25 997.4
20260505114244 86 225 2.0 5.0 0.00 0.00 0.00 25 997.4
20260505114224 86 135 2.0 5.0 0.00 0.00 0.00 25 997.4
20260505114214 86 203 2.0 5.0 0.00 0.00 0.00 25 997.4
20260505114205 86 180 2.0 5.0 0.00 0.00 0.00 25 997.4
20260505114145 86 225 2.0 6.0 0.00 0.00 0.00 25 997.4
20260505114135 86 225 2.0 6.0 0.00 0.00 0.00 26 997.4
20260505114115 86 135 2.0 6.0 0.00 0.00 0.00 26 997.5
20260505114105 86 135 3.0 6.0 0.00 0.00 0.00 26 997.5
20260505114055 86 135 3.0 6.0 0.00 0.00 0.00 25 997.5
20260505114035 85 135 3.0 6.0 0.00 0.00 0.00 25 997.5
20260505114015 86 135 3.0 6.0 0.00 0.00 0.00 25 997.4
20260505114005 86 180 3.0 6.0 0.00 0.00 0.00 25 997.4
20260505113955 86 158 3.0 6.0 0.00 0.00 0.00 25 997.5
20260505113945 0 135 3.0 6.0 0.00 0.00 0.00 997.5
20260505113935 85 158 3.0 6.0 0.00 0.00 0.00 25 997.4
20260505113925 0 180 3.0 6.0 0.00 0.00 0.00 997.4
20260505113905 86 135 3.0 6.0 0.00 0.00 0.00 25 997.4
20260505113845 86 135 3.0 6.0 0.00 0.00 0.00 25 997.5
20260505113835 86 135 2.0 6.0 0.00 0.00 0.00 24 997.4
20260505113825 86 158 2.0 6.0 0.00 0.00 0.00 24 997.4
20260505113815 86 135 2.0 6.0 0.00 0.00 0.00 24 997.5
20260505113805 0 135 2.0 6.0 0.00 0.00 0.00 997.5
20260505113745 86 135 3.0 6.0 0.00 0.00 0.00 24 997.5
20260505113715 86 135 4.0 6.0 0.00 0.00 0.00 24 997.5
20260505113705 86 135 3.0 6.0 0.00 0.00 0.00 24 997.5
20260505113645 86 135 2.0 6.0 0.00 0.00 0.00 24 997.5
20260505113636 86 135 2.0 6.0 0.00 0.00 0.00 25 997.4
20260505113616 86 180 2.0 6.0 0.00 0.00 0.00 25 997.5
20260505113606 0 158 2.0 6.0 0.00 0.00 0.00 997.5
20260505113556 86 135 2.0 6.0 0.00 0.00 0.00 25 997.5
20260505113546 86 135 3.0 6.0 0.00 0.00 0.00 25 997.5
20260505113536 87 135 3.0 6.0 0.00 0.00 0.00 25 997.5
20260505113526 87 135 4.0 6.0 0.00 0.00 0.00 25 997.5
20260505113506 0 180 3.0 6.0 0.00 0.00 0.00 997.5
20260505113456 87 180 3.0 6.0 0.00 0.00 0.00 25 997.5
20260505113446 87 180 2.0 6.0 0.00 0.00 0.00 25 997.5
20260505113436 87 180 2.0 6.0 0.00 0.00 0.00 26 997.5
20260505113426 0 180 1.0 5.0 0.00 0.00 0.00 997.5
20260505113416 0 225 1.0 5.0 0.00 0.00 0.00 997.5
20260505113406 0 225 1.0 8.0 0.00 0.00 0.00 997.5
20260505113356 0 203 1.0 8.0 0.00 0.00 0.00 997.6
20260505113346 0 135 1.0 8.0 0.00 0.00 0.00 997.6
20260505113336 0 135 2.0 8.0 0.00 0.00 0.00 997.5
20260505113326 0 225 2.0 8.0 0.00 0.00 0.00 997.5
20260505113316 0 225 2.0 8.0 0.00 0.00 0.00 997.6
20260505113306 86 225 2.0 8.0 0.00 0.00 0.00 26 997.5
20260505113256 86 225 2.0 8.0 0.00 0.00 0.00 26 997.6
20260505113226 0 225 2.0 8.0 0.00 0.00 0.00 997.6
20260505113216 0 225 1.0 8.0 0.00 0.00 0.00 997.6
20260505113206 86 90 1.0 8.0 0.00 0.00 0.00 28 997.6
20260505113156 0 180 1.0 8.0 0.00 0.00 0.00 997.6
20260505113147 86 203 2.0 8.0 0.00 0.00 0.00 28 997.6
20260505113137 86 135 2.0 8.0 0.00 0.00 0.00 28 997.6
20260505113127 0 270 2.0 8.0 0.00 0.00 0.00 997.5
20260505113107 85 225 2.0 8.0 0.00 0.00 0.00 28 997.6
20260505113057 0 270 2.0 8.0 0.00 0.00 0.00 997.6
20260505113047 0 225 2.0 8.0 0.00 0.00 0.00 997.6
20260505113037 85 225 2.0 8.0 0.00 0.00 0.00 29 997.5
20260505113017 0 225 3.0 8.0 0.00 0.00 0.00 997.6
20260505112957 0 225 4.0 8.0 0.00 0.00 0.00 997.6
20260505112947 84 225 4.0 8.0 0.00 0.00 0.00 28 997.6
20260505112927 0 225 5.0 8.0 0.00 0.00 0.00 997.6
20260505112917 0 225 4.0 8.0 0.00 0.00 0.00 997.7
20260505112857 0 225 4.0 8.0 0.00 0.00 0.00 997.6
20260505112847 0 225 3.0 8.0 0.00 0.00 0.00 997.5
20260505112837 0 225 3.0 6.0 0.00 0.00 0.00 997.6
20260505112757 0 225 3.0 6.0 0.00 0.00 0.00 997.6
20260505112717 0 225 2.0 6.0 0.00 0.00 0.00 997.6
20260505112707 0 135 2.0 6.0 0.00 0.00 0.00 997.6
20260505112657 0 180 2.0 8.0 0.00 0.00 0.00 997.7
20260505112648 0 90 2.0 9.0 0.00 0.00 0.00 997.7
20260505112638 0 135 3.0 9.0 0.00 0.00 0.00 997.7
20260505112618 0 180 4.0 9.0 0.00 0.00 0.00 997.7
20260505112558 0 270 4.0 9.0 0.00 0.00 0.00 997.7
20260505112528 0 225 4.0 9.0 0.00 0.00 0.00 997.7
20260505112518 0 270 4.0 9.0 0.00 0.00 0.00 997.7
20260505112458 0 270 3.0 9.0 0.00 0.00 0.00 997.7
20260505112448 0 270 4.0 9.0 0.00 0.00 0.00 997.6
20260505112428 0 270 4.0 9.0 0.00 0.00 0.00 997.7
20260505112408 0 315 4.0 9.0 0.00 0.00 0.00 997.7
20260505112348 0 293 4.0 9.0 0.00 0.00 0.00 997.7
20260505112338 0 270 4.0 9.0 0.00 0.00 0.00 997.7
20260505112318 0 315 4.0 9.0 0.00 0.00 0.00 997.7
20260505112258 0 270 4.0 9.0 0.00 0.00 0.00 997.7
20260505112248 0 270 5.0 9.0 0.00 0.00 0.00 997.7
20260505112228 0 270 6.0 9.0 0.00 0.00 0.00 997.8
20260505112208 0 270 6.0 9.0 0.00 0.00 0.00 997.7
20260505112149 0 270 6.0 9.0 0.00 0.00 0.00 997.8
20260505112139 0 270 5.0 8.0 0.00 0.00 0.00 997.7
20260505112128 0 225 5.0 8.0 0.00 0.00 0.00 997.7
20260505112119 0 225 4.0 8.0 0.00 0.00 0.00 997.7
20260505112039 0 225 4.0 8.0 0.00 0.00 0.00 997.7
20260505112029 0 270 3.0 8.0 0.00 0.00 0.00 997.7
20260505112009 83 225 4.0 8.0 0.00 0.00 0.00 30 997.8
20260505111949 0 270 4.0 8.0 0.00 0.00 0.00 997.7
20260505111939 0 248 4.0 8.0 0.00 0.00 0.00 997.7
20260505111929 83 270 4.0 8.0 0.00 0.00 0.00 30 997.7
20260505111919 83 270 4.0 8.0 0.00 0.00 0.00 31 997.7
20260505111909 83 225 4.0 8.0 0.00 0.00 0.00 31 997.7
20260505111849 0 270 5.0 8.0 0.00 0.00 0.00 997.7
20260505111839 83 270 5.0 8.0 0.00 0.00 0.00 30 997.7
20260505111829 83 270 4.0 8.0 0.00 0.00 0.00 30 997.7
20260505111809 0 270 4.0 8.0 0.00 0.00 0.00 997.7
20260505111759 0 270 3.0 8.0 0.00 0.00 0.00 997.8
20260505111749 0 225 3.0 8.0 0.00 0.00 0.00 997.7
20260505111739 0 270 3.0 8.0 0.00 0.00 0.00 997.7
20260505111709 0 270 3.0 8.0 0.00 0.00 0.00 997.8
20260505111640 83 270 3.0 8.0 0.00 0.00 0.00 30 997.8
20260505111630 0 270 3.0 8.0 0.00 0.00 0.00 997.8
20260505111620 0 225 3.0 8.0 0.00 0.00 0.00 997.8
20260505111600 0 180 4.0 8.0 0.00 0.00 0.00 997.8
20260505111540 0 225 4.0 8.0 0.00 0.00 0.00 997.8
20260505111530 0 225 3.0 8.0 0.00 0.00 0.00 997.8
20260505111520 0 225 2.0 8.0 0.00 0.00 0.00 997.8
20260505111510 0 45 2.0 8.0 0.00 0.00 0.00 997.7
20260505111500 0 203 2.0 7.0 0.00 0.00 0.00 997.8
20260505111430 0 270 2.0 7.0 0.00 0.00 0.00 997.8
20260505111420 85 270 2.0 7.0 0.00 0.00 0.00 28 997.8
20260505111410 85 270 3.0 8.0 0.00 0.00 0.00 28 997.8
20260505111350 0 270 3.0 9.0 0.00 0.00 0.00 997.8
20260505111330 0 270 4.0 9.0 0.00 0.00 0.00 997.8
20260505111320 86 270 3.0 9.0 0.00 0.00 0.00 28 997.8
20260505111310 0 270 3.0 9.0 0.00 0.00 0.00 997.8
20260505111250 87 270 2.0 9.0 0.00 0.00 0.00 28 997.8
20260505111240 0 270 2.0 9.0 0.00 0.00 0.00 997.8
20260505111230 0 225 1.0 9.0 0.00 0.00 0.00 997.8
20260505111220 0 45 1.0 9.0 0.00 0.00 0.00 997.8
20260505111210 0 225 2.0 9.0 0.00 0.00 0.00 997.9
20260505111141 0 180 2.0 9.0 0.00 0.00 0.00 997.8
20260505111130 0 203 2.0 9.0 0.00 0.00 0.00 997.8
20260505111121 0 270 2.0 9.0 0.00 0.00 0.00 997.8
20260505111111 0 135 3.0 9.0 0.00 0.00 0.00 997.8
20260505111101 0 180 3.0 9.0 0.00 0.00 0.00 997.8
20260505111051 0 270 4.0 9.0 0.00 0.00 0.00 997.8
20260505111041 0 225 4.0 9.0 0.00 0.00 0.00 997.8
20260505111031 0 225 4.0 9.0 0.00 0.00 0.00 997.9
20260505111021 0 248 4.0 9.0 0.00 0.00 0.00 997.9
20260505110951 0 270 5.0 9.0 0.00 0.00 0.00 997.9
20260505110941 0 270 5.0 9.0 0.00 0.00 0.00 997.8
20260505110921 0 270 4.0 9.0 0.00 0.00 0.00 997.9
20260505110911 0 270 4.0 9.0 0.00 0.00 0.00 997.8
20260505110901 0 225 4.0 9.0 0.00 0.00 0.00 997.8
20260505110851 0 135 4.0 8.0 0.00 0.00 0.00 997.8
20260505110831 0 225 4.0 8.0 0.00 0.00 0.00 997.8
20260505110821 0 180 4.0 8.0 0.00 0.00 0.00 997.7
20260505110751 0 225 5.0 8.0 0.00 0.00 0.00 997.8
20260505110741 0 180 5.0 8.0 0.00 0.00 0.00 997.8
20260505110731 0 180 4.0 8.0 0.00 0.00 0.00 997.8
20260505110721 0 135 4.0 8.0 0.00 0.00 0.00 997.8
20260505110652 0 135 3.0 8.0 0.00 0.00 0.00 997.8
20260505110642 0 180 3.0 8.0 0.00 0.00 0.00 997.8
20260505110632 0 180 4.0 8.0 0.00 0.00 0.00 997.9
20260505110622 0 225 4.0 8.0 0.00 0.00 0.00 997.9
20260505110612 0 225 5.0 8.0 0.00 0.00 0.00 997.8
20260505110542 0 180 5.0 8.0 0.00 0.00 0.00 997.8
20260505110522 0 180 4.0 8.0 0.00 0.00 0.00 997.8
20260505110502 0 180 3.0 8.0 0.00 0.00 0.00 997.8
20260505110452 0 225 2.0 8.0 0.00 0.00 0.00 997.9
20260505110442 0 225 2.0 8.0 0.00 0.00 0.00 997.8
20260505110432 0 135 2.0 8.0 0.00 0.00 0.00 997.8
20260505110422 0 270 2.0 8.0 0.00 0.00 0.00 997.8
20260505110412 0 180 1.0 8.0 0.00 0.00 0.00 997.8
20260505110402 0 248 1.0 8.0 0.00 0.00 0.00 997.9
20260505110352 0 90 2.0 8.0 0.00 0.00 0.00 997.8
20260505110342 0 203 2.0 8.0 0.00 0.00 0.00 997.8
20260505110332 0 225 2.0 8.0 0.00 0.00 0.00 997.8
20260505110322 0 203 2.0 8.0 0.00 0.00 0.00 997.9
20260505110302 0 180 4.0 8.0 0.00 0.00 0.00 997.9
20260505110242 0 180 4.0 8.0 0.00 0.00 0.00 997.8
20260505110213 0 180 5.0 8.0 0.00 0.00 0.00 997.8
20260505110203 0 180 5.0 8.0 0.00 0.00 0.00 997.9
20260505110153 0 180 6.0 8.0 0.00 0.00 0.00 997.8
20260505110143 0 158 6.0 8.0 0.00 0.00 0.00 997.8
20260505110133 0 180 5.0 8.0 0.00 0.00 0.00 997.8
20260505110123 0 158 4.0 8.0 0.00 0.00 0.00 997.8
20260505110113 0 180 4.0 8.0 0.00 0.00 0.00 997.8
20260505102201 0 0 2.0 5.0 0.00 0.00 0.00 998.4
20260505102151 0 338 2.0 5.0 0.00 0.00 0.00 998.4
20260505102141 0 315 2.0 5.0 0.00 0.00 0.00 998.4
20260505102121 0 270 2.0 5.0 0.00 0.00 0.00 998.4
20260505102041 0 270 2.0 5.0 0.00 0.00 0.00 998.4
20260505102022 0 315 1.0 5.0 0.00 0.00 0.00 998.4
20260505102012 0 338 1.0 5.0 0.00 0.00 0.00 998.4
20260505101942 0 315 0.0 5.0 0.00 0.00 0.00 998.4
20260505101932 0 270 1.0 5.0 0.00 0.00 0.00 998.4
20260505101922 0 315 1.0 5.0 0.00 0.00 0.00 998.4
20260505101902 0 45 2.0 5.0 0.00 0.00 0.00 998.4
20260505101852 0 315 2.0 5.0 0.00 0.00 0.00 998.4
20260505101842 0 0 2.0 5.0 0.00 0.00 0.00 998.4
20260505101832 0 315 3.0 5.0 0.00 0.00 0.00 998.5
20260505101812 0 293 2.0 5.0 0.00 0.00 0.00 998.4
20260505101802 0 315 2.0 5.0 0.00 0.00 0.00 998.4
20260505101752 0 315 1.0 5.0 0.00 0.00 0.00 998.4
20260505101742 0 270 0.0 5.0 0.00 0.00 0.00 998.5
20260505101712 0 270 0.0 5.0 0.00 0.00 0.00 998.4
20260505101702 0 315 1.0 5.0 0.00 0.00 0.00 998.4
20260505101652 0 90 1.0 5.0 0.00 0.00 0.00 998.4
20260505101642 0 113 1.0 5.0 0.00 0.00 0.00 998.4
20260505101632 0 135 1.0 5.0 0.00 0.00 0.00 998.4
20260505101622 0 90 2.0 5.0 0.00 0.00 0.00 998.4
20260505101603 0 90 2.0 6.0 0.00 0.00 0.00 998.4
20260505101542 0 45 2.0 6.0 0.00 0.00 0.00 998.4
20260505101513 0 0 2.0 6.0 0.00 0.00 0.00 998.4
20260505101503 0 0 1.0 6.0 0.00 0.00 0.00 998.4
20260505101443 0 0 1.0 6.0 0.00 0.00 0.00 998.5
20260505101423 0 45 1.0 6.0 0.00 0.00 0.00 998.4
20260505101413 0 0 1.0 6.0 0.00 0.00 0.00 998.4
20260505101403 0 45 2.0 6.0 0.00 0.00 0.00 998.4
20260505101353 0 315 2.0 6.0 0.00 0.00 0.00 998.4
20260505101343 0 0 2.0 6.0 0.00 0.00 0.00 998.4
20260505101333 0 0 3.0 6.0 0.00 0.00 0.00 998.5
20260505101323 0 0 3.0 6.0 0.00 0.00 0.00 998.4
20260505101313 0 315 4.0 6.0 0.00 0.00 0.00 998.4
20260505101303 0 270 4.0 6.0 0.00 0.00 0.00 998.4
20260505101243 0 315 4.0 6.0 0.00 0.00 0.00 998.5
20260505101233 0 270 4.0 6.0 0.00 0.00 0.00 998.5
20260505101153 0 293 4.0 6.0 0.00 0.00 0.00 998.4
20260505101143 0 270 4.0 6.0 0.00 0.00 0.00 998.4
20260505101123 0 270 4.0 6.0 0.00 0.00 0.00 998.5
20260505101103 0 270 4.0 6.0 0.00 0.00 0.00 998.4
20260505101043 0 270 3.0 6.0 0.00 0.00 0.00 998.4
20260505101033 0 270 2.0 6.0 0.00 0.00 0.00 998.4
20260505101023 0 270 2.0 6.0 0.00 0.00 0.00 998.5
20260505101004 0 315 2.0 6.0 0.00 0.00 0.00 998.4
20260505100954 0 270 2.0 6.0 0.00 0.00 0.00 998.4
20260505100934 0 270 1.0 6.0 0.00 0.00 0.00 998.4
20260505100924 0 225 2.0 6.0 0.00 0.00 0.00 998.4
20260505100914 0 293 2.0 6.0 0.00 0.00 0.00 998.4
20260505100904 0 270 2.0 6.0 0.00 0.00 0.00 998.4
20260505100854 0 270 2.0 6.0 0.00 0.00 0.00 998.5
20260505100844 0 315 3.0 6.0 0.00 0.00 0.00 998.4
20260505100834 0 315 3.0 6.0 0.00 0.00 0.00 998.5
20260505100824 0 315 4.0 6.0 0.00 0.00 0.00 998.5
20260505100814 0 270 4.0 6.0 0.00 0.00 0.00 998.5
20260505100734 0 270 4.0 6.0 0.00 0.00 0.00 998.4
20260505100724 0 270 3.0 5.0 0.00 0.00 0.00 998.4
20260505100714 0 270 3.0 5.0 0.00 0.00 0.00 998.5
20260505100654 0 270 2.0 5.0 0.00 0.00 0.00 998.4
20260505100644 0 270 2.0 5.0 0.00 0.00 0.00 998.5
20260505100634 0 270 2.0 7.0 0.00 0.00 0.00 998.4
20260505100624 0 0 2.0 7.0 0.00 0.00 0.00 998.5
20260505100614 0 315 2.0 7.0 0.00 0.00 0.00 998.4
20260505100535 0 270 3.0 7.0 0.00 0.00 0.00 998.5
20260505100515 0 270 3.0 8.0 0.00 0.00 0.00 998.5
20260505100505 0 225 2.0 8.0 0.00 0.00 0.00 998.5
20260505100435 0 270 2.0 8.0 0.00 0.00 0.00 998.5
20260505100415 0 270 1.0 8.0 0.00 0.00 0.00 998.5
20260505100405 0 225 1.0 8.0 0.00 0.00 0.00 998.5
20260505100355 0 180 1.0 8.0 0.00 0.00 0.00 998.5
20260505100345 0 225 1.0 8.0 0.00 0.00 0.00 998.6
20260505100335 0 180 1.0 8.0 0.00 0.00 0.00 998.6
20260505100305 0 225 1.0 8.0 0.00 0.00 0.00 998.6
20260505100245 0 180 2.0 8.0 0.00 0.00 0.00 998.5
20260505100225 0 270 2.0 8.0 0.00 0.00 0.00 998.6
20260505100155 0 270 3.0 8.0 0.00 0.00 0.00 998.6
20260505100135 0 225 3.0 8.0 0.00 0.00 0.00 998.6
20260505100115 0 225 4.0 8.0 0.00 0.00 0.00 998.6
20260505100105 0 270 5.0 8.0 0.00 0.00 0.00 998.7
20260505100036 0 270 5.0 8.0 0.00 0.00 0.00 998.6
20260505100026 0 270 4.0 8.0 0.00 0.00 0.00 998.6
20260505100016 0 270 3.0 8.0 0.00 0.00 0.00 998.6
20260505100006 0 270 2.0 8.0 0.00 0.00 0.00 998.6
20260505095956 0 315 2.0 8.0 0.00 0.00 0.00 998.6
20260505095946 0 180 2.0 8.0 0.00 0.00 0.00 998.6
20260505095936 0 180 3.0 8.0 0.00 0.00 0.00 998.6
20260505095926 0 225 4.0 8.0 0.00 0.00 0.00 998.7
20260505095906 0 225 4.0 8.0 0.00 0.00 0.00 998.6
20260505095856 0 225 5.0 8.0 0.00 0.00 0.00 998.6
20260505095846 0 315 5.0 8.0 0.00 0.00 0.00 998.6
20260505095836 0 225 6.0 8.0 0.00 0.00 0.00 998.6
20260505095826 0 270 6.0 8.0 0.00 0.00 0.00 998.6
20260505095816 0 270 5.0 8.0 0.00 0.00 0.00 998.6
20260505095746 0 248 5.0 8.0 0.00 0.00 0.00 998.6
20260505095736 0 270 5.0 8.0 0.00 0.00 0.00 998.7
20260505095726 0 270 5.0 8.0 0.00 0.00 0.00 998.6
20260505095716 0 270 6.0 8.0 0.00 0.00 0.00 998.7
20260505095646 0 270 6.0 8.0 0.00 0.00 0.00 998.6
20260505095636 0 270 5.0 8.0 0.00 0.00 0.00 998.6
20260505095616 0 270 4.0 8.0 0.00 0.00 0.00 998.6
20260505095606 0 270 3.0 8.0 0.00 0.00 0.00 998.6
20260505095537 0 270 2.0 6.0 0.00 0.00 0.00 998.6
20260505095517 0 270 2.0 6.0 0.00 0.00 0.00 998.7
20260505095507 0 315 2.0 6.0 0.00 0.00 0.00 998.6
20260505095457 0 315 3.0 6.0 0.00 0.00 0.00 998.7
20260505095447 0 293 3.0 6.0 0.00 0.00 0.00 998.6
20260505095437 0 270 3.0 6.0 0.00 0.00 0.00 998.7
20260505095417 0 225 2.0 6.0 0.00 0.00 0.00 998.7
20260505095407 0 270 2.0 6.0 0.00 0.00 0.00 998.7
20260505095357 0 0 3.0 6.0 0.00 0.00 0.00 998.7
20260505095347 0 180 3.0 6.0 0.00 0.00 0.00 998.7
20260505095337 0 180 4.0 6.0 0.00 0.00 0.00 998.7
20260505095327 0 180 4.0 7.0 0.00 0.00 0.00 998.7
20260505095307 0 158 4.0 7.0 0.00 0.00 0.00 998.6
20260505095257 0 158 3.0 7.0 0.00 0.00 0.00 998.7
20260505095247 0 180 2.0 7.0 0.00 0.00 0.00 998.6
20260505095227 0 135 2.0 7.0 0.00 0.00 0.00 998.7
20260505095217 0 135 2.0 7.0 0.00 0.00 0.00 998.6
20260505095207 0 225 2.0 7.0 0.00 0.00 0.00 998.7
20260505095157 0 270 2.0 7.0 0.00 0.00 0.00 998.7
20260505095137 0 270 3.0 7.0 0.00 0.00 0.00 998.7
20260505095127 0 270 4.0 7.0 0.00 0.00 0.00 998.7
20260505095117 0 315 4.0 7.0 0.00 0.00 0.00 998.7
20260505095057 0 315 4.0 8.0 0.00 0.00 0.00 998.6
20260505095048 0 315 4.0 8.0 0.00 0.00 0.00 998.7
20260505095028 0 293 3.0 8.0 0.00 0.00 0.00 998.8
20260505095018 0 270 3.0 8.0 0.00 0.00 0.00 998.7
20260505095008 0 293 2.0 8.0 0.00 0.00 0.00 998.7
20260505094958 0 270 2.0 8.0 0.00 0.00 0.00 998.7
20260505094948 0 315 3.0 8.0 0.00 0.00 0.00 998.7
20260505094928 0 270 4.0 8.0 0.00 0.00 0.00 998.7
20260505094848 0 270 4.0 8.0 0.00 0.00 0.00 998.7
20260505094838 0 248 3.0 8.0 0.00 0.00 0.00 998.7
20260505094818 0 270 3.0 8.0 0.00 0.00 0.00 998.7
20260505094758 0 225 3.0 8.0 0.00 0.00 0.00 998.7
20260505094738 0 270 3.0 8.0 0.00 0.00 0.00 998.7
20260505094708 0 270 4.0 8.0 0.00 0.00 0.00 998.7
20260505094658 0 225 4.0 8.0 0.00 0.00 0.00 998.7
20260505094648 0 225 4.0 8.0 0.00 0.00 0.00 998.8
20260505094628 0 270 4.0 8.0 0.00 0.00 0.00 998.7
20260505094618 0 225 4.0 8.0 0.00 0.00 0.00 998.7
20260505094608 0 270 3.0 8.0 0.00 0.00 0.00 998.7
20260505094559 0 203 3.0 7.0 0.00 0.00 0.00 998.7
20260505094548 0 135 3.0 7.0 0.00 0.00 0.00 998.7
20260505094539 0 225 3.0 7.0 0.00 0.00 0.00 998.7
20260505094529 0 270 2.0 7.0 0.00 0.00 0.00 998.7
20260505094519 0 270 2.0 6.0 0.00 0.00 0.00 998.7
20260505094509 0 180 2.0 6.0 0.00 0.00 0.00 998.7
20260505094459 0 225 1.0 6.0 0.00 0.00 0.00 998.7
20260505094449 0 180 1.0 6.0 0.00 0.00 0.00 998.7
20260505094439 0 225 0.0 6.0 0.00 0.00 0.00 998.7
20260505094409 0 180 0.0 6.0 0.00 0.00 0.00 998.7
20260505094359 0 225 0.0 6.0 0.00 0.00 0.00 998.7
20260505094339 0 135 1.0 6.0 0.00 0.00 0.00 998.7
20260505094309 0 90 1.0 6.0 0.00 0.00 0.00 998.7
20260505094249 0 90 2.0 6.0 0.00 0.00 0.00 998.8
20260505094239 0 90 2.0 6.0 0.00 0.00 0.00 998.7
20260505094219 0 135 2.0 6.0 0.00 0.00 0.00 998.7
20260505094159 0 180 3.0 6.0 0.00 0.00 0.00 998.7
20260505094139 0 135 4.0 6.0 0.00 0.00 0.00 998.7
20260505094129 0 180 4.0 6.0 0.00 0.00 0.00 998.8
20260505094049 0 180 4.0 6.0 0.00 0.00 0.00 998.7
20260505094040 0 180 3.0 6.0 0.00 0.00 0.00 998.7
20260505094030 0 135 3.0 6.0 0.00 0.00 0.00 998.7
20260505094020 0 225 4.0 6.0 0.00 0.00 0.00 998.7
20260505094010 0 248 3.0 6.0 0.00 0.00 0.00 998.7
20260505093950 0 135 3.0 5.0 0.00 0.00 0.00 998.7
20260505093940 0 180 3.0 5.0 0.00 0.00 0.00 998.7
20260505093930 0 270 2.0 6.0 0.00 0.00 0.00 998.7
20260505093920 0 180 2.0 6.0 0.00 0.00 0.00 998.7
20260505093850 0 135 2.0 6.0 0.00 0.00 0.00 998.7
20260505093840 0 113 2.0 6.0 0.00 0.00 0.00 998.7
20260505093820 0 90 2.0 6.0 0.00 0.00 0.00 998.7
20260505093810 0 135 2.0 6.0 0.00 0.00 0.00 998.7
20260505093800 0 68 1.0 6.0 0.00 0.00 0.00 998.7
20260505093750 0 90 1.0 6.0 0.00 0.00 0.00 998.7
20260505093740 0 45 1.0 6.0 0.00 0.00 0.00 998.8
20260505093720 0 90 1.0 6.0 0.00 0.00 0.00 998.8
20260505093710 0 90 1.0 6.0 0.00 0.00 0.00 998.7
20260505093700 0 90 2.0 6.0 0.00 0.00 0.00 998.8
20260505093650 0 135 2.0 6.0 0.00 0.00 0.00 998.8
20260505093640 0 158 2.0 6.0 0.00 0.00 0.00 998.8
20260505093610 0 180 3.0 6.0 0.00 0.00 0.00 998.8
20260505093600 0 180 2.0 6.0 0.00 0.00 0.00 998.8
20260505093550 0 315 2.0 6.0 0.00 0.00 0.00 998.8
20260505093541 0 270 2.0 6.0 0.00 0.00 0.00 998.8
20260505093521 0 180 3.0 6.0 0.00 0.00 0.00 998.8
20260505093501 0 180 4.0 6.0 0.00 0.00 0.00 998.8
20260505093451 0 135 4.0 6.0 0.00 0.00 0.00 998.8
20260505093441 0 180 4.0 6.0 0.00 0.00 0.00 998.7
20260505093431 0 180 3.0 6.0 0.00 0.00 0.00 998.7
20260505093421 0 158 2.0 6.0 0.00 0.00 0.00 998.7
20260505093401 0 135 2.0 6.0 0.00 0.00 0.00 998.8
20260505093351 0 180 2.0 6.0 0.00 0.00 0.00 998.7
20260505093341 0 158 2.0 6.0 0.00 0.00 0.00 998.8
20260505093311 0 225 2.0 6.0 0.00 0.00 0.00 998.8
20260505093301 0 270 2.0 6.0 0.00 0.00 0.00 998.8
20260505093251 0 180 2.0 6.0 0.00 0.00 0.00 998.8
20260505093241 0 135 2.0 6.0 0.00 0.00 0.00 998.8
20260505093211 0 180 3.0 6.0 0.00 0.00 0.00 998.8
20260505093201 0 180 4.0 6.0 0.00 0.00 0.00 998.8
20260505093121 0 180 4.0 6.0 0.00 0.00 0.00 998.8
20260505093111 0 158 3.0 5.0 0.00 0.00 0.00 998.8
20260505093042 0 135 3.0 5.0 0.00 0.00 0.00 998.8
20260505093032 0 135 4.0 5.0 0.00 0.00 0.00 998.8
20260505093022 0 158 4.0 5.0 0.00 0.00 0.00 998.8
20260505093012 0 135 3.0 5.0 0.00 0.00 0.00 998.9
20260505093002 0 135 3.0 5.0 0.00 0.00 0.00 998.8
20260505092932 0 180 2.0 5.0 0.00 0.00 0.00 998.8
20260505092922 0 135 2.0 5.0 0.00 0.00 0.00 998.8
20260505092912 0 0 2.0 5.0 0.00 0.00 0.00 998.8
20260505092852 0 225 2.0 5.0 0.00 0.00 0.00 998.8
20260505092842 0 203 2.0 5.0 0.00 0.00 0.00 998.8
20260505092822 0 180 2.0 5.0 0.00 0.00 0.00 998.8
20260505092812 0 203 2.0 7.0 0.00 0.00 0.00 998.9
20260505092802 0 180 1.0 7.0 0.00 0.00 0.00 998.8
20260505092752 0 180 1.0 7.0 0.00 0.00 0.00 998.9
20260505092742 0 158 1.0 7.0 0.00 0.00 0.00 998.8
20260505092732 0 135 1.0 7.0 0.00 0.00 0.00 998.9
20260505092712 0 45 1.0 7.0 0.00 0.00 0.00 998.9
20260505092702 0 90 1.0 7.0 0.00 0.00 0.00 998.9
20260505092652 0 135 1.0 7.0 0.00 0.00 0.00 998.9
20260505092642 0 113 2.0 7.0 0.00 0.00 0.00 998.9
20260505092632 0 90 2.0 7.0 0.00 0.00 0.00 998.9
20260505092553 0 135 2.0 7.0 0.00 0.00 0.00 998.9
20260505092543 0 113 2.0 7.0 0.00 0.00 0.00 998.9
20260505092532 0 90 2.0 7.0 0.00 0.00 0.00 998.9
20260505092513 0 135 3.0 7.0 0.00 0.00 0.00 998.9
20260505092453 0 135 3.0 7.0 0.00 0.00 0.00 999.0
20260505092433 0 135 3.0 7.0 0.00 0.00 0.00 998.9
20260505092413 0 113 4.0 8.0 0.00 0.00 0.00 998.9
20260505092403 0 90 4.0 8.0 0.00 0.00 0.00 998.9
20260505092353 0 135 4.0 8.0 0.00 0.00 0.00 999.0
20260505092343 0 135 4.0 8.0 0.00 0.00 0.00 998.9
20260505092313 0 135 3.0 8.0 0.00 0.00 0.00 998.9
20260505092253 0 135 3.0 8.0 0.00 0.00 0.00 999.0
20260505092213 0 135 4.0 8.0 0.00 0.00 0.00 998.9
20260505092203 0 113 4.0 8.0 0.00 0.00 0.00 998.9
20260505092143 0 135 3.0 8.0 0.00 0.00 0.00 999.0
20260505092123 0 225 3.0 8.0 0.00 0.00 0.00 999.0
20260505092113 0 248 4.0 8.0 0.00 0.00 0.00 999.0
20260505092054 0 225 4.0 8.0 0.00 0.00 0.00 999.0
20260505092044 0 225 4.0 8.0 0.00 0.00 0.00 998.9
20260505092024 0 203 4.0 8.0 0.00 0.00 0.00 999.0
20260505092014 0 225 4.0 8.0 0.00 0.00 0.00 999.0
20260505091944 0 180 4.0 8.0 0.00 0.00 0.00 999.0
20260505091934 0 180 3.0 8.0 0.00 0.00 0.00 999.0
20260505091924 0 180 2.0 6.0 0.00 0.00 0.00 999.0
20260505091904 0 180 2.0 6.0 0.00 0.00 0.00 998.9
20260505091854 0 203 2.0 5.0 0.00 0.00 0.00 999.0
20260505091834 0 135 2.0 5.0 0.00 0.00 0.00 999.0
20260505091824 0 90 2.0 5.0 0.00 0.00 0.00 999.0
20260505091804 0 90 3.0 5.0 0.00 0.00 0.00 999.0
20260505091754 0 135 3.0 5.0 0.00 0.00 0.00 998.9
20260505091734 0 180 2.0 5.0 0.00 0.00 0.00 999.0
20260505091724 0 158 2.0 5.0 0.00 0.00 0.00 999.0
20260505091714 0 180 1.0 5.0 0.00 0.00 0.00 999.0
20260505091704 0 135 0.0 5.0 0.00 0.00 0.00 999.0
20260505091644 0 180 0.0 5.0 0.00 0.00 0.00 999.0
20260505091624 0 23 0.0 5.0 0.00 0.00 0.00 999.0
20260505091614 0 315 0.0 5.0 0.00 0.00 0.00 999.0
20260505091555 0 0 0.0 5.0 0.00 0.00 0.00 999.0
20260505091545 0 0 0.0 5.0 0.00 0.00 0.00 999.1
20260505091525 0 225 0.0 5.0 0.00 0.00 0.00 999.0
20260505091515 0 225 0.0 5.0 0.00 0.00 0.00 999.1
20260505091505 0 225 0.0 6.0 0.00 0.00 0.00 999.1
20260505091455 0 225 1.0 6.0 0.00 0.00 0.00 999.1
20260505091445 0 225 2.0 6.0 0.00 0.00 0.00 999.1
20260505091425 0 180 2.0 6.0 0.00 0.00 0.00 999.1
20260505091355 0 135 2.0 6.0 0.00 0.00 0.00 999.1
20260505091345 0 180 2.0 6.0 0.00 0.00 0.00 999.0
20260505091335 0 225 1.0 6.0 0.00 0.00 0.00 999.0
20260505091255 0 270 1.0 6.0 0.00 0.00 0.00 999.1
20260505091245 0 203 1.0 6.0 0.00 0.00 0.00 999.1
20260505091235 0 180 1.0 6.0 0.00 0.00 0.00 999.1
20260505091215 0 135 1.0 6.0 0.00 0.00 0.00 999.1
20260505091135 0 180 2.0 6.0 0.00 0.00 0.00 999.1
20260505091125 0 180 3.0 7.0 0.00 0.00 0.00 999.1
20260505091105 0 225 3.0 7.0 0.00 0.00 0.00 999.1
20260505091055 0 180 4.0 7.0 0.00 0.00 0.00 999.1
20260505091046 0 180 3.0 7.0 0.00 0.00 0.00 999.1
20260505091026 0 225 3.0 7.0 0.00 0.00 0.00 999.0
20260505091006 0 180 3.0 7.0 0.00 0.00 0.00 999.1
20260505090956 0 180 2.0 7.0 0.00 0.00 0.00 999.1
20260505090936 0 180 2.0 7.0 0.00 0.00 0.00 999.0
20260505090926 0 158 2.0 7.0 0.00 0.00 0.00 999.1
20260505090916 0 180 3.0 7.0 0.00 0.00 0.00 999.1
20260505090906 0 158 3.0 7.0 0.00 0.00 0.00 999.1
20260505090846 0 135 3.0 7.0 0.00 0.00 0.00 999.1
20260505090806 0 135 4.0 9.0 0.00 0.00 0.00 999.1
20260505090726 0 135 4.0 9.0 0.00 0.00 0.00 999.1
20260505090646 0 135 4.0 9.0 0.00 0.00 0.00 999.1
20260505090636 0 158 4.0 9.0 0.00 0.00 0.00 999.1
20260505090626 0 135 4.0 9.0 0.00 0.00 0.00 999.0
20260505090617 0 180 4.0 9.0 0.00 0.00 0.00 999.1
20260505090537 0 180 4.0 9.0 0.00 0.00 0.00 999.1
20260505090527 0 180 4.0 9.0 0.00 0.00 0.00 999.2
20260505090517 0 225 4.0 9.0 0.00 0.00 0.00 999.1
20260505090447 0 180 4.0 9.0 0.00 0.00 0.00 999.1
20260505090427 0 180 5.0 9.0 0.00 0.00 0.00 999.1
20260505090417 0 180 5.0 9.0 0.00 0.00 0.00 999.2
20260505090407 0 180 4.0 9.0 0.00 0.00 0.00 999.1
20260505090347 0 135 4.0 9.0 0.00 0.00 0.00 999.1
20260505090337 0 135 4.0 8.0 0.00 0.00 0.00 999.0
20260505090327 0 90 3.0 7.0 0.00 0.00 0.00 999.1
20260505090317 0 270 3.0 7.0 0.00 0.00 0.00 999.1
20260505090307 0 203 3.0 7.0 0.00 0.00 0.00 999.1
20260505090257 0 180 3.0 5.0 0.00 0.00 0.00 999.1
20260505090237 0 135 2.0 5.0 0.00 0.00 0.00 999.2
20260505090227 0 180 2.0 5.0 0.00 0.00 0.00 999.2
20260505090217 0 203 2.0 5.0 0.00 0.00 0.00 999.2
20260505090207 0 180 2.0 5.0 0.00 0.00 0.00 999.1
20260505090157 0 135 2.0 5.0 0.00 0.00 0.00 999.2
20260505090147 0 135 2.0 5.0 0.00 0.00 0.00 999.1
20260505090127 0 158 2.0 5.0 0.00 0.00 0.00 999.2
20260505090107 0 180 2.0 5.0 0.00 0.00 0.00 999.2
20260505090057 0 135 2.0 5.0 0.00 0.00 0.00 999.2
20260505090018 0 180 3.0 5.0 0.00 0.00 0.00 999.2
20260505090008 0 180 2.0 6.0 0.00 0.00 0.00 999.2
20260505085938 0 135 2.0 6.0 0.00 0.00 0.00 999.2
20260505085918 0 180 2.0 6.0 0.00 0.00 0.00 999.2
20260505085858 0 135 2.0 6.0 0.00 0.00 0.00 999.3
20260505085848 0 90 2.0 6.0 0.00 0.00 0.00 999.2
20260505085828 0 113 2.0 6.0 0.00 0.00 0.00 999.2
20260505085758 0 45 2.0 6.0 0.00 0.00 0.00 999.3
20260505085748 0 45 2.0 6.0 0.00 0.00 0.00 999.2
20260505085738 0 90 2.0 6.0 0.00 0.00 0.00 999.2
20260505085708 0 90 2.0 6.0 0.00 0.00 0.00 999.3
20260505085628 0 90 2.0 6.0 0.00 0.00 0.00 999.3
20260505085619 0 90 3.0 6.0 0.00 0.00 0.00 999.3
20260505085608 0 90 4.0 6.0 0.00 0.00 0.00 999.3
20260505085538 0 135 4.0 6.0 0.00 0.00 0.00 999.3
20260505085528 0 113 4.0 7.0 0.00 0.00 0.00 999.3
20260505085519 0 90 4.0 7.0 0.00 0.00 0.00 999.3
20260505085509 0 135 4.0 7.0 0.00 0.00 0.00 999.3
20260505085459 0 135 3.0 7.0 0.00 0.00 0.00 999.2
20260505085439 0 90 4.0 7.0 0.00 0.00 0.00 999.3
20260505085419 0 135 4.0 7.0 0.00 0.00 0.00 999.3
20260505085409 0 135 3.0 7.0 0.00 0.00 0.00 999.3
20260505085329 0 135 3.0 7.0 0.00 0.00 0.00 999.3
20260505085249 0 135 3.0 7.0 0.00 0.00 0.00 999.3
20260505085229 0 135 4.0 7.0 0.00 0.00 0.00 999.3
20260505085159 0 135 3.0 7.0 0.00 0.00 0.00 999.3
20260505085149 0 135 4.0 7.0 0.00 0.00 0.00 999.4
20260505085139 0 158 4.0 7.0 0.00 0.00 0.00 999.3
20260505085119 0 135 4.0 7.0 0.00 0.00 0.00 999.3
20260505085109 0 180 4.0 7.0 0.00 0.00 0.00 999.4
20260505085049 0 180 4.0 7.0 0.00 0.00 0.00 999.3
20260505085039 0 180 3.0 7.0 0.00 0.00 0.00 999.4
20260505085029 0 180 2.0 7.0 0.00 0.00 0.00 999.4
20260505085019 0 158 2.0 5.0 0.00 0.00 0.00 999.3
20260505085009 0 180 2.0 5.0 0.00 0.00 0.00 999.4
20260505084959 0 90 2.0 5.0 0.00 0.00 0.00 999.4
20260505084949 0 135 2.0 5.0 0.00 0.00 0.00 999.3
20260505084940 0 135 2.0 5.0 0.00 0.00 0.00 999.4
20260505084920 0 135 3.0 5.0 0.00 0.00 0.00 999.4
20260505084900 0 135 2.0 5.0 0.00 0.00 0.00 999.3
20260505084850 0 135 2.0 5.0 0.00 0.00 0.00 999.4
20260505084840 0 135 2.0 4.0 0.00 0.00 0.00 999.4
20260505084830 0 113 2.0 4.0 0.00 0.00 0.00 999.4
20260505084820 0 135 2.0 4.0 0.00 0.00 0.00 999.3
20260505084810 0 68 2.0 4.0 0.00 0.00 0.00 999.4
20260505084800 0 68 2.0 4.0 0.00 0.00 0.00 999.3
20260505084740 0 135 2.0 4.0 0.00 0.00 0.00 999.4
20260505084730 0 90 2.0 4.0 0.00 0.00 0.00 999.3
20260505084700 0 90 2.0 4.0 0.00 0.00 0.00 999.4
20260505084650 0 90 2.0 4.0 0.00 0.00 0.00 999.3
20260505084630 0 90 1.0 4.0 0.00 0.00 0.00 999.4
20260505084610 0 68 1.0 5.0 0.00 0.00 0.00 999.4
20260505084550 0 45 1.0 5.0 0.00 0.00 0.00 999.4
20260505084540 0 90 1.0 5.0 0.00 0.00 0.00 999.4
20260505084530 0 135 2.0 5.0 0.00 0.00 0.00 999.4
20260505084520 0 113 2.0 5.0 0.00 0.00 0.00 999.4
20260505084510 0 135 2.0 5.0 0.00 0.00 0.00 999.3
20260505084430 0 135 2.0 5.0 0.00 0.00 0.00 999.4
20260505084421 0 158 2.0 5.0 0.00 0.00 0.00 999.4
20260505084411 0 180 2.0 5.0 0.00 0.00 0.00 999.4
20260505084331 0 180 2.0 5.0 0.00 0.00 0.00 999.4
20260505084321 0 158 2.0 5.0 0.00 0.00 0.00 999.4
20260505084311 0 180 2.0 6.0 0.00 0.00 0.00 999.4
20260505084251 0 180 2.0 6.0 0.00 0.00 0.00 999.5
20260505084231 0 180 2.0 6.0 0.00 0.00 0.00 999.4
20260505084151 0 180 3.0 6.0 0.00 0.00 0.00 999.4
20260505084141 0 180 4.0 7.0 0.00 0.00 0.00 999.4
20260505084111 0 180 3.0 7.0 0.00 0.00 0.00 999.4
20260505084051 0 180 2.0 7.0 0.00 0.00 0.00 999.4
20260505084031 0 180 2.0 7.0 0.00 0.00 0.00 999.3
20260505084011 0 180 2.0 7.0 0.00 0.00 0.00 999.4
20260505084001 0 135 2.0 7.0 0.00 0.00 0.00 999.4
20260505083951 0 203 2.0 7.0 0.00 0.00 0.00 999.4
20260505083931 0 158 3.0 7.0 0.00 0.00 0.00 999.3
20260505083901 0 180 3.0 7.0 0.00 0.00 0.00 999.3
20260505083822 0 180 3.0 7.0 0.00 0.00 0.00 999.4
20260505083812 0 180 3.0 7.0 0.00 0.00 0.00 999.3
20260505083802 0 180 4.0 7.0 0.00 0.00 0.00 999.4
20260505083752 0 135 4.0 7.0 0.00 0.00 0.00 999.3
20260505083742 0 158 4.0 7.0 0.00 0.00 0.00 999.4
20260505083712 0 180 4.0 7.0 0.00 0.00 0.00 999.4
20260505083702 0 180 4.0 7.0 0.00 0.00 0.00 999.3
20260505083652 0 180 3.0 7.0 0.00 0.00 0.00 999.4
20260505083642 0 180 2.0 8.0 0.00 0.00 0.00 999.4
20260505083632 0 180 1.0 8.0 0.00 0.00 0.00 999.4
20260505083622 0 135 0.0 8.0 0.00 0.00 0.00 999.4
20260505083612 0 180 0.0 8.0 0.00 0.00 0.00 999.4
20260505083602 0 203 0.0 8.0 0.00 0.00 0.00 999.4
20260505083552 0 225 0.0 8.0 0.00 0.00 0.00 999.4
20260505083542 0 225 1.0 8.0 0.00 0.00 0.00 999.4
20260505083532 0 180 1.0 9.0 0.00 0.00 0.00 999.4
20260505083512 0 270 2.0 9.0 0.00 0.00 0.00 999.4
20260505083452 0 225 2.0 9.0 0.00 0.00 0.00 999.4
20260505083422 0 270 2.0 9.0 0.00 0.00 0.00 999.4
20260505083412 0 225 2.0 9.0 0.00 0.00 0.00 999.4
20260505083402 0 180 2.0 9.0 0.00 0.00 0.00 999.4
20260505083352 0 135 2.0 9.0 0.00 0.00 0.00 999.4
20260505083342 0 203 2.0 9.0 0.00 0.00 0.00 999.4
20260505083332 0 225 2.0 9.0 0.00 0.00 0.00 999.4
20260505083323 0 225 3.0 9.0 0.00 0.00 0.00 999.4
20260505083303 0 158 3.0 9.0 0.00 0.00 0.00 999.4
20260505083253 0 180 3.0 9.0 0.00 0.00 0.00 999.4
20260505083233 0 135 4.0 9.0 0.00 0.00 0.00 999.4
20260505083223 0 180 4.0 9.0 0.00 0.00 0.00 999.4
20260505083213 0 158 4.0 9.0 0.00 0.00 0.00 999.4
20260505083153 0 180 5.0 9.0 0.00 0.00 0.00 999.4
20260505083143 0 180 6.0 9.0 0.00 0.00 0.00 999.4
20260505083103 0 180 6.0 9.0 0.00 0.00 0.00 999.4
20260505083053 0 180 5.0 9.0 0.00 0.00 0.00 999.4
20260505083033 0 180 4.0 9.0 0.00 0.00 0.00 999.4
20260505083023 0 180 2.0 8.0 0.00 0.00 0.00 999.4
20260505083013 0 135 2.0 7.0 0.00 0.00 0.00 999.3
20260505083003 0 225 2.0 7.0 0.00 0.00 0.00 999.4
20260505082943 0 180 2.0 7.0 0.00 0.00 0.00 999.4
20260505082923 0 180 2.0 7.0 0.00 0.00 0.00 999.5
20260505082913 0 225 2.0 7.0 0.00 0.00 0.00 999.4
20260505082904 0 180 2.0 7.0 0.00 0.00 0.00 999.4
20260505082853 0 203 3.0 7.0 0.00 0.00 0.00 999.4
20260505082843 0 180 3.0 7.0 0.00 0.00 0.00 999.4
20260505082803 0 180 3.0 7.0 0.00 0.00 0.00 999.4
20260505082753 0 180 3.0 7.0 0.00 0.00 0.00 999.3
20260505082714 0 180 4.0 7.0 0.00 0.00 0.00 999.4
20260505082634 0 180 4.0 7.0 0.00 0.00 0.00 999.4
20260505082624 0 180 4.0 7.0 0.00 0.00 0.00 999.3
20260505082614 0 0 3.0 5.0 0.00 0.00 0.00 999.4
20260505082604 0 180 3.0 5.0 0.00 0.00 0.00 999.4
20260505082534 0 180 2.0 5.0 0.00 0.00 0.00 999.4
20260505082514 0 270 2.0 4.0 0.00 0.00 0.00 999.4
20260505082504 0 135 2.0 4.0 0.00 0.00 0.00 999.4
20260505082454 0 180 2.0 4.0 0.00 0.00 0.00 999.4
20260505082444 0 135 2.0 4.0 0.00 0.00 0.00 999.3
20260505082434 0 90 2.0 4.0 0.00 0.00 0.00 999.3
20260505082414 0 135 2.0 4.0 0.00 0.00 0.00 999.4
20260505082404 0 180 2.0 6.0 0.00 0.00 0.00 999.4
20260505082354 0 135 2.0 6.0 0.00 0.00 0.00 999.3
20260505082344 0 180 1.0 6.0 0.00 0.00 0.00 999.4
20260505082334 0 135 1.0 6.0 0.00 0.00 0.00 999.3
20260505082324 0 180 1.0 6.0 0.00 0.00 0.00 999.3
20260505082314 0 135 1.0 6.0 0.00 0.00 0.00 999.4
20260505082254 0 135 0.0 6.0 0.00 0.00 0.00 999.4
20260505082244 0 180 1.0 6.0 0.00 0.00 0.00 999.4
20260505082234 0 135 1.0 6.0 0.00 0.00 0.00 999.3
20260505082225 0 135 2.0 6.0 0.00 0.00 0.00 999.4
20260505082205 0 180 2.0 6.0 0.00 0.00 0.00 999.4
20260505082145 0 180 2.0 6.0 0.00 0.00 0.00 999.3
20260505082115 0 180 1.0 6.0 0.00 0.00 0.00 999.4
20260505082105 0 135 0.0 6.0 0.00 0.00 0.00 999.4
20260505082055 0 135 0.0 6.0 0.00 0.00 0.00 999.3
20260505082045 0 180 0.0 6.0 0.00 0.00 0.00 999.4
20260505082035 0 203 0.0 6.0 0.00 0.00 0.00 999.4
20260505082025 0 180 1.0 6.0 0.00 0.00 0.00 999.4
20260505082015 0 203 2.0 6.0 0.00 0.00 0.00 999.4
20260505082005 0 180 2.0 6.0 0.00 0.00 0.00 999.4
20260505081955 0 225 2.0 6.0 0.00 0.00 0.00 999.4
20260505081945 0 315 3.0 6.0 0.00 0.00 0.00 999.4
20260505081925 0 180 3.0 6.0 0.00 0.00 0.00 999.4
20260505081915 0 225 3.0 6.0 0.00 0.00 0.00 999.4
20260505081905 0 180 2.0 6.0 0.00 0.00 0.00 999.3
20260505081845 0 180 2.0 6.0 0.00 0.00 0.00 999.4
20260505081835 0 135 2.0 6.0 0.00 0.00 0.00 999.4
20260505081825 0 180 2.0 6.0 0.00 0.00 0.00 999.3
20260505081805 0 180 2.0 6.0 0.00 0.00 0.00 999.4
20260505081755 0 135 2.0 6.0 0.00 0.00 0.00 999.3
20260505081735 0 135 2.0 6.0 0.00 0.00 0.00 999.4
20260505081725 0 135 3.0 6.0 0.00 0.00 0.00 999.4
20260505081715 0 158 3.0 6.0 0.00 0.00 0.00 999.3
20260505081655 0 135 4.0 6.0 0.00 0.00 0.00 999.3
20260505081646 0 180 4.0 6.0 0.00 0.00 0.00 999.4
20260505081636 0 180 4.0 6.0 0.00 0.00 0.00 999.3
20260505081556 0 180 4.0 6.0 0.00 0.00 0.00 999.3
20260505081546 0 158 4.0 6.0 0.00 0.00 0.00 999.3
20260505081536 0 180 3.0 6.0 0.00 0.00 0.00 999.3
20260505081526 0 180 3.0 6.0 0.00 0.00 0.00 999.4
20260505081516 0 180 2.0 6.0 0.00 0.00 0.00 999.3
20260505081506 0 135 2.0 5.0 0.00 0.00 0.00 999.3
20260505081446 0 225 2.0 4.0 0.00 0.00 0.00 999.3
20260505081436 0 180 2.0 4.0 0.00 0.00 0.00 999.3
20260505081356 0 135 2.0 4.0 0.00 0.00 0.00 999.3
20260505081346 0 180 2.0 4.0 0.00 0.00 0.00 999.3
20260505081326 0 135 2.0 4.0 0.00 0.00 0.00 999.4
20260505081316 0 158 2.0 4.0 0.00 0.00 0.00 999.3
20260505081306 0 180 2.0 4.0 0.00 0.00 0.00 999.3
20260505081256 0 135 2.0 4.0 0.00 0.00 0.00 999.3
20260505081226 0 180 2.0 4.0 0.00 0.00 0.00 999.3
20260505081216 0 180 2.0 3.0 0.00 0.00 0.00 999.4
20260505081206 0 158 2.0 3.0 0.00 0.00 0.00 999.4
20260505081156 0 180 2.0 3.0 0.00 0.00 0.00 999.3
20260505081137 0 135 2.0 3.0 0.00 0.00 0.00 999.3
20260505081127 0 135 1.0 3.0 0.00 0.00 0.00 999.3
20260505081117 0 135 1.0 3.0 0.00 0.00 0.00 999.4
20260505081057 0 180 1.0 3.0 0.00 0.00 0.00 999.3
20260505081047 0 90 1.0 3.0 0.00 0.00 0.00 999.3
20260505081017 0 90 0.0 3.0 0.00 0.00 0.00 999.3
20260505081007 0 135 0.0 3.0 0.00 0.00 0.00 999.3
20260505080957 0 45 0.0 3.0 0.00 0.00 0.00 999.4
20260505080927 0 225 0.0 3.0 0.00 0.00 0.00 999.4
20260505080917 0 225 0.0 3.0 0.00 0.00 0.00 999.3
20260505080857 0 180 0.0 3.0 0.00 0.00 0.00 999.3
20260505080847 0 180 0.0 3.0 0.00 0.00 0.00 999.4
20260505080837 0 180 1.0 3.0 0.00 0.00 0.00 999.4
20260505080827 0 270 1.0 3.0 0.00 0.00 0.00 999.4
20260505080817 0 135 1.0 3.0 0.00 0.00 0.00 999.3
20260505080807 0 180 1.0 3.0 0.00 0.00 0.00 999.3
20260505080757 0 180 1.0 3.0 0.00 0.00 0.00 999.4
20260505080747 0 180 2.0 3.0 0.00 0.00 0.00 999.3
20260505080717 0 158 2.0 3.0 0.00 0.00 0.00 999.3
20260505080707 0 158 2.0 3.0 0.00 0.00 0.00 999.4
20260505080657 0 180 1.0 3.0 0.00 0.00 0.00 999.3
20260505080647 0 135 1.0 3.0 0.00 0.00 0.00 999.3
20260505080637 0 135 1.0 3.0 0.00 0.00 0.00 999.2
20260505080628 0 90 1.0 3.0 0.00 0.00 0.00 999.3
20260505080618 0 135 1.0 3.0 0.00 0.00 0.00 999.4
20260505080608 0 68 1.0 3.0 0.00 0.00 0.00 999.3
20260505080548 0 90 1.0 3.0 0.00 0.00 0.00 999.3
20260505080528 0 90 0.0 3.0 0.00 0.00 0.00 999.3
20260505080518 0 135 0.0 3.0 0.00 0.00 0.00 999.3
20260505080458 0 135 0.0 3.0 0.00 0.00 0.00 999.4
20260505080448 79 135 0.0 3.0 0.00 0.00 0.00 42 999.4
20260505080438 0 113 0.0 4.0 0.00 0.00 0.00 999.3
20260505080428 0 90 0.0 4.0 0.00 0.00 0.00 999.3
20260505080358 0 90 1.0 5.0 0.00 0.00 0.00 999.3
20260505080338 0 90 2.0 5.0 0.00 0.00 0.00 999.3
20260505080308 0 90 1.0 5.0 0.00 0.00 0.00 999.3
20260505080258 0 90 1.0 5.0 0.00 0.00 0.00 999.2
20260505080248 0 45 1.0 5.0 0.00 0.00 0.00 999.3
20260505080218 0 90 2.0 5.0 0.00 0.00 0.00 999.3
20260505080148 0 90 1.0 5.0 0.00 0.00 0.00 999.3
20260505080128 0 45 0.0 5.0 0.00 0.00 0.00 999.3
20260505080118 0 90 0.0 5.0 0.00 0.00 0.00 999.3
20260505080058 0 135 1.0 7.0 0.00 0.00 0.00 999.3
20260505080049 0 90 1.0 7.0 0.00 0.00 0.00 999.3
20260505080029 0 135 2.0 7.0 0.00 0.00 0.00 999.3
20260505075959 0 135 2.0 7.0 0.00 0.00 0.00 999.4
20260505075949 0 135 2.0 7.0 0.00 0.00 0.00 999.3
20260505075929 0 90 2.0 7.0 0.00 0.00 0.00 999.3
20260505075909 0 135 2.0 7.0 0.00 0.00 0.00 999.3
20260505075829 0 135 2.0 7.0 0.00 0.00 0.00 999.4
20260505075819 0 90 3.0 7.0 0.00 0.00 0.00 999.4
20260505075809 0 90 2.0 7.0 0.00 0.00 0.00 999.3
20260505075749 0 113 2.0 7.0 0.00 0.00 0.00 999.4
20260505075729 0 90 2.0 7.0 0.00 0.00 0.00 999.4
20260505075719 0 135 2.0 7.0 0.00 0.00 0.00 999.4
20260505075709 0 135 3.0 7.0 0.00 0.00 0.00 999.4
20260505075659 0 90 4.0 7.0 0.00 0.00 0.00 999.3
20260505075639 0 135 4.0 7.0 0.00 0.00 0.00 999.4
20260505075619 0 90 4.0 7.0 0.00 0.00 0.00 999.4
20260505075559 0 135 4.0 7.0 0.00 0.00 0.00 999.4
20260505075550 0 135 3.0 5.0 0.00 0.00 0.00 999.4
20260505075520 0 135 2.0 5.0 0.00 0.00 0.00 999.4
20260505075510 0 180 1.0 4.0 0.00 0.00 0.00 999.5
20260505075500 0 135 1.0 3.0 0.00 0.00 0.00 999.4
20260505075450 0 203 1.0 3.0 0.00 0.00 0.00 999.4
20260505075440 0 158 1.0 3.0 0.00 0.00 0.00 999.4
20260505075420 0 90 0.0 3.0 0.00 0.00 0.00 999.4
20260505075410 0 113 0.0 3.0 0.00 0.00 0.00 999.4
20260505075400 0 135 0.0 3.0 0.00 0.00 0.00 999.5
20260505075350 0 180 0.0 3.0 0.00 0.00 0.00 999.4
20260505075340 0 90 0.0 3.0 0.00 0.00 0.00 999.4
20260505075320 0 135 0.0 3.0 0.00 0.00 0.00 999.4
20260505075310 0 90 0.0 4.0 0.00 0.00 0.00 999.4
20260505075240 0 135 0.0 4.0 0.00 0.00 0.00 999.5
20260505075220 0 135 0.0 4.0 0.00 0.00 0.00 999.4
20260505075210 0 180 0.0 4.0 0.00 0.00 0.00 999.5
20260505075150 0 180 1.0 4.0 0.00 0.00 0.00 999.4
20260505075140 0 180 1.0 4.0 0.00 0.00 0.00 999.5
20260505075130 0 180 2.0 4.0 0.00 0.00 0.00 999.5
20260505075120 0 158 2.0 4.0 0.00 0.00 0.00 999.5
20260505075110 0 180 2.0 4.0 0.00 0.00 0.00 999.4
20260505075050 0 180 2.0 4.0 0.00 0.00 0.00 999.5
20260505075041 0 180 1.0 4.0 0.00 0.00 0.00 999.4
20260505075031 0 180 1.0 4.0 0.00 0.00 0.00 999.5
20260505075011 0 180 0.0 4.0 0.00 0.00 0.00 999.5
20260505075001 0 135 0.0 4.0 0.00 0.00 0.00 999.5
20260505074951 0 90 1.0 4.0 0.00 0.00 0.00 999.5
20260505074941 0 135 1.0 4.0 0.00 0.00 0.00 999.5
20260505074911 0 135 2.0 4.0 0.00 0.00 0.00 999.5
20260505074841 0 135 2.0 4.0 0.00 0.00 0.00 999.4
20260505074831 0 158 2.0 4.0 0.00 0.00 0.00 999.5
20260505074821 0 135 2.0 4.0 0.00 0.00 0.00 999.5
20260505074801 0 135 1.0 3.0 0.00 0.00 0.00 999.4
20260505074751 0 158 1.0 3.0 0.00 0.00 0.00 999.5
20260505074742 0 180 1.0 3.0 0.00 0.00 0.00 999.5
20260505074731 0 135 1.0 3.0 0.00 0.00 0.00 999.5
20260505074721 0 90 2.0 3.0 0.00 0.00 0.00 999.5
20260505074651 0 113 1.0 3.0 0.00 0.00 0.00 999.5
20260505074641 0 90 1.0 3.0 0.00 0.00 0.00 999.5
20260505074621 0 135 0.0 3.0 0.00 0.00 0.00 999.5
20260505074611 0 45 0.0 3.0 0.00 0.00 0.00 999.5
20260505074542 0 135 1.0 3.0 0.00 0.00 0.00 999.5
20260505074522 0 180 1.0 3.0 0.00 0.00 0.00 999.5
20260505074502 0 135 1.0 3.0 0.00 0.00 0.00 999.5
20260505074422 0 135 1.0 3.0 0.00 0.00 0.00 999.5
20260505074412 0 90 1.0 3.0 0.00 0.00 0.00 999.5
20260505074332 0 135 1.0 3.0 0.00 0.00 0.00 999.5
20260505074252 0 135 1.0 3.0 0.00 0.00 0.00 999.5
20260505074242 0 135 1.0 4.0 0.00 0.00 0.00 999.5
20260505074232 0 135 1.0 5.0 0.00 0.00 0.00 999.5
20260505074222 0 90 1.0 5.0 0.00 0.00 0.00 999.5
20260505074202 0 90 0.0 5.0 0.00 0.00 0.00 999.5
20260505074142 0 135 0.0 5.0 0.00 0.00 0.00 999.5
20260505074123 0 225 0.0 5.0 0.00 0.00 0.00 999.5
20260505074113 0 180 0.0 5.0 0.00 0.00 0.00 999.5
20260505074103 0 90 0.0 5.0 0.00 0.00 0.00 999.5
20260505074053 0 0 0.0 5.0 0.00 0.00 0.00 999.5
20260505074023 0 90 0.0 5.0 0.00 0.00 0.00 999.5
20260505073943 0 90 1.0 5.0 0.00 0.00 0.00 999.5
20260505073903 0 90 1.0 5.0 0.00 0.00 0.00 999.5
20260505073833 0 90 2.0 6.0 0.00 0.00 0.00 999.5
20260505073823 0 135 2.0 6.0 0.00 0.00 0.00 999.5
20260505073813 0 90 2.0 6.0 0.00 0.00 0.00 999.4
20260505073743 0 90 2.0 6.0 0.00 0.00 0.00 999.5
20260505073733 0 113 1.0 6.0 0.00 0.00 0.00 999.5
20260505073723 0 90 1.0 6.0 0.00 0.00 0.00 999.5
20260505073713 0 90 1.0 6.0 0.00 0.00 0.00 999.6
20260505073653 0 135 0.0 6.0 0.00 0.00 0.00 999.5
20260505073643 0 158 1.0 6.0 0.00 0.00 0.00 999.5
20260505073634 0 90 1.0 6.0 0.00 0.00 0.00 999.5
20260505073624 0 90 2.0 6.0 0.00 0.00 0.00 999.5
20260505073614 0 113 2.0 6.0 0.00 0.00 0.00 999.6
20260505073554 0 68 2.0 6.0 0.00 0.00 0.00 999.6
20260505073544 0 135 2.0 6.0 0.00 0.00 0.00 999.6
20260505073534 0 113 2.0 6.0 0.00 0.00 0.00 999.5
20260505073524 0 135 2.0 6.0 0.00 0.00 0.00 999.5
20260505073454 0 135 2.0 6.0 0.00 0.00 0.00 999.6
20260505073444 0 135 3.0 6.0 0.00 0.00 0.00 999.6
20260505073404 0 135 3.0 6.0 0.00 0.00 0.00 999.6
20260505073354 0 113 3.0 5.0 0.00 0.00 0.00 999.6
20260505073344 0 90 3.0 5.0 0.00 0.00 0.00 999.6
20260505073334 0 135 2.0 5.0 0.00 0.00 0.00 999.6
20260505073324 0 113 2.0 5.0 0.00 0.00 0.00 999.6
20260505073244 0 135 2.0 5.0 0.00 0.00 0.00 999.6
20260505073234 0 90 2.0 5.0 0.00 0.00 0.00 999.6
20260505073204 0 135 2.0 5.0 0.00 0.00 0.00 999.6
20260505073154 0 90 2.0 5.0 0.00 0.00 0.00 999.6
20260505073115 0 90 2.0 5.0 0.00 0.00 0.00 999.6
20260505073105 0 135 2.0 5.0 0.00 0.00 0.00 999.6
20260505073055 0 90 2.0 2.0 0.00 0.00 0.00 999.6
20260505073045 0 90 1.0 2.0 0.00 0.00 0.00 999.6
20260505073035 0 90 1.0 2.0 0.00 0.00 0.00 999.7
20260505073025 0 90 0.0 2.0 0.00 0.00 0.00 999.6
20260505073015 0 135 0.0 2.0 0.00 0.00 0.00 999.6
20260505073005 0 180 0.0 2.0 0.00 0.00 0.00 999.7
20260505072945 0 90 0.0 2.0 0.00 0.00 0.00 999.6
20260505072935 0 135 0.0 2.0 0.00 0.00 0.00 999.6
20260505072925 0 315 0.0 2.0 0.00 0.00 0.00 999.6
20260505072915 0 45 0.0 2.0 0.00 0.00 0.00 999.7
20260505072855 0 45 0.0 2.0 0.00 0.00 0.00 999.6
20260505072845 0 90 0.0 3.0 0.00 0.00 0.00 999.6
20260505072825 0 135 0.0 3.0 0.00 0.00 0.00 999.6
20260505072815 0 180 0.0 3.0 0.00 0.00 0.00 999.6
20260505072805 0 158 0.0 3.0 0.00 0.00 0.00 999.6
20260505072745 0 90 0.0 3.0 0.00 0.00 0.00 999.6
20260505072725 0 135 0.0 3.0 0.00 0.00 0.00 999.6
20260505072705 0 90 0.0 3.0 0.00 0.00 0.00 999.6
20260505072645 0 113 0.0 3.0 0.00 0.00 0.00 999.6
20260505072626 0 135 0.0 3.0 0.00 0.00 0.00 999.6
20260505072606 0 135 0.0 3.0 0.00 0.00 0.00 999.5
20260505072556 0 68 0.0 3.0 0.00 0.00 0.00 999.6
20260505072526 0 90 1.0 3.0 0.00 0.00 0.00 999.6
20260505072516 0 45 1.0 3.0 0.00 0.00 0.00 999.5
20260505072456 0 45 1.0 3.0 0.00 0.00 0.00 999.6
20260505072436 0 45 1.0 3.0 0.00 0.00 0.00 999.5
20260505072426 0 90 1.0 3.0 0.00 0.00 0.00 999.5
20260505072416 0 90 2.0 3.0 0.00 0.00 0.00 999.5
20260505072346 0 45 2.0 3.0 0.00 0.00 0.00 999.5
20260505072336 0 90 1.0 2.0 0.00 0.00 0.00 999.5
20260505072326 0 68 1.0 2.0 0.00 0.00 0.00 999.5
20260505072316 0 45 1.0 2.0 0.00 0.00 0.00 999.5
20260505072256 0 90 1.0 2.0 0.00 0.00 0.00 999.5
20260505072246 0 90 1.0 3.0 0.00 0.00 0.00 999.6
20260505072236 0 90 0.0 3.0 0.00 0.00 0.00 999.5
20260505072206 0 135 0.0 3.0 0.00 0.00 0.00 999.6
20260505072146 0 113 0.0 3.0 0.00 0.00 0.00 999.6
20260505072127 0 90 0.0 3.0 0.00 0.00 0.00 999.6
20260505072047 0 135 1.0 3.0 0.00 0.00 0.00 999.6
20260505072017 0 135 2.0 3.0 0.00 0.00 0.00 999.6
20260505072007 0 158 2.0 3.0 0.00 0.00 0.00 999.7
20260505071957 0 180 2.0 3.0 0.00 0.00 0.00 999.6
20260505071947 0 135 1.0 3.0 0.00 0.00 0.00 999.6
20260505071927 0 135 0.0 3.0 0.00 0.00 0.00 999.7
20260505071917 0 158 0.0 3.0 0.00 0.00 0.00 999.6
20260505071907 0 180 0.0 3.0 0.00 0.00 0.00 999.6
20260505071857 0 180 0.0 3.0 0.00 0.00 0.00 999.7
20260505071847 0 45 0.0 3.0 0.00 0.00 0.00 999.6
20260505071827 0 180 1.0 3.0 0.00 0.00 0.00 999.7
20260505071747 0 180 1.0 3.0 0.00 0.00 0.00 999.7
20260505071717 0 135 0.0 3.0 0.00 0.00 0.00 999.7
20260505071707 0 180 0.0 3.0 0.00 0.00 0.00 999.7
20260505071657 0 135 1.0 3.0 0.00 0.00 0.00 999.7
20260505071627 0 135 2.0 3.0 0.00 0.00 0.00 999.7
20260505071617 0 135 1.0 3.0 0.00 0.00 0.00 999.7
20260505071548 0 180 1.0 3.0 0.00 0.00 0.00 999.7
20260505071538 0 158 1.0 2.0 0.00 0.00 0.00 999.7
20260505071518 0 135 0.0 3.0 0.00 0.00 0.00 999.8
20260505071508 0 135 0.0 3.0 0.00 0.00 0.00 999.7
20260505071458 0 135 0.0 3.0 0.00 0.00 0.00 999.6
20260505071428 0 135 0.0 3.0 0.00 0.00 0.00 999.7
20260505071418 0 180 0.0 3.0 0.00 0.00 0.00 999.8
20260505071358 0 180 0.0 3.0 0.00 0.00 0.00 999.7
20260505071348 0 158 0.0 3.0 0.00 0.00 0.00 999.8
20260505071338 0 180 0.0 3.0 0.00 0.00 0.00 999.8
20260505071328 0 180 1.0 3.0 0.00 0.00 0.00 999.8
20260505071248 0 180 1.0 4.0 0.00 0.00 0.00 999.8
20260505071218 0 180 0.0 4.0 0.00 0.00 0.00 999.7
20260505071208 0 180 0.0 4.0 0.00 0.00 0.00 999.8
20260505071158 0 203 0.0 4.0 0.00 0.00 0.00 999.7
20260505071148 0 135 0.0 4.0 0.00 0.00 0.00 999.8
20260505071138 0 180 0.0 4.0 0.00 0.00 0.00 999.7
20260505071128 0 180 1.0 4.0 0.00 0.00 0.00 999.7
20260505071118 0 225 1.0 4.0 0.00 0.00 0.00 999.7
20260505071109 0 225 1.0 4.0 0.00 0.00 0.00 999.8
20260505071049 0 225 2.0 4.0 0.00 0.00 0.00 999.8
20260505071029 0 270 1.0 4.0 0.00 0.00 0.00 999.8
20260505071009 0 225 1.0 4.0 0.00 0.00 0.00 999.8
20260505070959 0 225 0.0 4.0 0.00 0.00 0.00 999.8
20260505070929 0 225 1.0 4.0 0.00 0.00 0.00 999.8
20260505070919 0 248 2.0 4.0 0.00 0.00 0.00 999.8
20260505070909 0 180 2.0 4.0 0.00 0.00 0.00 999.8
20260505070839 0 225 2.0 4.0 0.00 0.00 0.00 999.8
20260505070829 0 248 2.0 4.0 0.00 0.00 0.00 999.8
20260505070819 0 225 1.0 4.0 0.00 0.00 0.00 999.8
20260505070809 0 225 1.0 4.0 0.00 0.00 0.00 999.7
20260505070749 0 225 2.0 4.0 0.00 0.00 0.00 999.7
20260505070729 0 225 2.0 4.0 0.00 0.00 0.00 999.8
20260505070659 0 270 2.0 4.0 0.00 0.00 0.00 999.8
20260505070619 0 270 2.0 4.0 0.00 0.00 0.00 999.8
20260505070609 0 248 2.0 4.0 0.00 0.00 0.00 999.8
20260505070600 0 225 2.0 4.0 0.00 0.00 0.00 999.8
20260505070540 0 225 1.0 4.0 0.00 0.00 0.00 999.8
20260505070530 0 270 0.0 4.0 0.00 0.00 0.00 999.8
20260505070520 0 248 0.0 2.0 0.00 0.00 0.00 999.8
20260505070440 0 180 0.0 2.0 0.00 0.00 0.00 999.8
20260505070400 0 135 0.0 2.0 0.00 0.00 0.00 999.8
20260505070350 0 225 1.0 2.0 0.00 0.00 0.00 999.8
20260505070340 0 270 1.0 2.0 0.00 0.00 0.00 999.8
20260505070320 0 225 0.0 2.0 0.00 0.00 0.00 999.8
20260505070300 0 270 0.0 2.0 0.00 0.00 0.00 999.8
20260505070240 0 225 0.0 3.0 0.00 0.00 0.00 999.8
20260505070200 0 315 0.0 3.0 0.00 0.00 0.00 999.8
20260505070140 0 270 0.0 3.0 0.00 0.00 0.00 999.8
20260505070130 0 0 0.0 3.0 0.00 0.00 0.00 999.8
20260505070050 0 0 0.0 3.0 0.00 0.00 0.00 999.8
20260505070041 0 270 0.0 3.0 0.00 0.00 0.00 999.8
20260505070021 0 315 0.0 3.0 0.00 0.00 0.00 999.8
20260505070011 0 0 0.0 3.0 0.00 0.00 0.00 999.8
20260505070001 0 270 0.0 3.0 0.00 0.00 0.00 999.8
20260505065951 0 270 0.0 4.0 0.00 0.00 0.00 999.8
20260505065941 0 270 0.0 5.0 0.00 0.00 0.00 999.8
20260505065931 0 315 0.0 5.0 0.00 0.00 0.00 999.8
20260505065921 0 0 1.0 5.0 0.00 0.00 0.00 999.8
20260505065911 0 0 1.0 5.0 0.00 0.00 0.00 999.7
20260505065901 0 315 1.0 5.0 0.00 0.00 0.00 999.8
20260505065851 0 315 2.0 5.0 0.00 0.00 0.00 999.8
20260505065801 0 270 2.0 5.0 0.00 0.00 0.00 999.8
20260505065741 0 270 1.0 5.0 0.00 0.00 0.00 999.7
20260505065721 0 270 0.0 5.0 0.00 0.00 0.00 999.8
20260505065711 0 225 0.0 5.0 0.00 0.00 0.00 999.8
20260505065701 0 225 1.0 5.0 0.00 0.00 0.00 999.8
20260505065641 0 315 1.0 5.0 0.00 0.00 0.00 999.8
20260505065611 0 315 2.0 5.0 0.00 0.00 0.00 999.8
20260505065532 0 270 2.0 5.0 0.00 0.00 0.00 999.8
20260505065452 0 270 3.0 5.0 0.00 0.00 0.00 999.8
20260505065412 0 270 3.0 5.0 0.00 0.00 0.00 999.8
20260505065352 0 270 2.0 5.0 0.00 0.00 0.00 999.8
20260505065332 0 270 2.0 4.0 0.00 0.00 0.00 999.8
20260505065303 0 270 1.0 4.0 0.00 0.00 0.00 999.8
20260505065252 0 225 2.0 4.0 0.00 0.00 0.00 999.8
20260505065212 0 225 2.0 4.0 0.00 0.00 0.00 999.8
20260505065202 0 270 2.0 4.0 0.00 0.00 0.00 999.8
20260505065142 0 270 1.0 4.0 0.00 0.00 0.00 999.8
20260505065132 0 270 0.0 4.0 0.00 0.00 0.00 999.8
20260505065102 0 225 0.0 4.0 0.00 0.00 0.00 999.8
20260505065052 0 270 1.0 4.0 0.00 0.00 0.00 999.8
20260505065033 0 270 1.0 5.0 0.00 0.00 0.00 999.8
20260505065003 0 270 2.0 5.0 0.00 0.00 0.00 999.8
20260505064953 0 270 1.0 5.0 0.00 0.00 0.00 999.8
20260505064943 0 315 1.0 5.0 0.00 0.00 0.00 999.8
20260505064923 0 270 2.0 5.0 0.00 0.00 0.00 999.8
20260505064843 0 270 2.0 5.0 0.00 0.00 0.00 999.8
20260505064813 0 270 1.0 5.0 0.00 0.00 0.00 999.8
20260505064803 0 270 2.0 5.0 0.00 0.00 0.00 999.8
20260505064753 0 0 2.0 5.0 0.00 0.00 0.00 999.8
20260505064733 0 315 2.0 5.0 0.00 0.00 0.00 999.8
20260505064713 0 0 2.0 5.0 0.00 0.00 0.00 999.8
20260505064653 0 315 2.0 5.0 0.00 0.00 0.00 999.8
20260505064623 0 315 3.0 5.0 0.00 0.00 0.00 999.8
20260505064603 0 270 3.0 5.0 0.00 0.00 0.00 999.8
20260505064553 0 293 3.0 5.0 0.00 0.00 0.00 999.8
20260505064534 0 315 3.0 5.0 0.00 0.00 0.00 999.8
20260505064504 0 270 3.0 5.0 0.00 0.00 0.00 999.8
20260505064434 0 270 2.0 5.0 0.00 0.00 0.00 999.8
20260505064354 0 270 2.0 5.0 0.00 0.00 0.00 999.8
20260505064314 0 270 2.0 5.0 0.00 0.00 0.00 999.8
20260505064254 0 270 3.0 5.0 0.00 0.00 0.00 999.8
20260505064244 0 270 3.0 5.0 0.00 0.00 0.00 999.9
20260505064214 0 270 3.0 5.0 0.00 0.00 0.00 999.8
20260505064144 0 270 2.0 5.0 0.00 0.00 0.00 999.8
20260505064104 0 270 2.0 5.0 0.00 0.00 0.00 999.8
20260505064054 0 315 2.0 5.0 0.00 0.00 0.00 999.8
20260505064034 0 315 3.0 5.0 0.00 0.00 0.00 999.8
20260505064014 0 315 2.0 5.0 0.00 0.00 0.00 999.8
20260505063955 0 315 3.0 5.0 0.00 0.00 0.00 999.8
20260505063935 0 315 3.0 5.0 0.00 0.00 0.00 999.9
20260505063905 0 270 3.0 5.0 0.00 0.00 0.00 999.8
20260505063835 0 270 3.0 5.0 0.00 0.00 0.00 999.9
20260505063825 0 270 3.0 5.0 0.00 0.00 0.00 999.8
20260505063815 0 248 2.0 5.0 0.00 0.00 0.00 999.8
20260505063805 0 225 2.0 5.0 0.00 0.00 0.00 999.8
20260505063735 0 270 2.0 5.0 0.00 0.00 0.00 999.9
20260505063725 0 270 2.0 5.0 0.00 0.00 0.00 999.8
20260505063715 0 248 2.0 5.0 0.00 0.00 0.00 999.8
20260505063645 0 270 2.0 5.0 0.00 0.00 0.00 999.8
20260505063625 0 270 2.0 5.0 0.00 0.00 0.00 999.9
20260505063615 0 270 3.0 5.0 0.00 0.00 0.00 999.8
20260505063545 0 270 3.0 5.0 0.00 0.00 0.00 999.9
20260505063505 0 270 3.0 5.0 0.00 0.00 0.00 999.9
20260505063446 0 270 4.0 5.0 0.00 0.00 0.00 999.9
20260505063436 0 225 4.0 5.0 0.00 0.00 0.00 999.9
20260505063426 0 248 3.0 5.0 0.00 0.00 0.00 999.9
20260505063416 0 270 3.0 5.0 0.00 0.00 0.00 999.9
20260505063356 0 225 3.0 5.0 0.00 0.00 0.00 999.9
20260505063336 0 270 2.0 6.0 0.00 0.00 0.00 999.9
20260505063326 0 270 3.0 6.0 0.00 0.00 0.00 999.9
20260505063316 0 225 3.0 6.0 0.00 0.00 0.00 999.9
20260505063306 0 248 3.0 6.0 0.00 0.00 0.00 999.9
20260505063246 0 225 4.0 6.0 0.00 0.00 0.00 1000.0
20260505063236 0 248 4.0 6.0 0.00 0.00 0.00 1000.0
20260505063226 0 270 4.0 6.0 0.00 0.00 0.00 999.9
20260505063216 0 270 4.0 6.0 0.00 0.00 0.00 1000.0
20260505063146 0 270 3.0 6.0 0.00 0.00 0.00 999.9
20260505063126 0 225 2.0 6.0 0.00 0.00 0.00 999.9
20260505063116 0 270 2.0 6.0 0.00 0.00 0.00 999.9
20260505063106 0 225 3.0 6.0 0.00 0.00 0.00 1000.0
20260505063056 0 225 3.0 6.0 0.00 0.00 0.00 999.9
20260505063036 0 270 3.0 6.0 0.00 0.00 0.00 999.9
20260505063026 0 225 3.0 6.0 0.00 0.00 0.00 1000.0
20260505063016 0 248 2.0 6.0 0.00 0.00 0.00 1000.0
20260505063006 0 225 2.0 6.0 0.00 0.00 0.00 999.9
20260505062957 0 270 2.0 6.0 0.00 0.00 0.00 999.9
20260505062927 0 270 3.0 6.0 0.00 0.00 0.00 1000.0
20260505062857 0 225 4.0 6.0 0.00 0.00 0.00 1000.0
20260505062847 0 270 4.0 6.0 0.00 0.00 0.00 1000.0
20260505062837 0 225 3.0 6.0 0.00 0.00 0.00 1000.0
20260505062757 0 225 3.0 6.0 0.00 0.00 0.00 1000.0
20260505062717 0 270 3.0 6.0 0.00 0.00 0.00 1000.0
20260505062657 0 270 4.0 6.0 0.00 0.00 0.00 1000.0
20260505062627 0 270 3.0 5.0 0.00 0.00 0.00 1000.0
20260505062547 0 270 3.0 5.0 0.00 0.00 0.00 1000.0
20260505062517 0 270 3.0 5.0 0.00 0.00 0.00 1000.1
20260505062508 0 270 3.0 5.0 0.00 0.00 0.00 1000.0
20260505062448 0 270 2.0 5.0 0.00 0.00 0.00 1000.1
20260505062428 0 270 2.0 5.0 0.00 0.00 0.00 1000.0
20260505062418 0 225 2.0 5.0 0.00 0.00 0.00 1000.1
20260505062408 0 225 3.0 5.0 0.00 0.00 0.00 1000.0
20260505062348 0 270 3.0 5.0 0.00 0.00 0.00 1000.0
20260505062318 0 225 3.0 5.0 0.00 0.00 0.00 1000.1
20260505062308 0 270 3.0 5.0 0.00 0.00 0.00 1000.1
20260505062228 0 270 3.0 5.0 0.00 0.00 0.00 1000.1
20260505062218 0 225 3.0 5.0 0.00 0.00 0.00 1000.0
20260505062138 0 270 3.0 5.0 0.00 0.00 0.00 1000.1
20260505062058 0 270 3.0 5.0 0.00 0.00 0.00 1000.1
20260505062038 0 270 4.0 5.0 0.00 0.00 0.00 1000.1
20260505062008 0 225 4.0 5.0 0.00 0.00 0.00 1000.1
20260505061958 0 270 4.0 5.0 0.00 0.00 0.00 1000.1
20260505061948 0 270 3.0 5.0 0.00 0.00 0.00 1000.1
20260505061939 0 270 2.0 5.0 0.00 0.00 0.00 1000.1
20260505061859 0 270 2.0 5.0 0.00 0.00 0.00 1000.1
20260505061849 0 225 2.0 5.0 0.00 0.00 0.00 1000.1
20260505061829 0 270 2.0 5.0 0.00 0.00 0.00 1000.0
20260505061819 0 270 2.0 5.0 0.00 0.00 0.00 1000.1
20260505061809 0 270 3.0 5.0 0.00 0.00 0.00 1000.1
20260505061759 0 225 3.0 5.0 0.00 0.00 0.00 1000.1
20260505061729 0 270 3.0 5.0 0.00 0.00 0.00 1000.1
20260505061719 0 225 3.0 5.0 0.00 0.00 0.00 1000.1
20260505061709 0 225 2.0 5.0 0.00 0.00 0.00 1000.1
20260505061639 0 270 2.0 5.0 0.00 0.00 0.00 1000.1
20260505061609 0 248 2.0 5.0 0.00 0.00 0.00 1000.1
20260505061559 0 225 2.0 5.0 0.00 0.00 0.00 1000.1
20260505061549 0 225 3.0 5.0 0.00 0.00 0.00 1000.1
20260505061539 0 270 3.0 5.0 0.00 0.00 0.00 1000.1
20260505061459 0 270 3.0 5.0 0.00 0.00 0.00 1000.1
20260505061439 0 225 3.0 5.0 0.00 0.00 0.00 1000.1
20260505061400 0 270 3.0 5.0 0.00 0.00 0.00 1000.1
20260505061320 0 270 3.0 5.0 0.00 0.00 0.00 1000.1
20260505061240 0 270 3.0 5.0 0.00 0.00 0.00 1000.1
20260505061210 0 270 4.0 5.0 0.00 0.00 0.00 1000.2
20260505061200 0 270 4.0 5.0 0.00 0.00 0.00 1000.1
20260505061130 0 270 3.0 5.0 0.00 0.00 0.00 1000.1
20260505061120 0 225 3.0 5.0 0.00 0.00 0.00 1000.1
20260505061050 0 270 2.0 5.0 0.00 0.00 0.00 1000.1
20260505061040 0 270 3.0 5.0 0.00 0.00 0.00 1000.1
20260505061000 0 270 3.0 5.0 0.00 0.00 0.00 1000.1
20260505060950 0 270 3.0 5.0 0.00 0.00 0.00 1000.2
20260505060920 0 270 3.0 5.0 0.00 0.00 0.00 1000.1
20260505060901 0 270 2.0 5.0 0.00 0.00 0.00 1000.1
20260505060821 0 270 2.0 5.0 0.00 0.00 0.00 1000.1
20260505060811 0 270 3.0 5.0 0.00 0.00 0.00 1000.1
20260505060731 0 270 3.0 5.0 0.00 0.00 0.00 1000.1
20260505060651 0 270 3.0 5.0 0.00 0.00 0.00 1000.1
20260505060611 0 270 3.0 5.0 0.00 0.00 0.00 1000.1
20260505060531 0 270 3.0 5.0 0.00 0.00 0.00 1000.1
20260505060451 0 270 3.0 5.0 0.00 0.00 0.00 1000.1
20260505060441 0 270 3.0 5.0 0.00 0.00 0.00 1000.2
20260505060401 0 270 4.0 5.0 0.00 0.00 0.00 1000.2
20260505060352 0 270 4.0 5.0 0.00 0.00 0.00 1000.1
20260505060312 0 270 4.0 5.0 0.00 0.00 0.00 1000.1
20260505060252 0 270 3.0 5.0 0.00 0.00 0.00 1000.1
20260505060242 0 270 4.0 5.0 0.00 0.00 0.00 1000.2
20260505060202 0 270 4.0 5.0 0.00 0.00 0.00 1000.2
20260505060132 0 270 4.0 5.0 0.00 0.00 0.00 1000.1
20260505060112 0 270 4.0 5.0 0.00 0.00 0.00 1000.2
20260505060052 0 270 4.0 5.0 0.00 0.00 0.00 1000.1
20260505060022 0 270 4.0 5.0 0.00 0.00 0.00 1000.2
20260505055942 0 270 4.0 5.0 0.00 0.00 0.00 1000.2
20260505055912 0 270 3.0 5.0 0.00 0.00 0.00 1000.2
20260505055902 0 270 4.0 5.0 0.00 0.00 0.00 1000.2
20260505055822 0 270 4.0 5.0 0.00 0.00 0.00 1000.2
20260505055813 0 270 4.0 5.0 0.00 0.00 0.00 1000.1
20260505055803 0 270 3.0 5.0 0.00 0.00 0.00 1000.2
20260505055753 0 270 3.0 5.0 0.00 0.00 0.00 1000.1
20260505055743 0 270 3.0 6.0 0.00 0.00 0.00 1000.1
20260505055713 0 270 4.0 6.0 0.00 0.00 0.00 1000.1
20260505055703 0 270 4.0 6.0 0.00 0.00 0.00 1000.2
20260505055623 0 270 4.0 6.0 0.00 0.00 0.00 1000.2
20260505055613 0 270 4.0 6.0 0.00 0.00 0.00 1000.1
20260505055543 0 270 4.0 6.0 0.00 0.00 0.00 1000.2
20260505055523 0 270 3.0 6.0 0.00 0.00 0.00 1000.2
20260505055503 0 270 4.0 6.0 0.00 0.00 0.00 1000.1
20260505055453 0 315 3.0 6.0 0.00 0.00 0.00 1000.1
20260505055443 0 270 3.0 6.0 0.00 0.00 0.00 1000.2
20260505055403 0 270 4.0 6.0 0.00 0.00 0.00 1000.1
20260505055353 0 270 4.0 6.0 0.00 0.00 0.00 1000.2
20260505055313 0 270 4.0 6.0 0.00 0.00 0.00 1000.1
20260505055253 0 270 4.0 6.0 0.00 0.00 0.00 1000.2
20260505055244 0 270 4.0 5.0 0.00 0.00 0.00 1000.1
20260505055234 0 270 4.0 5.0 0.00 0.00 0.00 1000.2
20260505055204 0 270 4.0 5.0 0.00 0.00 0.00 1000.1
20260505055154 0 270 3.0 6.0 0.00 0.00 0.00 1000.2
20260505055144 0 270 3.0 6.0 0.00 0.00 0.00 1000.1
20260505055124 0 270 4.0 6.0 0.00 0.00 0.00 1000.2
20260505055114 0 270 4.0 6.0 0.00 0.00 0.00 1000.1
20260505055044 0 315 4.0 6.0 0.00 0.00 0.00 1000.1
20260505055034 0 270 4.0 6.0 0.00 0.00 0.00 1000.1
20260505054954 0 270 4.0 6.0 0.00 0.00 0.00 1000.2
20260505054944 0 270 4.0 6.0 0.00 0.00 0.00 1000.1
20260505054904 0 270 4.0 6.0 0.00 0.00 0.00 1000.1
20260505054824 0 270 4.0 6.0 0.00 0.00 0.00 1000.1
20260505054744 0 270 4.0 6.0 0.00 0.00 0.00 1000.1
20260505054705 0 270 4.0 6.0 0.00 0.00 0.00 1000.1
20260505054654 0 270 4.0 5.0 0.00 0.00 0.00 1000.1
20260505054615 0 270 4.0 5.0 0.00 0.00 0.00 1000.1
20260505054545 0 270 4.0 5.0 0.00 0.00 0.00 1000.2
20260505054535 0 270 4.0 5.0 0.00 0.00 0.00 1000.1
20260505054455 0 270 4.0 5.0 0.00 0.00 0.00 1000.1
20260505054415 0 270 3.0 5.0 0.00 0.00 0.00 1000.1
20260505054335 0 270 4.0 5.0 0.00 0.00 0.00 1000.1
20260505054255 0 270 4.0 5.0 0.00 0.00 0.00 1000.1
20260505054215 0 270 4.0 5.0 0.00 0.00 0.00 1000.1
20260505054155 0 270 3.0 5.0 0.00 0.00 0.00 1000.1
20260505054125 0 270 4.0 5.0 0.00 0.00 0.00 1000.1
20260505054106 0 270 3.0 5.0 0.00 0.00 0.00 1000.1
20260505054026 0 270 3.0 5.0 0.00 0.00 0.00 1000.1
20260505053946 0 270 3.0 5.0 0.00 0.00 0.00 1000.1
20260505053906 0 270 4.0 5.0 0.00 0.00 0.00 1000.1
20260505053826 0 270 4.0 5.0 0.00 0.00 0.00 1000.1
20260505053816 0 270 4.0 5.0 0.00 0.00 0.00 1000.0
20260505053746 0 270 3.0 5.0 0.00 0.00 0.00 1000.1
20260505053726 0 270 3.0 5.0 0.00 0.00 0.00 1000.0
20260505053646 0 270 3.0 5.0 0.00 0.00 0.00 1000.1
20260505053606 0 270 3.0 5.0 0.00 0.00 0.00 1000.1
20260505053527 0 270 4.0 5.0 0.00 0.00 0.00 1000.1
20260505053447 0 270 4.0 5.0 0.00 0.00 0.00 1000.1
20260505053407 0 270 3.0 5.0 0.00 0.00 0.00 1000.1
20260505053337 0 270 3.0 5.0 0.00 0.00 0.00 1000.0
20260505053327 0 270 3.0 5.0 0.00 0.00 0.00 1000.1
20260505053247 0 270 3.0 5.0 0.00 0.00 0.00 1000.1
20260505053207 0 270 3.0 5.0 0.00 0.00 0.00 1000.1
20260505053127 0 270 2.0 4.0 0.00 0.00 0.00 1000.1
20260505053117 0 225 2.0 4.0 0.00 0.00 0.00 1000.1
20260505053107 0 248 2.0 4.0 0.00 0.00 0.00 1000.1
20260505053037 0 270 2.0 4.0 0.00 0.00 0.00 1000.1
20260505053028 0 225 2.0 4.0 0.00 0.00 0.00 1000.1
20260505052948 0 270 2.0 4.0 0.00 0.00 0.00 1000.1
20260505052908 0 270 2.0 4.0 0.00 0.00 0.00 1000.1
20260505052858 0 270 2.0 4.0 0.00 0.00 0.00 1000.0
20260505052848 0 225 2.0 4.0 0.00 0.00 0.00 1000.0
20260505052828 0 270 2.0 4.0 0.00 0.00 0.00 1000.1
20260505052818 0 270 3.0 4.0 0.00 0.00 0.00 1000.0
20260505052748 0 270 3.0 4.0 0.00 0.00 0.00 1000.1
20260505052738 0 270 3.0 4.0 0.00 0.00 0.00 1000.0
20260505052708 0 270 3.0 4.0 0.00 0.00 0.00 1000.1
20260505052658 0 0 3.0 4.0 0.00 0.00 0.00 1000.1
20260505052648 0 270 2.0 4.0 0.00 0.00 0.00 1000.0
20260505052608 0 270 2.0 4.0 0.00 0.00 0.00 1000.0
20260505052548 0 270 2.0 4.0 0.00 0.00 0.00 1000.1
20260505052508 0 270 2.0 4.0 0.00 0.00 0.00 1000.0
20260505052429 0 270 2.0 4.0 0.00 0.00 0.00 1000.0
20260505052349 0 270 2.0 4.0 0.00 0.00 0.00 1000.0
20260505052319 0 293 2.0 4.0 0.00 0.00 0.00 1000.0
20260505052309 0 270 2.0 4.0 0.00 0.00 0.00 1000.0
20260505052159 0 270 2.0 4.0 0.00 0.00 0.00 1000.0
20260505052129 0 270 2.0 4.0 0.00 0.00 0.00 1000.1
20260505052119 0 270 2.0 4.0 0.00 0.00 0.00 1000.0
20260505052039 0 270 2.0 4.0 0.00 0.00 0.00 1000.0
20260505051959 0 270 2.0 4.0 0.00 0.00 0.00 1000.0
20260505051920 0 270 2.0 4.0 0.00 0.00 0.00 1000.0
20260505051900 0 270 2.0 4.0 0.00 0.00 0.00 1000.1
20260505051840 0 270 2.0 4.0 0.00 0.00 0.00 1000.0
20260505051810 0 270 2.0 3.0 0.00 0.00 0.00 1000.1
20260505051800 0 270 2.0 3.0 0.00 0.00 0.00 1000.0
20260505051730 0 270 2.0 3.0 0.00 0.00 0.00 1000.1
20260505051720 0 270 2.0 3.0 0.00 0.00 0.00 1000.0
20260505051650 0 270 2.0 2.0 0.00 0.00 0.00 1000.0
20260505051620 0 270 2.0 2.0 0.00 0.00 0.00 1000.1
20260505051600 0 270 2.0 2.0 0.00 0.00 0.00 1000.0
20260505051520 0 270 2.0 2.0 0.00 0.00 0.00 1000.1
20260505051440 0 270 2.0 2.0 0.00 0.00 0.00 1000.1
20260505051430 0 270 2.0 2.0 0.00 0.00 0.00 1000.0
20260505051400 0 270 2.0 2.0 0.00 0.00 0.00 1000.1
20260505051350 0 270 2.0 2.0 0.00 0.00 0.00 1000.0
20260505051321 0 270 2.0 2.0 0.00 0.00 0.00 1000.1
20260505051301 0 270 2.0 3.0 0.00 0.00 0.00 1000.1
20260505051251 0 315 2.0 3.0 0.00 0.00 0.00 1000.1
20260505051241 0 270 2.0 3.0 0.00 0.00 0.00 1000.0
20260505051221 0 270 1.0 3.0 0.00 0.00 0.00 1000.1
20260505051211 0 270 2.0 3.0 0.00 0.00 0.00 1000.1
20260505051131 0 270 2.0 3.0 0.00 0.00 0.00 1000.1
20260505051051 0 270 2.0 3.0 0.00 0.00 0.00 1000.1
20260505051041 0 293 2.0 3.0 0.00 0.00 0.00 1000.1
20260505051031 0 293 2.0 3.0 0.00 0.00 0.00 1000.0
20260505051021 0 315 2.0 3.0 0.00 0.00 0.00 1000.1
20260505051001 0 293 2.0 3.0 0.00 0.00 0.00 1000.1
20260505050941 0 270 2.0 3.0 0.00 0.00 0.00 1000.1
20260505050931 0 270 2.0 3.0 0.00 0.00 0.00 1000.0
20260505050901 0 270 2.0 3.0 0.00 0.00 0.00 1000.1
20260505050851 0 270 2.0 3.0 0.00 0.00 0.00 1000.0
20260505050821 0 270 2.0 3.0 0.00 0.00 0.00 1000.1
20260505050811 0 270 1.0 2.0 0.00 0.00 0.00 1000.1
20260505050752 0 270 1.0 3.0 0.00 0.00 0.00 1000.1
20260505050732 0 315 1.0 3.0 0.00 0.00 0.00 1000.1
20260505050712 0 270 1.0 3.0 0.00 0.00 0.00 1000.1
20260505050702 0 270 1.0 3.0 0.00 0.00 0.00 1000.0
20260505050652 0 0 2.0 3.0 0.00 0.00 0.00 1000.0
20260505050642 0 315 2.0 3.0 0.00 0.00 0.00 1000.1
20260505050632 0 315 2.0 3.0 0.00 0.00 0.00 1000.0
20260505050622 0 270 2.0 3.0 0.00 0.00 0.00 1000.1
20260505050552 0 270 2.0 3.0 0.00 0.00 0.00 1000.0
20260505050542 0 315 2.0 3.0 0.00 0.00 0.00 1000.1
20260505050532 0 315 2.0 3.0 0.00 0.00 0.00 1000.0
20260505050522 0 270 2.0 3.0 0.00 0.00 0.00 1000.1
20260505050512 0 270 2.0 3.0 0.00 0.00 0.00 1000.0
20260505050502 0 315 2.0 3.0 0.00 0.00 0.00 1000.1
20260505050442 0 315 2.0 3.0 0.00 0.00 0.00 1000.0
20260505050432 0 270 2.0 3.0 0.00 0.00 0.00 1000.0
20260505050422 0 270 2.0 3.0 0.00 0.00 0.00 1000.1
20260505050412 0 315 2.0 3.0 0.00 0.00 0.00 1000.1
20260505050332 0 315 2.0 3.0 0.00 0.00 0.00 1000.0
20260505050312 0 315 2.0 3.0 0.00 0.00 0.00 1000.1
20260505050252 0 315 2.0 3.0 0.00 0.00 0.00 1000.0
20260505050212 0 315 2.0 3.0 0.00 0.00 0.00 1000.0
20260505050202 0 315 2.0 3.0 0.00 0.00 0.00 1000.1
20260505050123 0 315 2.0 3.0 0.00 0.00 0.00 1000.0
20260505041740 0 180 0.0 2.0 0.00 0.00 0.00 1000.0
20260505041700 0 180 0.0 3.0 0.00 0.00 0.00 1000.0
20260505041650 0 158 0.0 3.0 0.00 0.00 0.00 1000.0
20260505041640 0 225 0.0 3.0 0.00 0.00 0.00 999.9
20260505041630 0 225 0.0 4.0 0.00 0.00 0.00 999.9
20260505041610 0 180 0.0 4.0 0.00 0.00 0.00 999.9
20260505041550 0 180 0.0 4.0 0.00 0.00 0.00 1000.0
20260505041540 0 225 0.0 4.0 0.00 0.00 0.00 999.9
20260505041531 0 225 0.0 4.0 0.00 0.00 0.00 1000.0
20260505041521 0 180 1.0 4.0 0.00 0.00 0.00 1000.0
20260505041501 0 225 1.0 4.0 0.00 0.00 0.00 1000.0
20260505041451 0 180 1.0 4.0 0.00 0.00 0.00 999.9
20260505041431 0 180 0.0 4.0 0.00 0.00 0.00 1000.0
20260505041421 0 180 0.0 4.0 0.00 0.00 0.00 999.9
20260505041401 0 225 0.0 4.0 0.00 0.00 0.00 1000.0
20260505041351 0 225 0.0 4.0 0.00 0.00 0.00 999.9
20260505041331 0 225 1.0 4.0 0.00 0.00 0.00 999.9
20260505041311 0 225 2.0 4.0 0.00 0.00 0.00 1000.0
20260505041301 0 0 2.0 4.0 0.00 0.00 0.00 1000.0
20260505041251 0 225 2.0 4.0 0.00 0.00 0.00 999.9
20260505041231 0 225 2.0 4.0 0.00 0.00 0.00 1000.0
20260505041151 0 225 2.0 4.0 0.00 0.00 0.00 1000.0
20260505041141 0 225 2.0 4.0 0.00 0.00 0.00 999.9
20260505041101 0 225 2.0 4.0 0.00 0.00 0.00 1000.0
20260505041021 0 225 2.0 4.0 0.00 0.00 0.00 1000.0
20260505040951 0 225 2.0 3.0 0.00 0.00 0.00 1000.0
20260505040912 0 225 2.0 3.0 0.00 0.00 0.00 1000.0
20260505040832 0 225 2.0 3.0 0.00 0.00 0.00 1000.0
20260505040822 0 225 2.0 3.0 0.00 0.00 0.00 999.9
20260505040752 0 225 2.0 3.0 0.00 0.00 0.00 1000.0
20260505040742 0 225 2.0 3.0 0.00 0.00 0.00 999.9
20260505040722 0 225 2.0 2.0 0.00 0.00 0.00 1000.0
20260505040712 0 225 2.0 2.0 0.00 0.00 0.00 999.9
20260505040643 0 225 2.0 2.0 0.00 0.00 0.00 1000.0
20260505040632 0 225 1.0 2.0 0.00 0.00 0.00 1000.0
20260505040612 0 225 1.0 2.0 0.00 0.00 0.00 999.9
20260505040602 0 225 0.0 2.0 0.00 0.00 0.00 1000.0
20260505040542 0 225 0.0 2.0 0.00 0.00 0.00 999.9
20260505040522 0 225 0.0 2.0 0.00 0.00 0.00 1000.0
20260505040502 0 225 0.0 2.0 0.00 0.00 0.00 999.9
20260505040423 0 225 0.0 2.0 0.00 0.00 0.00 1000.0
20260505040403 0 225 1.0 2.0 0.00 0.00 0.00 1000.0
20260505040323 0 225 1.0 2.0 0.00 0.00 0.00 1000.0
20260505040303 0 225 0.0 2.0 0.00 0.00 0.00 999.9
20260505040243 0 225 0.0 2.0 0.00 0.00 0.00 1000.0
20260505040233 0 225 1.0 2.0 0.00 0.00 0.00 1000.0
20260505040153 0 225 1.0 2.0 0.00 0.00 0.00 1000.0
20260505040133 0 225 1.0 2.0 0.00 0.00 0.00 999.9
20260505040113 0 225 1.0 2.0 0.00 0.00 0.00 1000.0
20260505040033 0 225 1.0 2.0 0.00 0.00 0.00 999.9
20260505040023 0 225 1.0 2.0 0.00 0.00 0.00 1000.0
20260505035953 0 225 1.0 2.0 0.00 0.00 0.00 999.9
20260505035943 0 225 1.0 2.0 0.00 0.00 0.00 1000.0
20260505035923 0 225 0.0 2.0 0.00 0.00 0.00 1000.0
20260505035903 0 225 0.0 2.0 0.00 0.00 0.00 999.9
20260505035843 0 225 0.0 2.0 0.00 0.00 0.00 1000.0
20260505035833 0 203 0.0 2.0 0.00 0.00 0.00 999.9
20260505035824 0 180 0.0 2.0 0.00 0.00 0.00 1000.0
20260505035804 0 180 0.0 2.0 0.00 0.00 0.00 999.9
20260505035744 0 180 0.0 2.0 0.00 0.00 0.00 1000.0
20260505035734 0 203 1.0 2.0 0.00 0.00 0.00 999.9
20260505035714 0 203 1.0 2.0 0.00 0.00 0.00 1000.0
20260505035654 0 180 1.0 2.0 0.00 0.00 0.00 1000.0
20260505035644 0 203 1.0 2.0 0.00 0.00 0.00 999.9
20260505035634 0 203 1.0 2.0 0.00 0.00 0.00 1000.0
20260505035624 0 225 1.0 2.0 0.00 0.00 0.00 1000.0
20260505035554 0 203 1.0 2.0 0.00 0.00 0.00 1000.0
20260505035534 0 180 1.0 2.0 0.00 0.00 0.00 1000.0
20260505035514 0 225 1.0 2.0 0.00 0.00 0.00 1000.0
20260505035454 0 180 0.0 2.0 0.00 0.00 0.00 1000.0
20260505035434 0 225 0.0 2.0 0.00 0.00 0.00 1000.0
20260505035414 0 225 0.0 3.0 0.00 0.00 0.00 1000.0
20260505035334 0 225 0.0 4.0 0.00 0.00 0.00 1000.0
20260505035255 0 225 0.0 4.0 0.00 0.00 0.00 1000.0
20260505035235 0 225 0.0 4.0 0.00 0.00 0.00 1000.1
20260505035215 0 225 0.0 4.0 0.00 0.00 0.00 1000.0
20260505035145 0 225 0.0 4.0 0.00 0.00 0.00 1000.1
20260505035125 0 225 0.0 4.0 0.00 0.00 0.00 1000.0
20260505035055 0 225 1.0 4.0 0.00 0.00 0.00 1000.0
20260505035045 0 225 2.0 4.0 0.00 0.00 0.00 1000.1
20260505035035 0 225 2.0 4.0 0.00 0.00 0.00 1000.0
20260505035005 0 225 2.0 5.0 0.00 0.00 0.00 1000.0
20260505034925 0 225 2.0 5.0 0.00 0.00 0.00 1000.0
20260505034845 0 225 2.0 5.0 0.00 0.00 0.00 1000.0
20260505034805 0 225 2.0 5.0 0.00 0.00 0.00 1000.0
20260505034755 0 248 2.0 5.0 0.00 0.00 0.00 1000.0
20260505034715 0 225 2.0 5.0 0.00 0.00 0.00 1000.0
20260505034636 0 225 2.0 5.0 0.00 0.00 0.00 1000.0
20260505034626 0 225 3.0 5.0 0.00 0.00 0.00 1000.0
20260505034546 0 225 3.0 5.0 0.00 0.00 0.00 1000.0
20260505034536 0 270 2.0 5.0 0.00 0.00 0.00 1000.0
20260505034526 0 225 2.0 4.0 0.00 0.00 0.00 1000.0
20260505034446 0 225 2.0 4.0 0.00 0.00 0.00 1000.0
20260505034406 0 225 1.0 4.0 0.00 0.00 0.00 1000.1
20260505034356 0 225 1.0 4.0 0.00 0.00 0.00 1000.0
20260505034316 0 225 2.0 4.0 0.00 0.00 0.00 1000.1
20260505034306 0 225 2.0 4.0 0.00 0.00 0.00 1000.0
20260505034236 0 225 2.0 4.0 0.00 0.00 0.00 1000.1
20260505034226 0 225 2.0 5.0 0.00 0.00 0.00 1000.1
20260505034216 0 225 2.0 5.0 0.00 0.00 0.00 1000.0
20260505034136 0 225 2.0 5.0 0.00 0.00 0.00 1000.1
20260505034056 0 225 2.0 5.0 0.00 0.00 0.00 1000.1
20260505034017 0 225 2.0 5.0 0.00 0.00 0.00 1000.1
20260505033937 0 225 2.0 5.0 0.00 0.00 0.00 1000.1
20260505033927 0 225 2.0 5.0 0.00 0.00 0.00 1000.0
20260505033847 0 225 2.0 5.0 0.00 0.00 0.00 1000.1
20260505033837 0 225 2.0 5.0 0.00 0.00 0.00 1000.0
20260505033817 0 225 3.0 5.0 0.00 0.00 0.00 1000.1
20260505033747 0 225 3.0 5.0 0.00 0.00 0.00 1000.0
20260505033727 0 225 3.0 5.0 0.00 0.00 0.00 1000.1
20260505033647 0 225 3.0 5.0 0.00 0.00 0.00 1000.1
20260505033607 0 225 3.0 5.0 0.00 0.00 0.00 1000.1
20260505033557 0 225 3.0 4.0 0.00 0.00 0.00 1000.1
20260505033517 0 225 3.0 4.0 0.00 0.00 0.00 1000.1
20260505033447 0 225 3.0 4.0 0.00 0.00 0.00 1000.0
20260505033437 0 225 3.0 4.0 0.00 0.00 0.00 1000.1
20260505033418 0 225 2.0 4.0 0.00 0.00 0.00 1000.1
20260505033408 0 225 2.0 5.0 0.00 0.00 0.00 1000.0
20260505033328 0 225 2.0 5.0 0.00 0.00 0.00 1000.0
20260505033248 0 225 2.0 5.0 0.00 0.00 0.00 1000.0
20260505033238 0 225 2.0 5.0 0.00 0.00 0.00 1000.1
20260505033158 0 225 2.0 5.0 0.00 0.00 0.00 1000.1
20260505033148 0 225 2.0 5.0 0.00 0.00 0.00 1000.0
20260505033118 0 225 1.0 5.0 0.00 0.00 0.00 1000.1
20260505033048 0 225 0.0 5.0 0.00 0.00 0.00 1000.1
20260505033038 0 225 0.0 5.0 0.00 0.00 0.00 1000.0
20260505033028 0 225 1.0 5.0 0.00 0.00 0.00 1000.1
20260505033018 0 225 1.0 5.0 0.00 0.00 0.00 1000.0
20260505032938 0 225 2.0 5.0 0.00 0.00 0.00 1000.1
20260505032928 0 225 3.0 5.0 0.00 0.00 0.00 1000.1
20260505032908 0 225 3.0 4.0 0.00 0.00 0.00 1000.1
20260505032848 0 225 3.0 5.0 0.00 0.00 0.00 1000.1
20260505032818 0 225 2.0 5.0 0.00 0.00 0.00 1000.1
20260505032758 0 225 1.0 5.0 0.00 0.00 0.00 1000.1
20260505032719 0 225 0.0 5.0 0.00 0.00 0.00 1000.1
20260505032649 0 225 0.0 5.0 0.00 0.00 0.00 1000.0
20260505032639 0 225 0.0 5.0 0.00 0.00 0.00 1000.1
20260505032619 0 225 1.0 5.0 0.00 0.00 0.00 1000.0
20260505032559 0 225 1.0 5.0 0.00 0.00 0.00 1000.1
20260505032539 0 225 1.0 5.0 0.00 0.00 0.00 1000.0
20260505032519 0 225 1.0 5.0 0.00 0.00 0.00 1000.1
20260505032509 0 225 2.0 5.0 0.00 0.00 0.00 1000.1
20260505032429 0 225 2.0 5.0 0.00 0.00 0.00 1000.1
20260505032419 0 270 2.0 5.0 0.00 0.00 0.00 1000.0
20260505032349 0 225 2.0 5.0 0.00 0.00 0.00 1000.1
20260505032339 0 248 3.0 5.0 0.00 0.00 0.00 1000.1
20260505032329 0 225 3.0 5.0 0.00 0.00 0.00 1000.0
20260505032259 0 315 3.0 5.0 0.00 0.00 0.00 1000.1
20260505032249 0 270 3.0 5.0 0.00 0.00 0.00 1000.0
20260505032239 0 270 2.0 5.0 0.00 0.00 0.00 1000.0
20260505032220 0 270 2.0 5.0 0.00 0.00 0.00 1000.1
20260505032209 0 315 2.0 5.0 0.00 0.00 0.00 1000.1
20260505032159 0 270 3.0 5.0 0.00 0.00 0.00 1000.0
20260505032129 0 248 3.0 5.0 0.00 0.00 0.00 1000.1
20260505032120 0 270 3.0 5.0 0.00 0.00 0.00 1000.1
20260505032110 0 270 3.0 5.0 0.00 0.00 0.00 1000.0
20260505032030 0 270 3.0 4.0 0.00 0.00 0.00 1000.0
20260505032010 0 270 2.0 4.0 0.00 0.00 0.00 1000.1
20260505031950 0 270 2.0 4.0 0.00 0.00 0.00 1000.0
20260505031930 0 270 2.0 4.0 0.00 0.00 0.00 1000.1
20260505031910 0 270 2.0 4.0 0.00 0.00 0.00 1000.0
20260505031830 0 270 2.0 4.0 0.00 0.00 0.00 1000.1
20260505031750 0 270 2.0 4.0 0.00 0.00 0.00 1000.1
20260505031710 0 270 2.0 4.0 0.00 0.00 0.00 1000.1
20260505031630 0 225 2.0 4.0 0.00 0.00 0.00 1000.1
20260505031620 0 270 2.0 4.0 0.00 0.00 0.00 1000.1
20260505031550 0 225 2.0 4.0 0.00 0.00 0.00 1000.1
20260505031540 0 225 2.0 4.0 0.00 0.00 0.00 1000.2
20260505031530 0 270 1.0 4.0 0.00 0.00 0.00 1000.2
20260505031521 0 225 1.0 4.0 0.00 0.00 0.00 1000.1
20260505031511 0 225 0.0 4.0 0.00 0.00 0.00 1000.1
20260505031441 0 225 0.0 4.0 0.00 0.00 0.00 1000.2
20260505031431 0 225 0.0 4.0 0.00 0.00 0.00 1000.1
20260505031421 0 225 0.0 5.0 0.00 0.00 0.00 1000.1
20260505031341 0 225 0.0 5.0 0.00 0.00 0.00 1000.2
20260505031331 0 225 0.0 5.0 0.00 0.00 0.00 1000.1
20260505031311 0 225 1.0 5.0 0.00 0.00 0.00 1000.2
20260505031241 0 225 2.0 5.0 0.00 0.00 0.00 1000.2
20260505031221 0 225 2.0 5.0 0.00 0.00 0.00 1000.1
20260505031201 0 203 2.0 5.0 0.00 0.00 0.00 1000.2
20260505031151 0 180 2.0 5.0 0.00 0.00 0.00 1000.2
20260505031121 0 225 2.0 5.0 0.00 0.00 0.00 1000.2
20260505031101 0 225 2.0 5.0 0.00 0.00 0.00 1000.1
20260505031051 0 203 2.0 5.0 0.00 0.00 0.00 1000.2
20260505031041 0 225 2.0 5.0 0.00 0.00 0.00 1000.2
20260505031021 0 180 2.0 5.0 0.00 0.00 0.00 1000.2
20260505031001 0 225 3.0 5.0 0.00 0.00 0.00 1000.2
20260505030922 0 225 3.0 5.0 0.00 0.00 0.00 1000.2
20260505030902 0 225 4.0 5.0 0.00 0.00 0.00 1000.1
20260505030842 0 270 4.0 5.0 0.00 0.00 0.00 1000.2
20260505030822 0 270 4.0 5.0 0.00 0.00 0.00 1000.1
20260505030802 0 270 4.0 5.0 0.00 0.00 0.00 1000.2
20260505030752 0 270 3.0 5.0 0.00 0.00 0.00 1000.2
20260505030742 0 270 3.0 5.0 0.00 0.00 0.00 1000.1
20260505030702 0 270 3.0 5.0 0.00 0.00 0.00 1000.1
20260505030652 0 270 2.0 5.0 0.00 0.00 0.00 1000.2
20260505030622 0 270 2.0 5.0 0.00 0.00 0.00 1000.1
20260505030542 0 270 2.0 5.0 0.00 0.00 0.00 1000.1
20260505030532 0 270 2.0 5.0 0.00 0.00 0.00 1000.2
20260505030522 0 270 3.0 5.0 0.00 0.00 0.00 1000.1
20260505030452 0 293 3.0 5.0 0.00 0.00 0.00 1000.1
20260505030442 0 270 3.0 5.0 0.00 0.00 0.00 1000.1
20260505030432 0 270 3.0 5.0 0.00 0.00 0.00 1000.2
20260505030422 0 315 3.0 5.0 0.00 0.00 0.00 1000.1
20260505030403 0 270 3.0 5.0 0.00 0.00 0.00 1000.1
20260505030333 0 315 3.0 5.0 0.00 0.00 0.00 1000.1
20260505030303 0 293 3.0 5.0 0.00 0.00 0.00 1000.1
20260505030253 0 315 3.0 5.0 0.00 0.00 0.00 1000.1
20260505030233 0 315 3.0 5.0 0.00 0.00 0.00 1000.2
20260505030213 0 270 4.0 5.0 0.00 0.00 0.00 1000.2
20260505030143 0 293 4.0 5.0 0.00 0.00 0.00 1000.2
20260505030133 0 315 4.0 5.0 0.00 0.00 0.00 1000.2
20260505030053 0 315 4.0 5.0 0.00 0.00 0.00 1000.2
20260505030043 0 293 4.0 5.0 0.00 0.00 0.00 1000.2
20260505030013 0 315 4.0 5.0 0.00 0.00 0.00 1000.2
20260505030003 0 293 4.0 5.0 0.00 0.00 0.00 1000.2
20260505025953 0 270 4.0 5.0 0.00 0.00 0.00 1000.2
20260505025913 0 270 3.0 5.0 0.00 0.00 0.00 1000.2
20260505025903 0 270 3.0 4.0 0.00 0.00 0.00 1000.2
20260505025823 0 270 3.0 4.0 0.00 0.00 0.00 1000.2
20260505025744 0 270 3.0 4.0 0.00 0.00 0.00 1000.2
20260505025734 0 270 2.0 4.0 0.00 0.00 0.00 1000.2
20260505025654 0 270 2.0 4.0 0.00 0.00 0.00 1000.2
20260505025644 0 270 2.0 4.0 0.00 0.00 0.00 1000.1
20260505025614 0 270 2.0 4.0 0.00 0.00 0.00 1000.2
20260505025544 0 270 2.0 4.0 0.00 0.00 0.00 1000.1
20260505025534 0 270 2.0 4.0 0.00 0.00 0.00 1000.2
20260505025454 0 270 2.0 4.0 0.00 0.00 0.00 1000.2
20260505025434 0 270 2.0 4.0 0.00 0.00 0.00 1000.1
20260505025414 0 270 2.0 4.0 0.00 0.00 0.00 1000.2
20260505025334 0 270 2.0 4.0 0.00 0.00 0.00 1000.2
20260505025254 0 270 2.0 4.0 0.00 0.00 0.00 1000.2
20260505025224 0 270 2.0 4.0 0.00 0.00 0.00 1000.1
20260505025214 0 270 2.0 4.0 0.00 0.00 0.00 1000.2
20260505025145 0 270 2.0 3.0 0.00 0.00 0.00 1000.2
20260505025105 0 270 2.0 3.0 0.00 0.00 0.00 1000.2
20260505025025 0 270 2.0 3.0 0.00 0.00 0.00 1000.2
20260505024945 0 270 2.0 3.0 0.00 0.00 0.00 1000.2
20260505024925 0 270 2.0 3.0 0.00 0.00 0.00 1000.1
20260505024845 0 270 2.0 3.0 0.00 0.00 0.00 1000.2
20260505024805 0 270 2.0 3.0 0.00 0.00 0.00 1000.2
20260505024725 0 270 2.0 3.0 0.00 0.00 0.00 1000.2
20260505024645 0 270 2.0 3.0 0.00 0.00 0.00 1000.2
20260505024605 0 270 2.0 3.0 0.00 0.00 0.00 1000.2
20260505024556 0 270 2.0 3.0 0.00 0.00 0.00 1000.3
20260505024536 0 270 1.0 3.0 0.00 0.00 0.00 1000.3
20260505024526 0 270 1.0 3.0 0.00 0.00 0.00 1000.2
20260505024516 0 270 2.0 3.0 0.00 0.00 0.00 1000.3
20260505024506 0 270 2.0 3.0 0.00 0.00 0.00 1000.2
20260505024426 0 270 2.0 3.0 0.00 0.00 0.00 1000.2
20260505024416 0 270 2.0 3.0 0.00 0.00 0.00 1000.3
20260505024336 0 270 2.0 3.0 0.00 0.00 0.00 1000.2
20260505024326 0 270 2.0 3.0 0.00 0.00 0.00 1000.3
20260505024256 0 270 2.0 3.0 0.00 0.00 0.00 1000.2
20260505024216 0 270 2.0 3.0 0.00 0.00 0.00 1000.3
20260505024136 0 270 2.0 3.0 0.00 0.00 0.00 1000.3
20260505024056 0 270 2.0 3.0 0.00 0.00 0.00 1000.3
20260505024046 0 315 2.0 3.0 0.00 0.00 0.00 1000.3
20260505024006 0 270 2.0 2.0 0.00 0.00 0.00 1000.3
20260505023927 0 270 2.0 2.0 0.00 0.00 0.00 1000.3
20260505023907 0 270 1.0 3.0 0.00 0.00 0.00 1000.2
20260505023857 0 270 1.0 3.0 0.00 0.00 0.00 1000.3
20260505023837 0 270 1.0 4.0 0.00 0.00 0.00 1000.3
20260505023807 0 270 0.0 4.0 0.00 0.00 0.00 1000.3
20260505023757 0 270 1.0 4.0 0.00 0.00 0.00 1000.3
20260505023717 0 270 1.0 4.0 0.00 0.00 0.00 1000.3
20260505023637 0 270 1.0 4.0 0.00 0.00 0.00 1000.3
20260505023617 0 270 1.0 5.0 0.00 0.00 0.00 1000.3
20260505023607 0 270 2.0 5.0 0.00 0.00 0.00 1000.3
20260505023547 0 0 2.0 5.0 0.00 0.00 0.00 1000.3
20260505023537 0 270 2.0 5.0 0.00 0.00 0.00 1000.4
20260505023457 0 270 2.0 5.0 0.00 0.00 0.00 1000.3
20260505023447 0 270 2.0 5.0 0.00 0.00 0.00 1000.4
20260505023417 0 270 2.0 5.0 0.00 0.00 0.00 1000.3
20260505023408 0 270 2.0 5.0 0.00 0.00 0.00 1000.4
20260505023348 0 270 3.0 5.0 0.00 0.00 0.00 1000.3
20260505023338 0 270 3.0 5.0 0.00 0.00 0.00 1000.4
20260505023258 0 270 3.0 5.0 0.00 0.00 0.00 1000.4
20260505023248 0 270 3.0 5.0 0.00 0.00 0.00 1000.3
20260505023218 0 270 3.0 5.0 0.00 0.00 0.00 1000.4
20260505023158 0 270 3.0 5.0 0.00 0.00 0.00 1000.3
20260505023128 0 293 3.0 5.0 0.00 0.00 0.00 1000.4
20260505023118 0 270 3.0 5.0 0.00 0.00 0.00 1000.4
20260505023058 0 315 3.0 5.0 0.00 0.00 0.00 1000.4
20260505023038 0 315 4.0 5.0 0.00 0.00 0.00 1000.4
20260505023028 0 270 4.0 5.0 0.00 0.00 0.00 1000.4
20260505023008 0 315 3.0 5.0 0.00 0.00 0.00 1000.4
20260505022928 0 293 3.0 5.0 0.00 0.00 0.00 1000.4
20260505022918 0 315 3.0 5.0 0.00 0.00 0.00 1000.4
20260505022848 0 270 3.0 5.0 0.00 0.00 0.00 1000.4
20260505022838 0 315 3.0 5.0 0.00 0.00 0.00 1000.4
20260505022759 0 315 3.0 5.0 0.00 0.00 0.00 1000.4
20260505022749 0 270 3.0 5.0 0.00 0.00 0.00 1000.4
20260505022739 0 293 3.0 5.0 0.00 0.00 0.00 1000.4
20260505022659 0 270 3.0 5.0 0.00 0.00 0.00 1000.4
20260505022619 0 270 3.0 5.0 0.00 0.00 0.00 1000.4
20260505022539 0 270 3.0 5.0 0.00 0.00 0.00 1000.4
20260505022529 0 270 3.0 4.0 0.00 0.00 0.00 1000.4
20260505022519 0 270 2.0 4.0 0.00 0.00 0.00 1000.4
20260505022449 0 225 2.0 4.0 0.00 0.00 0.00 1000.4
20260505022409 0 225 2.0 4.0 0.00 0.00 0.00 1000.4
20260505022329 0 225 2.0 4.0 0.00 0.00 0.00 1000.4
20260505022319 0 225 1.0 4.0 0.00 0.00 0.00 1000.5
20260505022249 0 225 2.0 4.0 0.00 0.00 0.00 1000.4
20260505022210 0 225 2.0 4.0 0.00 0.00 0.00 1000.4
20260505022200 0 225 3.0 4.0 0.00 0.00 0.00 1000.5
20260505022140 0 225 3.0 4.0 0.00 0.00 0.00 1000.4
20260505022120 0 225 3.0 4.0 0.00 0.00 0.00 1000.5
20260505022100 0 225 3.0 4.0 0.00 0.00 0.00 1000.4
20260505022030 0 225 2.0 4.0 0.00 0.00 0.00 1000.5
20260505022020 0 270 1.0 4.0 0.00 0.00 0.00 1000.4
20260505022010 0 225 1.0 4.0 0.00 0.00 0.00 1000.5
20260505022000 0 225 1.0 3.0 0.00 0.00 0.00 1000.4
20260505021950 0 248 1.0 3.0 0.00 0.00 0.00 1000.4
20260505021930 0 225 2.0 3.0 0.00 0.00 0.00 1000.4
20260505021920 0 225 2.0 3.0 0.00 0.00 0.00 1000.5
20260505021910 0 225 1.0 3.0 0.00 0.00 0.00 1000.5
20260505021900 0 225 1.0 3.0 0.00 0.00 0.00 1000.4
20260505021850 0 225 0.0 2.0 0.00 0.00 0.00 1000.4
20260505021840 0 225 0.0 2.0 0.00 0.00 0.00 1000.5
20260505021800 0 225 0.0 2.0 0.00 0.00 0.00 1000.5
20260505021750 0 225 1.0 2.0 0.00 0.00 0.00 1000.4
20260505021730 0 180 1.0 2.0 0.00 0.00 0.00 1000.4
20260505021710 0 225 1.0 2.0 0.00 0.00 0.00 1000.4
20260505021700 0 225 1.0 2.0 0.00 0.00 0.00 1000.5
20260505021650 0 225 0.0 2.0 0.00 0.00 0.00 1000.5
20260505021620 0 225 0.0 2.0 0.00 0.00 0.00 1000.4
20260505021611 0 225 0.0 2.0 0.00 0.00 0.00 1000.5
20260505021541 0 225 0.0 2.0 0.00 0.00 0.00 1000.4
20260505021531 0 225 0.0 2.0 0.00 0.00 0.00 1000.5
20260505021451 0 225 0.0 2.0 0.00 0.00 0.00 1000.5
20260505021411 0 180 0.0 2.0 0.00 0.00 0.00 1000.4
20260505021351 0 225 0.0 2.0 0.00 0.00 0.00 1000.4
20260505021321 0 180 1.0 2.0 0.00 0.00 0.00 1000.4
20260505021311 0 180 1.0 2.0 0.00 0.00 0.00 1000.5
20260505021251 0 180 0.0 2.0 0.00 0.00 0.00 1000.4
20260505021241 0 225 0.0 2.0 0.00 0.00 0.00 1000.4
20260505021221 0 225 0.0 2.0 0.00 0.00 0.00 1000.5
20260505021211 0 180 0.0 2.0 0.00 0.00 0.00 1000.4
20260505021131 0 180 0.0 2.0 0.00 0.00 0.00 1000.4
20260505021121 0 180 1.0 2.0 0.00 0.00 0.00 1000.5
20260505021041 0 180 1.0 2.0 0.00 0.00 0.00 1000.5
20260505021002 0 180 1.0 2.0 0.00 0.00 0.00 1000.4
20260505020952 0 180 1.0 2.0 0.00 0.00 0.00 1000.5
20260505020912 0 180 1.0 2.0 0.00 0.00 0.00 1000.4
20260505020902 0 180 1.0 2.0 0.00 0.00 0.00 1000.5
20260505020832 0 180 1.0 2.0 0.00 0.00 0.00 1000.4
20260505020822 0 180 1.0 2.0 0.00 0.00 0.00 1000.5
20260505020812 0 180 0.0 2.0 0.00 0.00 0.00 1000.5
20260505020732 0 180 0.0 2.0 0.00 0.00 0.00 1000.5
20260505020652 0 225 0.0 2.0 0.00 0.00 0.00 1000.5
20260505020632 0 180 0.0 2.0 0.00 0.00 0.00 1000.5
20260505020602 0 180 0.0 0.0 0.00 0.00 0.00 1000.4
20260505020552 0 180 0.0 0.0 0.00 0.00 0.00 1000.5
20260505020512 0 180 0.0 0.0 0.00 0.00 0.00 1000.5
20260505020502 0 158 0.0 0.0 0.00 0.00 0.00 1000.5
20260505020452 0 135 0.0 0.0 0.00 0.00 0.00 1000.5
20260505020413 0 135 0.0 0.0 0.00 0.00 0.00 1000.5
20260505020333 0 135 0.0 0.0 0.00 0.00 0.00 1000.5
20260505020253 0 135 0.0 0.0 0.00 0.00 0.00 1000.5
20260505020213 0 135 0.0 0.0 0.00 0.00 0.00 1000.5
20260505020203 0 135 0.0 0.0 0.00 0.00 0.00 1000.4
20260505020143 0 158 0.0 0.0 0.00 0.00 0.00 1000.5
20260505020113 0 180 0.0 0.0 0.00 0.00 0.00 1000.5
20260505020033 0 180 0.0 0.0 0.00 0.00 0.00 1000.5
20260505020023 0 158 0.0 0.0 0.00 0.00 0.00 1000.4
20260505015953 0 135 0.0 0.0 0.00 0.00 0.00 1000.5
20260505015943 0 135 0.0 0.0 0.00 0.00 0.00 1000.4
20260505015913 0 135 0.0 0.0 0.00 0.00 0.00 1000.5
20260505015833 0 90 0.0 0.0 0.00 0.00 0.00 1000.5
20260505015814 0 68 0.0 0.0 0.00 0.00 0.00 1000.5
20260505015754 0 90 0.0 0.0 0.00 0.00 0.00 1000.5
20260505015744 0 180 0.0 0.0 0.00 0.00 0.00 1000.5
20260505015734 0 135 0.0 0.0 0.00 0.00 0.00 1000.5
20260505015724 0 158 0.0 0.0 0.00 0.00 0.00 1000.4
20260505015714 0 180 0.0 0.0 0.00 0.00 0.00 1000.4
20260505015634 0 180 0.0 0.0 0.00 0.00 0.00 1000.5
20260505015624 0 158 0.0 0.0 0.00 0.00 0.00 1000.5
20260505015604 0 135 0.0 0.0 0.00 0.00 0.00 1000.5
20260505015554 0 180 0.0 0.0 0.00 0.00 0.00 1000.4
20260505015544 0 135 0.0 0.0 0.00 0.00 0.00 1000.4
20260505015524 0 135 0.0 0.0 0.00 0.00 0.00 1000.5
20260505015514 0 180 0.0 0.0 0.00 0.00 0.00 1000.4
20260505015504 0 180 0.0 0.0 0.00 0.00 0.00 1000.5
20260505015434 0 135 0.0 0.0 0.00 0.00 0.00 1000.4
20260505015424 0 135 0.0 0.0 0.00 0.00 0.00 1000.5
20260505015354 0 135 0.0 0.0 0.00 0.00 0.00 1000.4
20260505015314 0 135 0.0 0.0 0.00 0.00 0.00 1000.4
20260505015254 0 135 0.0 0.0 0.00 0.00 0.00 1000.5
20260505015235 0 135 0.0 0.0 0.00 0.00 0.00 1000.4
20260505015215 0 135 0.0 0.0 0.00 0.00 0.00 1000.5
20260505015155 0 135 0.0 0.0 0.00 0.00 0.00 1000.4
20260505015135 0 135 0.0 0.0 0.00 0.00 0.00 1000.5
20260505015115 0 135 0.0 0.0 0.00 0.00 0.00 1000.4
20260505015055 0 135 0.0 0.0 0.00 0.00 0.00 1000.5
20260505015015 0 135 0.0 0.0 0.00 0.00 0.00 1000.5
20260505015005 0 135 0.0 0.0 0.00 0.00 0.00 1000.4
20260505014935 0 135 0.0 0.0 0.00 0.00 0.00 1000.5
20260505014925 0 135 0.0 0.0 0.00 0.00 0.00 1000.4
20260505014845 0 135 0.0 0.0 0.00 0.00 0.00 1000.5
20260505014805 0 135 0.0 0.0 0.00 0.00 0.00 1000.5
20260505014725 0 135 0.0 0.0 0.00 0.00 0.00 1000.5
20260505014646 0 135 0.0 0.0 0.00 0.00 0.00 1000.5
20260505014636 0 158 0.0 0.0 0.00 0.00 0.00 1000.5
20260505014626 0 180 0.0 0.0 0.00 0.00 0.00 1000.4
20260505014616 0 180 0.0 0.0 0.00 0.00 0.00 1000.5
20260505014546 0 158 0.0 0.0 0.00 0.00 0.00 1000.4
20260505014536 0 180 0.0 0.0 0.00 0.00 0.00 1000.5
20260505014506 0 158 0.0 0.0 0.00 0.00 0.00 1000.5
20260505014456 0 180 0.0 0.0 0.00 0.00 0.00 1000.5
20260505014446 0 180 0.0 0.0 0.00 0.00 0.00 1000.4
20260505014416 0 180 0.0 0.0 0.00 0.00 0.00 1000.5
20260505014406 0 158 0.0 0.0 0.00 0.00 0.00 1000.5
20260505014326 0 135 0.0 0.0 0.00 0.00 0.00 1000.5
20260505014316 0 135 0.0 1.0 0.00 0.00 0.00 1000.4
20260505014307 0 90 0.0 1.0 0.00 0.00 0.00 1000.5
20260505014226 0 90 0.0 2.0 0.00 0.00 0.00 1000.4
20260505014206 0 90 0.0 2.0 0.00 0.00 0.00 1000.5
20260505014147 0 90 0.0 2.0 0.00 0.00 0.00 1000.4
20260505014137 0 45 0.0 2.0 0.00 0.00 0.00 1000.4
20260505014107 0 45 0.0 2.0 0.00 0.00 0.00 1000.5
20260505014057 0 45 0.0 2.0 0.00 0.00 0.00 1000.4
20260505014047 0 23 0.0 2.0 0.00 0.00 0.00 1000.4
20260505014027 0 0 0.0 2.0 0.00 0.00 0.00 1000.4
20260505013957 0 0 0.0 2.0 0.00 0.00 0.00 1000.5
20260505013947 0 0 0.0 2.0 0.00 0.00 0.00 1000.4
20260505013907 0 0 0.0 2.0 0.00 0.00 0.00 1000.4
20260505013837 0 0 0.0 2.0 0.00 0.00 0.00 1000.5
20260505013827 0 0 0.0 2.0 0.00 0.00 0.00 1000.4
20260505013817 0 0 1.0 2.0 0.00 0.00 0.00 1000.4
20260505013757 0 0 1.0 2.0 0.00 0.00 0.00 1000.5
20260505013717 0 0 1.0 2.0 0.00 0.00 0.00 1000.4
20260505013707 0 0 1.0 2.0 0.00 0.00 0.00 1000.5
20260505013637 0 0 1.0 2.0 0.00 0.00 0.00 1000.4
20260505013627 0 315 1.0 2.0 0.00 0.00 0.00 1000.4
20260505013548 0 0 1.0 2.0 0.00 0.00 0.00 1000.4
20260505013538 0 315 1.0 2.0 0.00 0.00 0.00 1000.4
20260505013518 0 315 0.0 2.0 0.00 0.00 0.00 1000.5
20260505013508 0 315 0.0 2.0 0.00 0.00 0.00 1000.4
20260505013458 0 338 0.0 2.0 0.00 0.00 0.00 1000.4
20260505013448 0 0 0.0 2.0 0.00 0.00 0.00 1000.5
20260505013408 0 315 1.0 2.0 0.00 0.00 0.00 1000.5
20260505013348 0 45 1.0 2.0 0.00 0.00 0.00 1000.5
20260505013338 0 338 1.0 2.0 0.00 0.00 0.00 1000.5
20260505013328 0 315 1.0 2.0 0.00 0.00 0.00 1000.4
20260505013318 0 315 1.0 3.0 0.00 0.00 0.00 1000.5
20260505013238 0 315 1.0 3.0 0.00 0.00 0.00 1000.5
20260505013208 0 0 1.0 3.0 0.00 0.00 0.00 1000.5
20260505013158 0 315 1.0 3.0 0.00 0.00 0.00 1000.5
20260505013148 0 270 1.0 3.0 0.00 0.00 0.00 1000.5
20260505013108 0 315 1.0 3.0 0.00 0.00 0.00 1000.5
20260505013058 0 270 1.0 3.0 0.00 0.00 0.00 1000.5
20260505013019 0 270 1.0 3.0 0.00 0.00 0.00 1000.5
20260505012939 0 270 1.0 3.0 0.00 0.00 0.00 1000.5
20260505012919 0 270 2.0 3.0 0.00 0.00 0.00 1000.5
20260505012839 0 270 2.0 3.0 0.00 0.00 0.00 1000.5
20260505012829 0 270 2.0 3.0 0.00 0.00 0.00 1000.6
20260505012809 0 225 2.0 3.0 0.00 0.00 0.00 1000.5
20260505012749 0 270 2.0 3.0 0.00 0.00 0.00 1000.5
20260505012729 0 225 2.0 3.0 0.00 0.00 0.00 1000.5
20260505012709 0 225 1.0 3.0 0.00 0.00 0.00 1000.5
20260505012659 0 225 1.0 3.0 0.00 0.00 0.00 1000.6
20260505012639 0 225 0.0 3.0 0.00 0.00 0.00 1000.5
20260505012629 0 270 0.0 3.0 0.00 0.00 0.00 1000.6
20260505012559 0 225 0.0 3.0 0.00 0.00 0.00 1000.5
20260505012540 0 180 0.0 4.0 0.00 0.00 0.00 1000.5
20260505012529 0 180 0.0 5.0 0.00 0.00 0.00 1000.5
20260505012520 0 180 0.0 5.0 0.00 0.00 0.00 1000.6
20260505012440 0 180 0.0 5.0 0.00 0.00 0.00 1000.5
20260505012430 0 225 0.0 5.0 0.00 0.00 0.00 1000.5
20260505012400 0 135 2.0 5.0 0.00 0.00 0.00 1000.5
20260505012350 0 270 1.0 5.0 0.00 0.00 0.00 1000.5
20260505012340 0 180 1.0 5.0 0.00 0.00 0.00 1000.5
20260505012330 0 270 1.0 5.0 0.00 0.00 0.00 1000.6
20260505012320 0 248 0.0 5.0 0.00 0.00 0.00 1000.5
20260505012310 0 270 0.0 5.0 0.00 0.00 0.00 1000.5
20260505012300 0 180 0.0 5.0 0.00 0.00 0.00 1000.6
20260505012250 0 225 0.0 5.0 0.00 0.00 0.00 1000.5
20260505012240 0 135 0.0 5.0 0.00 0.00 0.00 1000.5
20260505012230 0 225 1.0 5.0 0.00 0.00 0.00 1000.5
20260505012220 0 270 1.0 5.0 0.00 0.00 0.00 1000.6
20260505012210 0 293 2.0 5.0 0.00 0.00 0.00 1000.5
20260505012150 0 270 2.0 5.0 0.00 0.00 0.00 1000.6
20260505012120 0 270 2.0 5.0 0.00 0.00 0.00 1000.5
20260505012110 0 270 2.0 5.0 0.00 0.00 0.00 1000.6
20260505012100 0 315 2.0 5.0 0.00 0.00 0.00 1000.6
20260505012020 0 270 2.0 5.0 0.00 0.00 0.00 1000.6
20260505012010 0 315 2.0 6.0 0.00 0.00 0.00 1000.6
20260505011951 0 270 2.0 6.0 0.00 0.00 0.00 1000.6
20260505011941 0 293 2.0 6.0 0.00 0.00 0.00 1000.6
20260505011931 0 315 2.0 6.0 0.00 0.00 0.00 1000.6
20260505011901 0 315 2.0 6.0 0.00 0.00 0.00 1000.5
20260505011851 0 315 2.0 6.0 0.00 0.00 0.00 1000.6
20260505011841 0 315 3.0 6.0 0.00 0.00 0.00 1000.6
20260505011801 0 315 3.0 6.0 0.00 0.00 0.00 1000.6
20260505011741 0 270 2.0 6.0 0.00 0.00 0.00 1000.6
20260505011721 0 315 2.0 6.0 0.00 0.00 0.00 1000.6
20260505011701 0 270 2.0 6.0 0.00 0.00 0.00 1000.6
20260505011621 0 270 3.0 6.0 0.00 0.00 0.00 1000.6
20260505011601 0 270 4.0 6.0 0.00 0.00 0.00 1000.6
20260505011521 0 270 4.0 6.0 0.00 0.00 0.00 1000.6
20260505011511 0 293 4.0 5.0 0.00 0.00 0.00 1000.6
20260505011451 0 270 3.0 5.0 0.00 0.00 0.00 1000.6
20260505011412 0 270 4.0 5.0 0.00 0.00 0.00 1000.6
20260505011402 0 270 3.0 5.0 0.00 0.00 0.00 1000.6
20260505011352 0 315 3.0 5.0 0.00 0.00 0.00 1000.6
20260505011342 0 270 2.0 5.0 0.00 0.00 0.00 1000.6
20260505011332 0 270 2.0 4.0 0.00 0.00 0.00 1000.6
20260505011302 0 315 2.0 4.0 0.00 0.00 0.00 1000.6
20260505011252 0 270 2.0 4.0 0.00 0.00 0.00 1000.6
20260505011242 0 315 2.0 4.0 0.00 0.00 0.00 1000.7
20260505011212 0 315 2.0 4.0 0.00 0.00 0.00 1000.6
20260505011202 0 270 2.0 4.0 0.00 0.00 0.00 1000.6
20260505011142 0 315 2.0 4.0 0.00 0.00 0.00 1000.7
20260505011132 0 315 2.0 4.0 0.00 0.00 0.00 1000.6
20260505011102 0 293 2.0 4.0 0.00 0.00 0.00 1000.6
20260505011052 0 315 2.0 4.0 0.00 0.00 0.00 1000.6
20260505011042 0 270 2.0 4.0 0.00 0.00 0.00 1000.6
20260505011022 0 315 1.0 4.0 0.00 0.00 0.00 1000.6
20260505011012 0 270 1.0 4.0 0.00 0.00 0.00 1000.6
20260505010942 0 315 1.0 4.0 0.00 0.00 0.00 1000.6
20260505010912 0 315 2.0 4.0 0.00 0.00 0.00 1000.6
20260505010833 0 315 2.0 4.0 0.00 0.00 0.00 1000.6
20260505010823 0 0 2.0 5.0 0.00 0.00 0.00 1000.6
20260505010753 0 338 2.0 5.0 0.00 0.00 0.00 1000.6
20260505010743 0 315 2.0 5.0 0.00 0.00 0.00 1000.6
20260505010733 0 0 2.0 5.0 0.00 0.00 0.00 1000.6
20260505010703 0 270 2.0 5.0 0.00 0.00 0.00 1000.6
20260505010653 0 315 2.0 5.0 0.00 0.00 0.00 1000.6
20260505010633 0 0 2.0 5.0 0.00 0.00 0.00 1000.6
20260505010613 0 315 2.0 5.0 0.00 0.00 0.00 1000.7
20260505010603 0 315 2.0 5.0 0.00 0.00 0.00 1000.6
20260505010523 0 315 2.0 5.0 0.00 0.00 0.00 1000.6
20260505010443 0 315 2.0 5.0 0.00 0.00 0.00 1000.6
20260505010413 0 0 2.0 5.0 0.00 0.00 0.00 1000.6
20260505010403 0 315 2.0 5.0 0.00 0.00 0.00 1000.6
20260505010343 0 0 2.0 6.0 0.00 0.00 0.00 1000.6
20260505010304 0 315 2.0 6.0 0.00 0.00 0.00 1000.6
20260505010254 0 0 2.0 6.0 0.00 0.00 0.00 1000.6
20260505010244 0 338 2.0 6.0 0.00 0.00 0.00 1000.6
20260505010234 0 293 2.0 6.0 0.00 0.00 0.00 1000.6
20260505010224 0 315 2.0 6.0 0.00 0.00 0.00 1000.6
20260505010204 0 0 2.0 6.0 0.00 0.00 0.00 1000.6
20260505010144 0 315 2.0 6.0 0.00 0.00 0.00 1000.6
20260505010124 0 0 2.0 6.0 0.00 0.00 0.00 1000.6
20260505010114 0 338 2.0 6.0 0.00 0.00 0.00 1000.6
20260505010054 0 315 2.0 7.0 0.00 0.00 0.00 1000.6
20260505010044 0 0 2.0 7.0 0.00 0.00 0.00 1000.7
20260505010034 0 0 2.0 8.0 0.00 0.00 0.00 1000.6
20260505010014 0 315 2.0 8.0 0.00 0.00 0.00 1000.6
20260505010004 0 338 2.0 8.0 0.00 0.00 0.00 1000.6
20260505005944 0 0 3.0 8.0 0.00 0.00 0.00 1000.6
20260505005924 0 338 3.0 8.0 0.00 0.00 0.00 1000.6
20260505005914 0 315 3.0 8.0 0.00 0.00 0.00 1000.5
20260505005904 0 0 3.0 8.0 0.00 0.00 0.00 1000.6
20260505005834 0 315 3.0 8.0 0.00 0.00 0.00 1000.6
20260505005824 0 0 3.0 8.0 0.00 0.00 0.00 1000.6
20260505005814 0 338 3.0 8.0 0.00 0.00 0.00 1000.6
20260505005804 0 0 2.0 8.0 0.00 0.00 0.00 1000.6
20260505005754 0 315 3.0 8.0 0.00 0.00 0.00 1000.6
20260505005714 0 315 3.0 8.0 0.00 0.00 0.00 1000.6
20260505005704 0 338 4.0 8.0 0.00 0.00 0.00 1000.6
20260505005655 0 315 4.0 8.0 0.00 0.00 0.00 1000.6
20260505005625 0 0 4.0 8.0 0.00 0.00 0.00 1000.7
20260505005615 0 0 4.0 8.0 0.00 0.00 0.00 1000.6
20260505005555 0 315 4.0 8.0 0.00 0.00 0.00 1000.6
20260505005525 0 338 4.0 8.0 0.00 0.00 0.00 1000.6
20260505005515 0 315 4.0 8.0 0.00 0.00 0.00 1000.6
20260505005505 0 0 4.0 7.0 0.00 0.00 0.00 1000.6
20260505005455 0 315 4.0 7.0 0.00 0.00 0.00 1000.6
20260505005435 0 0 4.0 7.0 0.00 0.00 0.00 1000.7
20260505005415 0 0 3.0 7.0 0.00 0.00 0.00 1000.7
20260505005405 0 315 3.0 7.0 0.00 0.00 0.00 1000.6
20260505005355 0 338 3.0 7.0 0.00 0.00 0.00 1000.6
20260505005345 0 0 2.0 7.0 0.00 0.00 0.00 1000.7
20260505005335 0 338 2.0 7.0 0.00 0.00 0.00 1000.7
20260505005315 0 315 3.0 7.0 0.00 0.00 0.00 1000.7
20260505005255 0 0 3.0 7.0 0.00 0.00 0.00 1000.7
20260505005225 0 315 4.0 7.0 0.00 0.00 0.00 1000.7
20260505005205 0 0 4.0 7.0 0.00 0.00 0.00 1000.7
20260505005145 0 315 4.0 7.0 0.00 0.00 0.00 1000.7
20260505005115 0 0 3.0 6.0 0.00 0.00 0.00 1000.7
20260505005105 0 315 3.0 6.0 0.00 0.00 0.00 1000.6
20260505005055 0 315 2.0 6.0 0.00 0.00 0.00 1000.7
20260505005036 0 315 3.0 6.0 0.00 0.00 0.00 1000.7
20260505005016 0 0 3.0 6.0 0.00 0.00 0.00 1000.7
20260505005006 0 315 3.0 7.0 0.00 0.00 0.00 1000.7
20260505004956 0 0 2.0 7.0 0.00 0.00 0.00 1000.7
20260505004946 0 315 2.0 7.0 0.00 0.00 0.00 1000.7
20260505004906 0 315 2.0 7.0 0.00 0.00 0.00 1000.7
20260505004856 0 338 2.0 8.0 0.00 0.00 0.00 1000.7
20260505004846 0 315 2.0 8.0 0.00 0.00 0.00 1000.7
20260505004806 0 315 2.0 8.0 0.00 0.00 0.00 1000.7
20260505004756 0 0 2.0 8.0 0.00 0.00 0.00 1000.7
20260505004746 0 338 3.0 8.0 0.00 0.00 0.00 1000.7
20260505004736 0 315 3.0 8.0 0.00 0.00 0.00 1000.8
20260505004726 0 0 4.0 8.0 0.00 0.00 0.00 1000.7
20260505004646 0 0 4.0 8.0 0.00 0.00 0.00 1000.7
20260505004606 0 0 4.0 8.0 0.00 0.00 0.00 1000.7
20260505004546 0 45 4.0 8.0 0.00 0.00 0.00 1000.7
20260505004516 0 0 4.0 8.0 0.00 0.00 0.00 1000.7
20260505004506 0 23 3.0 8.0 0.00 0.00 0.00 1000.7
20260505004456 0 0 3.0 8.0 0.00 0.00 0.00 1000.7
20260505004446 0 0 3.0 8.0 0.00 0.00 0.00 1000.8
20260505004417 0 315 4.0 8.0 0.00 0.00 0.00 1000.7
20260505004347 0 0 4.0 8.0 0.00 0.00 0.00 1000.8
20260505004337 0 0 4.0 8.0 0.00 0.00 0.00 1000.7
20260505004327 0 315 5.0 8.0 0.00 0.00 0.00 1000.7
20260505004307 0 0 5.0 8.0 0.00 0.00 0.00 1000.7
20260505004257 0 0 6.0 8.0 0.00 0.00 0.00 1000.7
20260505004247 0 0 6.0 8.0 0.00 0.00 0.00 1000.8
20260505004237 0 338 6.0 8.0 0.00 0.00 0.00 1000.7
20260505004217 0 0 5.0 8.0 0.00 0.00 0.00 1000.7
20260505004157 0 338 4.0 8.0 0.00 0.00 0.00 1000.7
20260505004147 0 315 5.0 8.0 0.00 0.00 0.00 1000.8
20260505004137 0 0 5.0 8.0 0.00 0.00 0.00 1000.7
20260505004127 0 0 5.0 8.0 0.00 0.00 0.00 1000.8
20260505004117 0 0 4.0 8.0 0.00 0.00 0.00 1000.8
20260505004107 0 45 4.0 7.0 0.00 0.00 0.00 1000.7
20260505004057 0 315 4.0 7.0 0.00 0.00 0.00 1000.7
20260505004037 0 338 4.0 7.0 0.00 0.00 0.00 1000.8
20260505004027 0 0 4.0 7.0 0.00 0.00 0.00 1000.8
20260505004007 0 315 4.0 7.0 0.00 0.00 0.00 1000.8
20260505003947 0 0 4.0 7.0 0.00 0.00 0.00 1000.8
20260505003937 0 0 4.0 7.0 0.00 0.00 0.00 1000.7
20260505003927 0 338 4.0 7.0 0.00 0.00 0.00 1000.8
20260505003917 0 315 4.0 6.0 0.00 0.00 0.00 1000.8
20260505003907 0 315 3.0 6.0 0.00 0.00 0.00 1000.8
20260505003847 0 0 3.0 6.0 0.00 0.00 0.00 1000.8
20260505003837 0 0 2.0 6.0 0.00 0.00 0.00 1000.8
20260505003758 0 0 2.0 6.0 0.00 0.00 0.00 1000.8
20260505003748 0 0 2.0 6.0 0.00 0.00 0.00 1000.9
20260505003738 0 315 3.0 6.0 0.00 0.00 0.00 1000.9
20260505003708 0 338 4.0 6.0 0.00 0.00 0.00 1000.8
20260505003658 0 0 4.0 6.0 0.00 0.00 0.00 1000.9
20260505003638 0 0 3.0 6.0 0.00 0.00 0.00 1000.9
20260505003628 0 0 2.0 6.0 0.00 0.00 0.00 1000.9
20260505003608 0 0 2.0 5.0 0.00 0.00 0.00 1000.9
20260505003528 0 0 2.0 5.0 0.00 0.00 0.00 1000.9
20260505003508 0 0 3.0 5.0 0.00 0.00 0.00 1000.9
20260505003448 0 0 4.0 5.0 0.00 0.00 0.00 1000.9
20260505003438 0 23 4.0 5.0 0.00 0.00 0.00 1000.9
20260505003428 0 315 3.0 5.0 0.00 0.00 0.00 1000.9
20260505003408 0 0 3.0 5.0 0.00 0.00 0.00 1000.9
20260505003358 0 0 3.0 5.0 0.00 0.00 0.00 1001.0
20260505003338 0 0 2.0 5.0 0.00 0.00 0.00 1000.9
20260505003318 0 23 2.0 5.0 0.00 0.00 0.00 1000.9
20260505003308 0 45 2.0 5.0 0.00 0.00 0.00 1000.9
20260505003228 0 45 3.0 5.0 0.00 0.00 0.00 1000.9
20260505003219 0 0 2.0 5.0 0.00 0.00 0.00 1000.9
20260505003209 0 0 2.0 5.0 0.00 0.00 0.00 1001.0
20260505003159 0 45 2.0 4.0 0.00 0.00 0.00 1001.0
20260505003149 0 0 2.0 4.0 0.00 0.00 0.00 1000.9
20260505003139 0 315 2.0 3.0 0.00 0.00 0.00 1001.0
20260505003129 0 0 2.0 4.0 0.00 0.00 0.00 1001.0
20260505003109 0 315 2.0 4.0 0.00 0.00 0.00 1001.0
20260505003059 0 45 2.0 4.0 0.00 0.00 0.00 1001.0
20260505003049 0 0 2.0 4.0 0.00 0.00 0.00 1001.0
20260505003029 0 0 2.0 5.0 0.00 0.00 0.00 1001.0
20260505003019 0 0 1.0 5.0 0.00 0.00 0.00 1001.0
20260505002959 0 45 1.0 5.0 0.00 0.00 0.00 1001.0
20260505002939 0 0 1.0 5.0 0.00 0.00 0.00 1001.0
20260505002839 0 0 0.0 5.0 0.00 0.00 0.00 1001.0
20260505002829 0 23 1.0 5.0 0.00 0.00 0.00 1001.0
20260505002759 0 45 1.0 5.0 0.00 0.00 0.00 1001.0
20260505002739 0 0 1.0 5.0 0.00 0.00 0.00 1001.0
20260505002659 0 0 2.0 5.0 0.00 0.00 0.00 1001.0
20260505002619 0 0 2.0 5.0 0.00 0.00 0.00 1001.0
20260505002609 0 45 2.0 5.0 0.00 0.00 0.00 1001.0
20260505002600 0 338 2.0 5.0 0.00 0.00 0.00 1001.0
20260505002550 0 0 1.0 5.0 0.00 0.00 0.00 1001.0
20260505002540 0 0 0.0 4.0 0.00 0.00 0.00 1001.0
20260505002520 0 0 0.0 2.0 0.00 0.00 0.00 1001.0
20260505002510 0 0 0.0 2.0 0.00 0.00 0.00 1001.1
20260505002500 0 315 0.0 1.0 0.00 0.00 0.00 1001.0
20260505002450 0 0 0.0 1.0 0.00 0.00 0.00 1001.1
20260505002440 0 0 0.0 1.0 0.00 0.00 0.00 1001.0
20260505002420 0 45 0.0 1.0 0.00 0.00 0.00 1001.1
20260505002410 0 45 0.0 1.0 0.00 0.00 0.00 1001.0
20260505002400 0 45 0.0 2.0 0.00 0.00 0.00 1001.1
20260505002340 0 90 0.0 2.0 0.00 0.00 0.00 1001.0
20260505002330 0 135 0.0 2.0 0.00 0.00 0.00 1001.0
20260505002320 0 0 0.0 2.0 0.00 0.00 0.00 1001.0
20260505002310 0 45 0.0 2.0 0.00 0.00 0.00 1001.1
20260505002300 0 45 0.0 2.0 0.00 0.00 0.00 1001.0
20260505002250 0 135 0.0 2.0 0.00 0.00 0.00 1001.1
20260505002240 0 0 0.0 2.0 0.00 0.00 0.00 1001.0
20260505002230 0 315 0.0 2.0 0.00 0.00 0.00 1001.1
20260505002210 0 0 0.0 2.0 0.00 0.00 0.00 1001.1
20260505002130 0 0 0.0 2.0 0.00 0.00 0.00 1001.1
20260505002100 0 45 0.0 2.0 0.00 0.00 0.00 1001.1
20260505002050 0 45 0.0 2.0 0.00 0.00 0.00 1001.0
20260505002020 0 45 0.0 2.0 0.00 0.00 0.00 1001.1
20260505002011 0 45 0.0 2.0 0.00 0.00 0.00 1001.2
20260505001951 0 0 0.0 2.0 0.00 0.00 0.00 1001.1
20260505001911 0 45 1.0 2.0 0.00 0.00 0.00 1001.1
20260505001901 0 0 1.0 2.0 0.00 0.00 0.00 1001.2
20260505001841 0 0 0.0 3.0 0.00 0.00 0.00 1001.1
20260505001831 0 23 0.0 3.0 0.00 0.00 0.00 1001.1
20260505001821 0 45 0.0 3.0 0.00 0.00 0.00 1001.1
20260505001811 0 45 0.0 3.0 0.00 0.00 0.00 1001.2
20260505001801 0 135 0.0 3.0 0.00 0.00 0.00 1001.1
20260505001751 0 90 1.0 3.0 0.00 0.00 0.00 1001.1
20260505001741 0 45 1.0 3.0 0.00 0.00 0.00 1001.1
20260505001721 0 0 1.0 3.0 0.00 0.00 0.00 1001.1
20260505001711 0 23 1.0 3.0 0.00 0.00 0.00 1001.1
20260505001701 0 45 1.0 3.0 0.00 0.00 0.00 1001.1
20260505001651 0 0 1.0 3.0 0.00 0.00 0.00 1001.2
20260505001641 0 45 1.0 3.0 0.00 0.00 0.00 1001.2
20260505001621 0 0 1.0 4.0 0.00 0.00 0.00 1001.1
20260505001601 0 315 1.0 5.0 0.00 0.00 0.00 1001.1
20260505001551 0 0 1.0 5.0 0.00 0.00 0.00 1001.1
20260505001531 0 45 1.0 5.0 0.00 0.00 0.00 1001.1
20260505001521 0 0 1.0 5.0 0.00 0.00 0.00 1001.2
20260505001511 0 0 0.0 5.0 0.00 0.00 0.00 1001.1
20260505001501 0 45 0.0 5.0 0.00 0.00 0.00 1001.2
20260505001431 0 45 1.0 5.0 0.00 0.00 0.00 1001.1
20260505001421 0 90 1.0 5.0 0.00 0.00 0.00 1001.1
20260505001352 0 45 2.0 7.0 0.00 0.00 0.00 1001.1
20260505001342 0 315 1.0 7.0 0.00 0.00 0.00 1001.1
20260505001312 0 45 1.0 7.0 0.00 0.00 0.00 1001.1
20260505001302 0 0 1.0 7.0 0.00 0.00 0.00 1001.1
20260505001252 0 45 1.0 7.0 0.00 0.00 0.00 1001.2
20260505001242 0 45 2.0 7.0 0.00 0.00 0.00 1001.1
20260505001232 0 23 2.0 7.0 0.00 0.00 0.00 1001.1
20260505001222 0 0 2.0 7.0 0.00 0.00 0.00 1001.1
20260505001212 0 45 2.0 7.0 0.00 0.00 0.00 1001.2
20260505001142 0 0 2.0 7.0 0.00 0.00 0.00 1001.1
20260505001132 0 45 2.0 7.0 0.00 0.00 0.00 1001.1
20260505001102 0 0 2.0 7.0 0.00 0.00 0.00 1001.1
20260505001042 0 0 2.0 7.0 0.00 0.00 0.00 1001.2
20260505001032 0 45 2.0 7.0 0.00 0.00 0.00 1001.1
20260505001022 0 45 3.0 7.0 0.00 0.00 0.00 1001.1
20260505001012 0 0 3.0 7.0 0.00 0.00 0.00 1001.1
20260505000942 0 45 4.0 7.0 0.00 0.00 0.00 1001.1
20260505000932 0 0 4.0 7.0 0.00 0.00 0.00 1001.1
20260505000922 0 23 3.0 7.0 0.00 0.00 0.00 1001.1
20260505000912 0 0 3.0 7.0 0.00 0.00 0.00 1001.1
20260505000902 0 0 3.0 7.0 0.00 0.00 0.00 1001.2
20260505000842 0 0 2.0 5.0 0.00 0.00 0.00 1001.2
20260505000832 0 0 2.0 5.0 0.00 0.00 0.00 1001.1
20260505000753 0 0 2.0 5.0 0.00 0.00 0.00 1001.2
20260505000743 0 0 2.0 5.0 0.00 0.00 0.00 1001.1
20260505000703 0 0 1.0 5.0 0.00 0.00 0.00 1001.2
20260505000653 0 315 2.0 5.0 0.00 0.00 0.00 1001.2
20260505000633 0 0 2.0 5.0 0.00 0.00 0.00 1001.2
20260505000613 0 315 2.0 5.0 0.00 0.00 0.00 1001.2
20260505000603 0 338 2.0 5.0 0.00 0.00 0.00 1001.2
20260505000533 0 0 2.0 5.0 0.00 0.00 0.00 1001.2
20260505000523 0 0 1.0 5.0 0.00 0.00 0.00 1001.2
20260505000513 0 45 1.0 4.0 0.00 0.00 0.00 1001.2
20260505000453 0 315 1.0 4.0 0.00 0.00 0.00 1001.2
20260505000433 0 315 1.0 4.0 0.00 0.00 0.00 1001.3
20260505000423 0 0 1.0 4.0 0.00 0.00 0.00 1001.2
20260505000353 0 0 1.0 5.0 0.00 0.00 0.00 1001.2
20260505000343 0 315 1.0 5.0 0.00 0.00 0.00 1001.2
20260505000333 0 23 0.0 5.0 0.00 0.00 0.00 1001.2
20260505000323 0 0 0.0 5.0 0.00 0.00 0.00 1001.2
20260505000303 0 0 1.0 5.0 0.00 0.00 0.00 1001.2
20260505000254 0 0 1.0 5.0 0.00 0.00 0.00 1001.3
20260505000226 0 315 1.0 5.0 0.00 0.00 0.00 1001.2
20260505000214 0 45 1.0 5.0 0.00 0.00 0.00 1001.3
20260505000204 0 0 2.0 5.0 0.00 0.00 0.00 1001.2
20260505000144 0 315 2.0 5.0 0.00 0.00 0.00 1001.2
20260505000124 0 0 2.0 5.0 0.00 0.00 0.00 1001.2
20260505000114 0 0 2.0 5.0 0.00 0.00 0.00 1001.3
20260505000104 0 315 2.0 5.0 0.00 0.00 0.00 1001.2
20260505000054 0 315 2.0 5.0 0.00 0.00 0.00 1001.3
20260505000044 0 45 2.0 5.0 0.00 0.00 0.00 1001.3
20260505000034 0 0 1.0 5.0 0.00 0.00 0.00 1001.3
20260505000024 0 0 2.0 5.0 0.00 0.00 0.00 1001.2
20260504235954 0 315 2.0 5.0 0.00 0.00 0.00 1001.3
20260504235944 0 315 2.0 5.0 0.00 0.00 0.00 1001.2
20260504235914 0 315 2.0 5.0 0.00 0.00 0.00 1001.3
20260504235904 0 0 2.0 5.0 0.00 0.00 0.00 1001.3
20260504235824 0 0 2.0 5.0 0.00 0.00 0.00 1001.3
20260504235814 0 45 2.0 5.0 0.00 0.00 0.00 1001.2
20260504235804 0 0 1.0 5.0 0.00 0.00 0.00 1001.2
20260504235754 0 0 1.0 5.0 0.00 0.00 0.00 1001.3
20260504235744 0 0 2.0 5.0 0.00 0.00 0.00 1001.2
20260504235724 0 338 2.0 5.0 0.00 0.00 0.00 1001.3
20260504235714 0 315 2.0 5.0 0.00 0.00 0.00 1001.3
20260504235644 0 293 2.0 5.0 0.00 0.00 0.00 1001.3
20260504235635 0 315 2.0 5.0 0.00 0.00 0.00 1001.3
20260504235625 0 0 2.0 5.0 0.00 0.00 0.00 1001.3
20260504235615 0 0 2.0 5.0 0.00 0.00 0.00 1001.2
20260504235605 0 315 2.0 5.0 0.00 0.00 0.00 1001.2
20260504235545 0 315 3.0 5.0 0.00 0.00 0.00 1001.2
20260504235535 0 0 3.0 5.0 0.00 0.00 0.00 1001.2
20260504235505 0 315 2.0 5.0 0.00 0.00 0.00 1001.2
20260504235455 0 315 2.0 5.0 0.00 0.00 0.00 1001.3
20260504235435 0 338 2.0 6.0 0.00 0.00 0.00 1001.3
20260504235425 0 0 2.0 6.0 0.00 0.00 0.00 1001.3
20260504235355 0 315 2.0 6.0 0.00 0.00 0.00 1001.3
20260504235345 0 0 2.0 6.0 0.00 0.00 0.00 1001.3
20260504235335 0 0 3.0 6.0 0.00 0.00 0.00 1001.3
20260504235325 0 315 3.0 6.0 0.00 0.00 0.00 1001.3
20260504235315 0 0 4.0 6.0 0.00 0.00 0.00 1001.3
20260504235255 0 0 3.0 6.0 0.00 0.00 0.00 1001.2
20260504235245 0 0 3.0 6.0 0.00 0.00 0.00 1001.3
20260504235235 0 0 2.0 6.0 0.00 0.00 0.00 1001.3
20260504235225 0 315 2.0 6.0 0.00 0.00 0.00 1001.2
20260504235205 0 315 2.0 6.0 0.00 0.00 0.00 1001.3
20260504235155 0 0 2.0 6.0 0.00 0.00 0.00 1001.3
20260504235115 0 0 2.0 6.0 0.00 0.00 0.00 1001.3
20260504235105 0 315 2.0 6.0 0.00 0.00 0.00 1001.3
20260504235046 0 0 3.0 6.0 0.00 0.00 0.00 1001.3
20260504235036 0 315 3.0 6.0 0.00 0.00 0.00 1001.3
20260504235016 0 0 2.0 6.0 0.00 0.00 0.00 1001.3
20260504235006 0 315 2.0 6.0 0.00 0.00 0.00 1001.3
20260504234956 0 0 2.0 6.0 0.00 0.00 0.00 1001.4
20260504234946 0 0 2.0 4.0 0.00 0.00 0.00 1001.3
20260504234916 0 0 2.0 4.0 0.00 0.00 0.00 1001.4
20260504234906 0 0 2.0 4.0 0.00 0.00 0.00 1001.3
20260504234836 0 0 2.0 4.0 0.00 0.00 0.00 1001.4
20260504234826 0 315 2.0 4.0 0.00 0.00 0.00 1001.4
20260504234746 0 0 2.0 4.0 0.00 0.00 0.00 1001.4
20260504234736 0 315 2.0 4.0 0.00 0.00 0.00 1001.4
20260504234706 0 0 2.0 4.0 0.00 0.00 0.00 1001.4
20260504234656 0 0 2.0 2.0 0.00 0.00 0.00 1001.4
20260504234646 0 338 2.0 2.0 0.00 0.00 0.00 1001.4
20260504234636 0 315 2.0 2.0 0.00 0.00 0.00 1001.4
20260504234626 0 338 1.0 2.0 0.00 0.00 0.00 1001.4
20260504234606 0 0 1.0 2.0 0.00 0.00 0.00 1001.4
20260504234556 0 315 1.0 2.0 0.00 0.00 0.00 1001.4
20260504234516 0 0 0.0 2.0 0.00 0.00 0.00 1001.4
20260504234457 0 315 0.0 2.0 0.00 0.00 0.00 1001.4
20260504234427 0 0 0.0 2.0 0.00 0.00 0.00 1001.4
20260504234417 0 315 0.0 2.0 0.00 0.00 0.00 1001.5
20260504234357 0 0 0.0 2.0 0.00 0.00 0.00 1001.5
20260504234337 0 315 0.0 2.0 0.00 0.00 0.00 1001.4
20260504234327 0 0 0.0 2.0 0.00 0.00 0.00 1001.4
20260504234307 0 0 0.0 2.0 0.00 0.00 0.00 1001.5
20260504234257 0 45 0.0 2.0 0.00 0.00 0.00 1001.4
20260504234237 0 315 0.0 2.0 0.00 0.00 0.00 1001.4
20260504234227 0 315 0.0 2.0 0.00 0.00 0.00 1001.5
20260504234147 0 0 0.0 2.0 0.00 0.00 0.00 1001.4
20260504234107 0 0 0.0 2.0 0.00 0.00 0.00 1001.5
20260504234057 0 0 0.0 2.0 0.00 0.00 0.00 1001.4
20260504234047 0 315 0.0 2.0 0.00 0.00 0.00 1001.5
20260504234037 0 315 0.0 3.0 0.00 0.00 0.00 1001.4
20260504234027 0 315 0.0 3.0 0.00 0.00 0.00 1001.5
20260504233957 0 315 0.0 3.0 0.00 0.00 0.00 1001.4
20260504233927 0 0 0.0 3.0 0.00 0.00 0.00 1001.4
20260504233918 0 315 0.0 3.0 0.00 0.00 0.00 1001.4
20260504233908 0 315 0.0 3.0 0.00 0.00 0.00 1001.5
20260504233838 0 315 0.0 3.0 0.00 0.00 0.00 1001.4
20260504233828 0 315 0.0 3.0 0.00 0.00 0.00 1001.5
20260504233818 0 270 0.0 3.0 0.00 0.00 0.00 1001.4
20260504233758 0 0 0.0 3.0 0.00 0.00 0.00 1001.4
20260504233748 0 315 0.0 3.0 0.00 0.00 0.00 1001.4
20260504233708 0 315 0.0 3.0 0.00 0.00 0.00 1001.4
20260504233658 0 315 0.0 3.0 0.00 0.00 0.00 1001.5
20260504233648 0 0 1.0 3.0 0.00 0.00 0.00 1001.5
20260504233628 0 0 1.0 3.0 0.00 0.00 0.00 1001.4
20260504233558 0 0 2.0 3.0 0.00 0.00 0.00 1001.4
20260504233548 0 315 2.0 4.0 0.00 0.00 0.00 1001.4
20260504233528 0 0 2.0 4.0 0.00 0.00 0.00 1001.4
20260504233518 0 0 1.0 4.0 0.00 0.00 0.00 1001.5
20260504233508 0 0 1.0 4.0 0.00 0.00 0.00 1001.4
20260504233428 0 0 1.0 4.0 0.00 0.00 0.00 1001.4
20260504233418 0 0 2.0 5.0 0.00 0.00 0.00 1001.5
20260504233408 0 0 2.0 5.0 0.00 0.00 0.00 1001.4
20260504233358 0 0 1.0 5.0 0.00 0.00 0.00 1001.5
20260504233348 0 0 1.0 5.0 0.00 0.00 0.00 1001.4
20260504233318 0 315 1.0 5.0 0.00 0.00 0.00 1001.5
20260504233309 0 0 1.0 5.0 0.00 0.00 0.00 1001.4
20260504233249 0 0 1.0 5.0 0.00 0.00 0.00 1001.5
20260504233219 0 0 2.0 5.0 0.00 0.00 0.00 1001.5
20260504233159 0 315 2.0 5.0 0.00 0.00 0.00 1001.4
20260504233139 0 315 2.0 5.0 0.00 0.00 0.00 1001.5
20260504233059 0 315 2.0 5.0 0.00 0.00 0.00 1001.5
20260504233049 0 0 1.0 5.0 0.00 0.00 0.00 1001.5
20260504233039 0 315 1.0 5.0 0.00 0.00 0.00 1001.5
20260504233009 0 293 2.0 5.0 0.00 0.00 0.00 1001.5
20260504232959 0 315 2.0 5.0 0.00 0.00 0.00 1001.5
20260504232949 0 0 2.0 5.0 0.00 0.00 0.00 1001.5
20260504232939 0 315 2.0 8.0 0.00 0.00 0.00 1001.5
20260504232909 0 270 2.0 8.0 0.00 0.00 0.00 1001.5
20260504232859 0 0 2.0 8.0 0.00 0.00 0.00 1001.5
20260504232839 0 315 3.0 8.0 0.00 0.00 0.00 1001.5
20260504232829 0 315 2.0 8.0 0.00 0.00 0.00 1001.5
20260504232809 0 0 3.0 8.0 0.00 0.00 0.00 1001.5
20260504232749 0 315 3.0 8.0 0.00 0.00 0.00 1001.5
20260504232739 0 293 3.0 8.0 0.00 0.00 0.00 1001.6
20260504232729 0 270 3.0 8.0 0.00 0.00 0.00 1001.5
20260504232719 0 270 3.0 8.0 0.00 0.00 0.00 1001.6
20260504232710 0 315 2.0 8.0 0.00 0.00 0.00 1001.6
20260504232700 0 293 2.0 8.0 0.00 0.00 0.00 1001.5
20260504232650 0 315 3.0 8.0 0.00 0.00 0.00 1001.5
20260504232620 0 293 3.0 8.0 0.00 0.00 0.00 1001.6
20260504232610 0 315 3.0 8.0 0.00 0.00 0.00 1001.5
20260504232600 0 315 3.0 8.0 0.00 0.00 0.00 1001.6
20260504232550 0 0 3.0 8.0 0.00 0.00 0.00 1001.5
20260504232540 0 0 4.0 8.0 0.00 0.00 0.00 1001.5
20260504232530 0 270 4.0 8.0 0.00 0.00 0.00 1001.5
20260504232510 0 293 4.0 8.0 0.00 0.00 0.00 1001.6
20260504232500 0 315 4.0 8.0 0.00 0.00 0.00 1001.5
20260504232450 0 270 4.0 8.0 0.00 0.00 0.00 1001.6
20260504232430 0 315 3.0 6.0 0.00 0.00 0.00 1001.6
20260504232420 0 338 2.0 6.0 0.00 0.00 0.00 1001.6
20260504232410 0 0 2.0 5.0 0.00 0.00 0.00 1001.6
20260504232350 0 0 2.0 5.0 0.00 0.00 0.00 1001.5
20260504232340 0 45 2.0 5.0 0.00 0.00 0.00 1001.6
20260504232330 0 315 2.0 5.0 0.00 0.00 0.00 1001.6
20260504232310 0 270 2.0 5.0 0.00 0.00 0.00 1001.6
20260504232300 0 315 2.0 5.0 0.00 0.00 0.00 1001.5
20260504232250 0 315 2.0 5.0 0.00 0.00 0.00 1001.6
20260504232240 0 0 3.0 5.0 0.00 0.00 0.00 1001.5
20260504232230 0 315 3.0 5.0 0.00 0.00 0.00 1001.5
20260504232220 0 270 2.0 5.0 0.00 0.00 0.00 1001.6
20260504232150 0 315 2.0 5.0 0.00 0.00 0.00 1001.6
20260504232130 0 315 3.0 5.0 0.00 0.00 0.00 1001.6
20260504232111 0 0 3.0 5.0 0.00 0.00 0.00 1001.6
20260504232051 0 315 3.0 5.0 0.00 0.00 0.00 1001.6
20260504232041 0 0 2.0 5.0 0.00 0.00 0.00 1001.6
20260504232021 0 270 2.0 5.0 0.00 0.00 0.00 1001.6
20260504232011 0 315 2.0 5.0 0.00 0.00 0.00 1001.6
20260504231941 0 270 2.0 5.0 0.00 0.00 0.00 1001.6
20260504231931 0 315 2.0 5.0 0.00 0.00 0.00 1001.6
20260504231921 0 293 2.0 5.0 0.00 0.00 0.00 1001.6
20260504231911 0 315 2.0 5.0 0.00 0.00 0.00 1001.7
20260504231901 0 338 2.0 5.0 0.00 0.00 0.00 1001.7
20260504231851 0 315 2.0 5.0 0.00 0.00 0.00 1001.6
20260504231831 0 0 2.0 5.0 0.00 0.00 0.00 1001.6
20260504231811 0 315 2.0 5.0 0.00 0.00 0.00 1001.7
20260504231741 0 315 2.0 5.0 0.00 0.00 0.00 1001.6
20260504231731 0 315 2.0 5.0 0.00 0.00 0.00 1001.7
20260504231721 0 293 2.0 5.0 0.00 0.00 0.00 1001.7
20260504231651 0 315 3.0 5.0 0.00 0.00 0.00 1001.7
20260504231631 0 315 3.0 6.0 0.00 0.00 0.00 1001.7
20260504231621 0 0 3.0 6.0 0.00 0.00 0.00 1001.7
20260504231601 0 270 3.0 6.0 0.00 0.00 0.00 1001.7
20260504231541 0 315 3.0 6.0 0.00 0.00 0.00 1001.7
20260504231532 0 293 3.0 6.0 0.00 0.00 0.00 1001.7
20260504231522 0 293 3.0 6.0 0.00 0.00 0.00 1001.8
20260504231502 0 315 3.0 6.0 0.00 0.00 0.00 1001.7
20260504231442 0 0 2.0 6.0 0.00 0.00 0.00 1001.7
20260504231432 0 315 2.0 6.0 0.00 0.00 0.00 1001.7
20260504231422 0 315 2.0 6.0 0.00 0.00 0.00 1001.8
20260504231352 0 315 2.0 6.0 0.00 0.00 0.00 1001.7
20260504231342 0 270 2.0 6.0 0.00 0.00 0.00 1001.7
20260504231332 0 315 2.0 6.0 0.00 0.00 0.00 1001.8
20260504231312 0 338 2.0 6.0 0.00 0.00 0.00 1001.8
20260504231252 0 315 2.0 6.0 0.00 0.00 0.00 1001.7
20260504231222 0 315 3.0 6.0 0.00 0.00 0.00 1001.7
20260504231212 0 315 3.0 6.0 0.00 0.00 0.00 1001.8
20260504231202 0 315 2.0 6.0 0.00 0.00 0.00 1001.8
20260504231152 0 270 2.0 6.0 0.00 0.00 0.00 1001.8
20260504231132 0 315 2.0 4.0 0.00 0.00 0.00 1001.8
20260504231052 0 315 2.0 4.0 0.00 0.00 0.00 1001.8
20260504231042 0 338 2.0 4.0 0.00 0.00 0.00 1001.8
20260504231022 0 315 2.0 4.0 0.00 0.00 0.00 1001.7
20260504231012 0 315 2.0 4.0 0.00 0.00 0.00 1001.8
20260504231002 0 338 2.0 4.0 0.00 0.00 0.00 1001.8
20260504230952 0 315 2.0 4.0 0.00 0.00 0.00 1001.9
20260504230923 0 315 2.0 4.0 0.00 0.00 0.00 1001.8
20260504230913 0 293 2.0 4.0 0.00 0.00 0.00 1001.8
20260504230853 0 315 2.0 5.0 0.00 0.00 0.00 1001.8
20260504230843 0 0 2.0 5.0 0.00 0.00 0.00 1001.9
20260504230813 0 0 2.0 5.0 0.00 0.00 0.00 1001.8
20260504230803 0 315 2.0 5.0 0.00 0.00 0.00 1001.8
20260504230753 0 315 2.0 6.0 0.00 0.00 0.00 1001.8
20260504230733 0 315 2.0 6.0 0.00 0.00 0.00 1001.9
20260504230713 0 315 2.0 6.0 0.00 0.00 0.00 1001.8
20260504230703 0 0 2.0 6.0 0.00 0.00 0.00 1001.8
20260504230653 0 0 2.0 6.0 0.00 0.00 0.00 1001.9
20260504230633 0 315 2.0 6.0 0.00 0.00 0.00 1001.9
20260504230603 0 0 2.0 6.0 0.00 0.00 0.00 1001.9
20260504230553 0 315 2.0 6.0 0.00 0.00 0.00 1001.9
20260504230513 0 315 2.0 6.0 0.00 0.00 0.00 1001.9
20260504230453 0 315 3.0 7.0 0.00 0.00 0.00 1001.9
20260504230443 0 0 3.0 7.0 0.00 0.00 0.00 1001.9
20260504230433 0 315 3.0 7.0 0.00 0.00 0.00 1002.0
20260504230403 0 315 3.0 7.0 0.00 0.00 0.00 1001.9
20260504230353 0 270 4.0 7.0 0.00 0.00 0.00 1002.0
20260504230343 0 315 4.0 7.0 0.00 0.00 0.00 1001.9
20260504230313 0 315 4.0 7.0 0.00 0.00 0.00 1002.0
20260504230303 0 338 4.0 8.0 0.00 0.00 0.00 1002.0
20260504230243 0 338 3.0 8.0 0.00 0.00 0.00 1002.0
20260504230234 0 315 3.0 8.0 0.00 0.00 0.00 1002.0
20260504230224 0 293 3.0 8.0 0.00 0.00 0.00 1002.0
20260504230214 0 0 3.0 8.0 0.00 0.00 0.00 1002.0
20260504230154 0 315 3.0 8.0 0.00 0.00 0.00 1002.0
20260504230134 0 270 3.0 8.0 0.00 0.00 0.00 1002.0
20260504230124 0 293 3.0 8.0 0.00 0.00 0.00 1002.0
20260504230114 0 315 3.0 8.0 0.00 0.00 0.00 1002.0
20260504230034 0 315 4.0 8.0 0.00 0.00 0.00 1002.0
20260504230014 0 315 5.0 8.0 0.00 0.00 0.00 1002.0
20260504230004 0 315 5.0 8.0 0.00 0.00 0.00 1002.1
20260504225924 0 315 5.0 8.0 0.00 0.00 0.00 1002.1
20260504225914 0 270 5.0 8.0 0.00 0.00 0.00 1002.1
20260504225854 0 293 5.0 8.0 0.00 0.00 0.00 1002.1
20260504225834 0 315 5.0 8.0 0.00 0.00 0.00 1002.1
20260504225814 0 293 5.0 8.0 0.00 0.00 0.00 1002.1
20260504225754 0 315 5.0 8.0 0.00 0.00 0.00 1002.1
20260504225734 0 270 5.0 8.0 0.00 0.00 0.00 1002.1
20260504225724 0 270 4.0 9.0 0.00 0.00 0.00 1002.1
20260504225714 0 315 4.0 9.0 0.00 0.00 0.00 1002.1
20260504225644 0 270 4.0 9.0 0.00 0.00 0.00 1002.1
20260504225605 0 270 4.0 9.0 0.00 0.00 0.00 1002.1
20260504225525 0 315 4.0 9.0 0.00 0.00 0.00 1002.1
20260504225515 0 293 4.0 9.0 0.00 0.00 0.00 1002.1
20260504225455 0 293 5.0 9.0 0.00 0.00 0.00 1002.1
20260504225445 0 315 4.0 9.0 0.00 0.00 0.00 1002.1
20260504225435 0 270 4.0 9.0 0.00 0.00 0.00 1002.1
20260504225415 0 293 5.0 9.0 0.00 0.00 0.00 1002.1
20260504225405 0 315 5.0 9.0 0.00 0.00 0.00 1002.1
20260504225355 0 315 6.0 9.0 0.00 0.00 0.00 1002.1
20260504225345 0 270 6.0 9.0 0.00 0.00 0.00 1002.1
20260504225315 0 315 6.0 9.0 0.00 0.00 0.00 1002.1
20260504225255 0 293 6.0 9.0 0.00 0.00 0.00 1002.1
20260504225235 0 315 6.0 9.0 0.00 0.00 0.00 1002.1
20260504225215 0 315 6.0 8.0 0.00 0.00 0.00 1002.1
20260504225145 0 270 6.0 8.0 0.00 0.00 0.00 1002.1
20260504225135 0 315 6.0 8.0 0.00 0.00 0.00 1002.1
20260504225115 0 315 5.0 8.0 0.00 0.00 0.00 1002.0
20260504225105 0 270 5.0 8.0 0.00 0.00 0.00 1002.0
20260504225055 0 315 6.0 8.0 0.00 0.00 0.00 1002.0
20260504225046 0 293 6.0 8.0 0.00 0.00 0.00 1002.0
20260504225036 0 315 6.0 8.0 0.00 0.00 0.00 1002.1
20260504225006 0 315 6.0 8.0 0.00 0.00 0.00 1002.0
20260504224956 0 270 6.0 8.0 0.00 0.00 0.00 1002.0
20260504224936 0 315 5.0 8.0 0.00 0.00 0.00 1002.0
20260504224926 0 315 6.0 8.0 0.00 0.00 0.00 1002.0
20260504224846 0 315 6.0 8.0 0.00 0.00 0.00 1002.0
20260504224836 0 270 6.0 8.0 0.00 0.00 0.00 1002.0
20260504224826 0 315 5.0 8.0 0.00 0.00 0.00 1002.0
20260504224756 0 315 4.0 8.0 0.00 0.00 0.00 1002.0
20260504224746 0 315 5.0 8.0 0.00 0.00 0.00 1002.0
20260504224706 0 315 5.0 8.0 0.00 0.00 0.00 1002.0
20260504224646 0 315 6.0 8.0 0.00 0.00 0.00 1002.1
20260504224636 0 315 6.0 8.0 0.00 0.00 0.00 1002.0
20260504224626 0 293 5.0 8.0 0.00 0.00 0.00 1002.0
20260504224546 0 315 5.0 8.0 0.00 0.00 0.00 1002.0
20260504224536 0 315 5.0 8.0 0.00 0.00 0.00 1002.1
20260504224526 0 270 5.0 8.0 0.00 0.00 0.00 1002.1
20260504224447 0 315 5.0 8.0 0.00 0.00 0.00 1002.1
20260504224417 0 270 5.0 8.0 0.00 0.00 0.00 1002.1
20260504224407 0 315 5.0 8.0 0.00 0.00 0.00 1002.1
20260504224357 0 293 5.0 8.0 0.00 0.00 0.00 1002.1
20260504224327 0 315 5.0 8.0 0.00 0.00 0.00 1002.1
20260504224257 0 270 5.0 8.0 0.00 0.00 0.00 1002.1
20260504224247 0 315 5.0 8.0 0.00 0.00 0.00 1002.1
20260504224227 0 270 5.0 8.0 0.00 0.00 0.00 1002.2
20260504224217 0 270 5.0 8.0 0.00 0.00 0.00 1002.1
20260504224207 0 293 5.0 8.0 0.00 0.00 0.00 1002.1
20260504224147 0 315 5.0 8.0 0.00 0.00 0.00 1002.1
20260504224137 0 270 6.0 8.0 0.00 0.00 0.00 1002.1
20260504224127 0 270 5.0 8.0 0.00 0.00 0.00 1002.1
20260504224117 0 293 5.0 8.0 0.00 0.00 0.00 1002.2
20260504224107 0 315 5.0 8.0 0.00 0.00 0.00 1002.2
20260504224057 0 270 5.0 8.0 0.00 0.00 0.00 1002.2
20260504224037 0 293 5.0 7.0 0.00 0.00 0.00 1002.1
20260504224027 0 293 5.0 7.0 0.00 0.00 0.00 1002.2
20260504224017 0 270 5.0 8.0 0.00 0.00 0.00 1002.2
20260504223957 0 315 5.0 8.0 0.00 0.00 0.00 1002.2
20260504223947 0 293 5.0 8.0 0.00 0.00 0.00 1002.2
20260504223937 0 293 5.0 8.0 0.00 0.00 0.00 1002.1
20260504223927 0 315 4.0 8.0 0.00 0.00 0.00 1002.2
20260504223917 0 315 4.0 8.0 0.00 0.00 0.00 1002.1
20260504223858 0 293 4.0 8.0 0.00 0.00 0.00 1002.2
20260504223838 0 315 4.0 8.0 0.00 0.00 0.00 1002.2
20260504223758 0 315 4.0 8.0 0.00 0.00 0.00 1002.2
20260504223748 0 270 4.0 8.0 0.00 0.00 0.00 1002.2
20260504223738 0 293 4.0 8.0 0.00 0.00 0.00 1002.2
20260504223728 0 315 5.0 8.0 0.00 0.00 0.00 1002.2
20260504223708 0 270 5.0 8.0 0.00 0.00 0.00 1002.2
20260504223638 0 315 5.0 8.0 0.00 0.00 0.00 1002.2
20260504223628 0 293 5.0 8.0 0.00 0.00 0.00 1002.2
20260504223618 0 293 5.0 9.0 0.00 0.00 0.00 1002.2
20260504223608 0 315 5.0 9.0 0.00 0.00 0.00 1002.2
20260504223558 0 293 5.0 9.0 0.00 0.00 0.00 1002.3
20260504223548 0 315 6.0 9.0 0.00 0.00 0.00 1002.2
20260504223538 0 270 6.0 9.0 0.00 0.00 0.00 1002.2
20260504223528 0 293 6.0 9.0 0.00 0.00 0.00 1002.2
20260504223458 0 270 6.0 9.0 0.00 0.00 0.00 1002.2
20260504223448 0 315 6.0 9.0 0.00 0.00 0.00 1002.3
20260504223428 0 270 6.0 9.0 0.00 0.00 0.00 1002.3
20260504223418 0 293 6.0 9.0 0.00 0.00 0.00 1002.2
20260504223358 0 270 6.0 9.0 0.00 0.00 0.00 1002.2
20260504223348 0 270 6.0 10.0 0.00 0.00 0.00 1002.3
20260504223338 0 270 6.0 10.0 0.00 0.00 0.00 1002.2
20260504223328 0 293 6.0 10.0 0.00 0.00 0.00 1002.3
20260504223259 0 270 6.0 10.0 0.00 0.00 0.00 1002.3
20260504223249 0 0 6.0 10.0 0.00 0.00 0.00 1002.3
20260504223219 0 293 6.0 10.0 0.00 0.00 0.00 1002.3
20260504223159 0 270 6.0 10.0 0.00 0.00 0.00 1002.3
20260504223129 0 270 7.0 10.0 0.00 0.00 0.00 1002.3
20260504223059 0 270 6.0 10.0 0.00 0.00 0.00 1002.3
20260504223029 0 270 6.0 10.0 0.00 0.00 0.00 1002.4
20260504223019 0 270 6.0 10.0 0.00 0.00 0.00 1002.3
20260504222949 0 270 6.0 10.0 0.00 0.00 0.00 1002.4
20260504222939 0 270 6.0 10.0 0.00 0.00 0.00 1002.3
20260504222929 0 270 7.0 10.0 0.00 0.00 0.00 1002.4
20260504222919 0 270 7.0 10.0 0.00 0.00 0.00 1002.3
20260504222909 0 270 7.0 11.0 0.00 0.00 0.00 1002.3
20260504222839 0 270 7.0 11.0 0.00 0.00 0.00 1002.4
20260504222829 0 270 7.0 11.0 0.00 0.00 0.00 1002.3
20260504222749 0 270 7.0 11.0 0.00 0.00 0.00 1002.4
20260504222709 0 270 7.0 11.0 0.00 0.00 0.00 1002.4
20260504222659 0 270 7.0 11.0 0.00 0.00 0.00 1002.5
20260504222640 0 270 8.0 11.0 0.00 0.00 0.00 1002.4
20260504222620 0 270 8.0 11.0 0.00 0.00 0.00 1002.5
20260504222540 0 270 8.0 11.0 0.00 0.00 0.00 1002.5
20260504222500 0 270 8.0 11.0 0.00 0.00 0.00 1002.5
20260504222420 0 270 8.0 11.0 0.00 0.00 0.00 1002.5
20260504222410 0 270 8.0 11.0 0.00 0.00 0.00 1002.6
20260504222340 0 270 8.0 11.0 0.00 0.00 0.00 1002.5
20260504222330 0 248 8.0 11.0 0.00 0.00 0.00 1002.5
20260504222320 0 270 7.0 11.0 0.00 0.00 0.00 1002.6
20260504222300 0 270 7.0 11.0 0.00 0.00 0.00 1002.5
20260504222240 0 270 7.0 11.0 0.00 0.00 0.00 1002.6
20260504222200 0 270 8.0 11.0 0.00 0.00 0.00 1002.6
20260504222140 0 270 8.0 11.0 0.00 0.00 0.00 1002.5
20260504222130 0 270 7.0 11.0 0.00 0.00 0.00 1002.6
20260504222120 0 270 6.0 10.0 0.00 0.00 0.00 1002.6
20260504222110 0 225 6.0 9.0 0.00 0.00 0.00 1002.6
20260504222041 0 270 6.0 9.0 0.00 0.00 0.00 1002.5
20260504222031 0 270 6.0 9.0 0.00 0.00 0.00 1002.6
20260504221951 0 270 6.0 9.0 0.00 0.00 0.00 1002.6
20260504221941 0 225 6.0 9.0 0.00 0.00 0.00 1002.6
20260504221911 0 270 6.0 9.0 0.00 0.00 0.00 1002.6
20260504221831 0 270 6.0 8.0 0.00 0.00 0.00 1002.6
20260504221821 0 248 6.0 8.0 0.00 0.00 0.00 1002.6
20260504221801 0 270 5.0 8.0 0.00 0.00 0.00 1002.6
20260504221751 0 270 5.0 7.0 0.00 0.00 0.00 1002.6
20260504221741 0 225 5.0 7.0 0.00 0.00 0.00 1002.7
20260504221731 0 225 5.0 7.0 0.00 0.00 0.00 1002.6
20260504221711 0 270 5.0 7.0 0.00 0.00 0.00 1002.6
20260504221701 0 270 5.0 7.0 0.00 0.00 0.00 1002.7
20260504221651 0 248 5.0 7.0 0.00 0.00 0.00 1002.6
20260504221611 0 270 5.0 7.0 0.00 0.00 0.00 1002.6
20260504221531 0 270 4.0 7.0 0.00 0.00 0.00 1002.6
20260504221452 0 270 4.0 7.0 0.00 0.00 0.00 1002.6
20260504221422 0 270 4.0 8.0 0.00 0.00 0.00 1002.6
20260504221342 0 270 4.0 8.0 0.00 0.00 0.00 1002.6
20260504221302 0 270 4.0 8.0 0.00 0.00 0.00 1002.6
20260504221222 0 270 4.0 8.0 0.00 0.00 0.00 1002.6
20260504221202 0 270 3.0 8.0 0.00 0.00 0.00 1002.6
20260504221142 0 270 4.0 8.0 0.00 0.00 0.00 1002.7
20260504221132 0 270 4.0 10.0 0.00 0.00 0.00 1002.6
20260504221122 0 270 4.0 11.0 0.00 0.00 0.00 1002.7
20260504221112 0 248 4.0 11.0 0.00 0.00 0.00 1002.6
20260504221102 0 270 4.0 11.0 0.00 0.00 0.00 1002.6
20260504221052 0 225 4.0 11.0 0.00 0.00 0.00 1002.6
20260504221042 0 270 4.0 11.0 0.00 0.00 0.00 1002.7
20260504221012 0 270 5.0 11.0 0.00 0.00 0.00 1002.7
20260504220942 0 248 6.0 11.0 0.00 0.00 0.00 1002.7
20260504220932 0 270 6.0 11.0 0.00 0.00 0.00 1002.7
20260504220922 0 270 5.0 11.0 0.00 0.00 0.00 1002.7
20260504220843 0 270 5.0 11.0 0.00 0.00 0.00 1002.7
20260504220833 0 270 6.0 11.0 0.00 0.00 0.00 1002.6
20260504220813 0 270 6.0 11.0 0.00 0.00 0.00 1002.7
20260504220733 0 270 6.0 11.0 0.00 0.00 0.00 1002.7
20260504220713 0 270 7.0 11.0 0.00 0.00 0.00 1002.7
20260504220633 0 270 7.0 11.0 0.00 0.00 0.00 1002.7
20260504220603 0 270 6.0 9.0 0.00 0.00 0.00 1002.7
20260504220523 0 270 6.0 9.0 0.00 0.00 0.00 1002.7
20260504220443 0 270 6.0 9.0 0.00 0.00 0.00 1002.7
20260504220433 0 270 6.0 10.0 0.00 0.00 0.00 1002.7
20260504220353 0 270 6.0 10.0 0.00 0.00 0.00 1002.7
20260504220343 0 270 6.0 10.0 0.00 0.00 0.00 1002.8
20260504220304 0 270 6.0 10.0 0.00 0.00 0.00 1002.8
20260504220234 0 270 6.0 10.0 0.00 0.00 0.00 1002.7
20260504220224 0 270 6.0 10.0 0.00 0.00 0.00 1002.8
20260504220204 0 270 7.0 10.0 0.00 0.00 0.00 1002.8
20260504220134 0 270 6.0 10.0 0.00 0.00 0.00 1002.8
20260504220124 0 270 6.0 10.0 0.00 0.00 0.00 1002.7
20260504220104 0 270 6.0 11.0 0.00 0.00 0.00 1002.8
20260504220054 0 270 7.0 11.0 0.00 0.00 0.00 1002.7
20260504220014 0 270 7.0 11.0 0.00 0.00 0.00 1002.8
20260504215954 0 270 7.0 11.0 0.00 0.00 0.00 1002.9
20260504215934 0 270 7.0 11.0 0.00 0.00 0.00 1002.8
20260504215854 0 270 7.0 12.0 0.00 0.00 0.00 1002.8
20260504215814 0 270 7.0 12.0 0.00 0.00 0.00 1002.8
20260504215734 0 270 7.0 12.0 0.00 0.00 0.00 1002.8
20260504215705 0 270 8.0 12.0 0.00 0.00 0.00 1002.9
20260504215655 0 270 8.0 12.0 0.00 0.00 0.00 1002.8
20260504215635 0 225 8.0 12.0 0.00 0.00 0.00 1002.8
20260504215625 0 225 8.0 12.0 0.00 0.00 0.00 1002.9
20260504215615 0 270 8.0 12.0 0.00 0.00 0.00 1002.8
20260504215555 0 270 7.0 12.0 0.00 0.00 0.00 1002.8
20260504215525 0 270 7.0 12.0 0.00 0.00 0.00 1002.9
20260504215515 0 270 8.0 12.0 0.00 0.00 0.00 1002.9
20260504215435 0 270 8.0 12.0 0.00 0.00 0.00 1002.9
20260504215425 0 270 8.0 12.0 0.00 0.00 0.00 1002.8
20260504215415 0 270 8.0 11.0 0.00 0.00 0.00 1002.9
20260504215355 0 270 7.0 9.0 0.00 0.00 0.00 1002.9
20260504215335 0 270 7.0 10.0 0.00 0.00 0.00 1002.9
20260504215305 0 270 6.0 10.0 0.00 0.00 0.00 1002.9
20260504215225 0 270 6.0 10.0 0.00 0.00 0.00 1002.9
20260504215146 0 270 6.0 10.0 0.00 0.00 0.00 1002.9
20260504215106 0 270 6.0 10.0 0.00 0.00 0.00 1002.9
20260504215026 0 270 7.0 11.0 0.00 0.00 0.00 1002.9
20260504215006 0 248 7.0 11.0 0.00 0.00 0.00 1002.9
20260504214946 0 270 7.0 11.0 0.00 0.00 0.00 1002.9
20260504214906 0 270 7.0 11.0 0.00 0.00 0.00 1002.9
20260504214836 0 270 6.0 11.0 0.00 0.00 0.00 1002.9
20260504214806 0 225 6.0 11.0 0.00 0.00 0.00 1002.9
20260504214756 0 270 6.0 11.0 0.00 0.00 0.00 1002.9
20260504214746 0 248 7.0 11.0 0.00 0.00 0.00 1002.9
20260504214736 0 225 7.0 11.0 0.00 0.00 0.00 1002.9
20260504214716 0 270 7.0 11.0 0.00 0.00 0.00 1002.9
20260504214656 0 225 7.0 11.0 0.00 0.00 0.00 1002.9
20260504214646 0 225 8.0 11.0 0.00 0.00 0.00 1002.9
20260504214626 0 270 8.0 11.0 0.00 0.00 0.00 1002.9
20260504214606 0 225 8.0 11.0 0.00 0.00 0.00 1002.9
20260504214556 0 225 7.0 11.0 0.00 0.00 0.00 1002.9
20260504214537 0 225 6.0 11.0 0.00 0.00 0.00 1002.9
20260504214517 0 225 6.0 11.0 0.00 0.00 0.00 1003.0
20260504214457 0 225 6.0 11.0 0.00 0.00 0.00 1002.9
20260504214437 0 225 6.0 11.0 0.00 0.00 0.00 1003.0
20260504214417 0 225 7.0 11.0 0.00 0.00 0.00 1003.0
20260504214357 0 225 7.0 11.0 0.00 0.00 0.00 1002.9
20260504214347 0 225 7.0 12.0 0.00 0.00 0.00 1003.0
20260504214317 0 225 7.0 14.0 0.00 0.00 0.00 1003.0
20260504214307 0 225 6.0 14.0 0.00 0.00 0.00 1002.9
20260504214257 0 225 7.0 15.0 0.00 0.00 0.00 1003.0
20260504214247 0 225 7.0 16.0 0.00 0.00 0.00 1002.9
20260504214237 0 225 7.0 16.0 0.00 0.00 0.00 1003.0
20260504214227 0 225 6.0 16.0 0.00 0.00 0.00 1003.0
20260504214157 0 225 7.0 16.0 0.00 0.00 0.00 1003.0
20260504214137 0 225 7.0 16.0 0.00 0.00 0.00 1002.9
20260504214127 0 270 7.0 16.0 0.00 0.00 0.00 1003.0
20260504214107 0 225 7.0 16.0 0.00 0.00 0.00 1003.0
20260504214047 0 225 8.0 16.0 0.00 0.00 0.00 1002.9
20260504214017 0 225 8.0 16.0 0.00 0.00 0.00 1003.0
20260504213948 0 248 8.0 16.0 0.00 0.00 0.00 1003.0
20260504213938 0 225 8.0 16.0 0.00 0.00 0.00 1003.0
20260504213918 0 225 9.0 16.0 0.00 0.00 0.00 1003.0
20260504213908 0 225 10.0 16.0 0.00 0.00 0.00 1003.0
20260504213848 0 225 11.0 16.0 0.00 0.00 0.00 1003.0
20260504213818 0 270 12.0 16.0 0.00 0.00 0.00 1003.0
20260504213758 0 225 12.0 16.0 0.00 0.00 0.00 1003.0
20260504213738 0 225 11.0 16.0 0.00 0.00 0.00 1003.0
20260504213728 0 225 10.0 16.0 0.00 0.00 0.00 1003.0
20260504213718 0 270 10.0 15.0 0.00 0.00 0.00 1003.0
20260504213708 0 270 9.0 15.0 0.00 0.00 0.00 1003.0
20260504213638 0 225 9.0 14.0 0.00 0.00 0.00 1003.0
20260504213628 0 225 9.0 14.0 0.00 0.00 0.00 1002.9
20260504213618 0 225 10.0 14.0 0.00 0.00 0.00 1003.0
20260504213558 0 270 9.0 14.0 0.00 0.00 0.00 1003.0
20260504213548 0 248 9.0 14.0 0.00 0.00 0.00 1003.0
20260504213528 0 248 8.0 16.0 0.00 0.00 0.00 1003.0
20260504213508 0 225 8.0 16.0 0.00 0.00 0.00 1003.0
20260504213458 0 270 8.0 16.0 0.00 0.00 0.00 1003.0
20260504213448 0 248 8.0 16.0 0.00 0.00 0.00 1002.9
20260504213438 0 270 9.0 16.0 0.00 0.00 0.00 1003.0
20260504213428 0 225 9.0 16.0 0.00 0.00 0.00 1003.0
20260504213409 0 225 10.0 16.0 0.00 0.00 0.00 1003.0
20260504213349 0 225 9.0 16.0 0.00 0.00 0.00 1003.0
20260504213339 0 270 9.0 16.0 0.00 0.00 0.00 1002.9
20260504213329 0 270 9.0 16.0 0.00 0.00 0.00 1003.0
20260504213309 0 225 9.0 16.0 0.00 0.00 0.00 1003.0
20260504213229 0 225 10.0 16.0 0.00 0.00 0.00 1003.0
20260504213149 0 225 10.0 16.0 0.00 0.00 0.00 1003.0
20260504213139 0 225 10.0 16.0 0.00 0.00 0.00 1002.9
20260504213129 0 225 10.0 16.0 0.00 0.00 0.00 1003.1
20260504213119 0 248 10.0 16.0 0.00 0.00 0.00 1003.1
20260504213059 0 225 10.0 16.0 0.00 0.00 0.00 1003.0
20260504213049 0 225 10.0 16.0 0.00 0.00 0.00 1003.1
20260504213009 0 225 10.0 16.0 0.00 0.00 0.00 1003.0
20260504212959 0 225 9.0 16.0 0.00 0.00 0.00 1003.0
20260504212949 0 225 9.0 16.0 0.00 0.00 0.00 1003.1
20260504212929 0 225 8.0 16.0 0.00 0.00 0.00 1003.0
20260504212859 0 225 9.0 16.0 0.00 0.00 0.00 1003.0
20260504212839 0 225 10.0 16.0 0.00 0.00 0.00 1003.0
20260504212829 0 270 9.0 18.0 0.00 0.00 0.00 1003.0
20260504212810 0 225 8.0 18.0 0.00 0.00 0.00 1003.0
20260504212800 0 225 9.0 18.0 0.00 0.00 0.00 1003.0
20260504212750 0 270 8.0 18.0 0.00 0.00 0.00 1003.0
20260504212740 0 0 9.0 18.0 0.00 0.00 0.00 1003.0
20260504212720 0 225 10.0 18.0 0.00 0.00 0.00 1003.0
20260504212710 0 225 9.0 18.0 0.00 0.00 0.00 1003.0
20260504212700 0 248 9.0 18.0 0.00 0.00 0.00 1003.0
20260504212650 0 225 9.0 20.0 0.00 0.00 0.00 1003.1
20260504212630 0 225 9.0 20.0 0.00 0.00 0.00 1003.0
20260504212620 0 270 10.0 20.0 0.00 0.00 0.00 1003.0
20260504212600 0 225 10.0 20.0 0.00 0.00 0.00 1003.0
20260504212520 0 225 11.0 20.0 0.00 0.00 0.00 1003.1
20260504212510 0 225 10.0 20.0 0.00 0.00 0.00 1003.0
20260504212500 0 225 11.0 20.0 0.00 0.00 0.00 1003.0
20260504212450 0 248 10.0 20.0 0.00 0.00 0.00 1003.1
20260504212430 0 225 12.0 20.0 0.00 0.00 0.00 1003.0
20260504212420 0 225 12.0 20.0 0.00 0.00 0.00 1003.1
20260504212410 0 270 13.0 20.0 0.00 0.00 0.00 1003.0
20260504212350 0 225 13.0 20.0 0.00 0.00 0.00 1003.0
20260504212330 0 225 12.0 20.0 0.00 0.00 0.00 1003.1
20260504212320 0 225 12.0 20.0 0.00 0.00 0.00 1003.0
20260504212300 0 225 11.0 20.0 0.00 0.00 0.00 1003.0
20260504212240 0 225 12.0 20.0 0.00 0.00 0.00 1003.0
20260504212201 0 225 12.0 20.0 0.00 0.00 0.00 1003.0
20260504212141 0 225 10.0 20.0 0.00 0.00 0.00 1003.0
20260504212131 0 248 10.0 20.0 0.00 0.00 0.00 1003.0
20260504212121 0 225 11.0 20.0 0.00 0.00 0.00 1003.0
20260504212111 0 225 11.0 20.0 0.00 0.00 0.00 1002.9
20260504212101 0 270 11.0 20.0 0.00 0.00 0.00 1003.0
20260504212021 0 225 12.0 20.0 0.00 0.00 0.00 1003.0
20260504212001 0 225 14.0 20.0 0.00 0.00 0.00 1003.0
20260504211951 0 225 13.0 20.0 0.00 0.00 0.00 1003.0
20260504211941 0 225 13.0 20.0 0.00 0.00 0.00 1003.1
20260504211931 0 225 12.0 20.0 0.00 0.00 0.00 1003.0
20260504211921 0 270 12.0 20.0 0.00 0.00 0.00 1003.0
20260504211911 0 225 10.0 20.0 0.00 0.00 0.00 1003.1
20260504211901 0 248 10.0 20.0 0.00 0.00 0.00 1003.0
20260504211851 0 248 10.0 21.0 0.00 0.00 0.00 1003.0
20260504211841 0 270 9.0 22.0 0.00 0.00 0.00 1002.9
20260504211831 0 225 9.0 22.0 0.00 0.00 0.00 1002.9
20260504211821 0 225 10.0 22.0 0.00 0.00 0.00 1003.1
20260504211811 0 225 10.0 22.0 0.00 0.00 0.00 1003.0
20260504211751 0 225 11.0 22.0 0.00 0.00 0.00 1003.0
20260504211731 0 225 12.0 22.0 0.00 0.00 0.00 1003.0
20260504211721 0 225 11.0 22.0 0.00 0.00 0.00 1002.9
20260504211711 0 225 11.0 22.0 0.00 0.00 0.00 1003.0
20260504211632 0 225 12.0 22.0 0.00 0.00 0.00 1003.0
20260504211602 0 225 13.0 22.0 0.00 0.00 0.00 1003.0
20260504211552 0 225 13.0 22.0 0.00 0.00 0.00 1002.9
20260504211522 0 225 14.0 22.0 0.00 0.00 0.00 1003.0
20260504211512 0 248 14.0 22.0 0.00 0.00 0.00 1002.9
20260504211502 0 225 15.0 22.0 0.00 0.00 0.00 1003.0
20260504211452 0 225 15.0 22.0 0.00 0.00 0.00 1002.9
20260504211432 0 225 16.0 22.0 0.00 0.00 0.00 1002.9
20260504211422 0 270 15.0 22.0 0.00 0.00 0.00 1003.0
20260504211402 0 225 15.0 22.0 0.00 0.00 0.00 1002.9
20260504211352 0 225 15.0 22.0 0.00 0.00 0.00 1002.8
20260504211342 0 225 14.0 20.0 0.00 0.00 0.00 1003.0
20260504211332 0 270 14.0 20.0 0.00 0.00 0.00 1002.9
20260504211322 0 270 14.0 20.0 0.00 0.00 0.00 1003.0
20260504211312 0 225 13.0 20.0 0.00 0.00 0.00 1002.9
20260504211252 0 225 14.0 20.0 0.00 0.00 0.00 1002.9
20260504211242 0 225 14.0 20.0 0.00 0.00 0.00 1002.8
20260504211232 0 225 13.0 20.0 0.00 0.00 0.00 1002.9
20260504211222 0 225 12.0 20.0 0.00 0.00 0.00 1003.0
20260504211212 0 225 12.0 20.0 0.00 0.00 0.00 1002.9
20260504211202 0 270 11.0 18.0 0.00 0.00 0.00 1002.9
20260504211152 0 270 10.0 18.0 0.00 0.00 0.00 1002.9
20260504211142 0 225 10.0 16.0 0.00 0.00 0.00 1002.9
20260504211132 0 270 10.0 16.0 0.00 0.00 0.00 1002.9
20260504211102 0 225 10.0 16.0 0.00 0.00 0.00 1002.9
20260504211053 0 248 10.0 16.0 0.00 0.00 0.00 1002.9
20260504211043 0 270 10.0 17.0 0.00 0.00 0.00 1002.9
20260504211033 0 270 10.0 18.0 0.00 0.00 0.00 1002.9
20260504211023 0 270 9.0 18.0 0.00 0.00 0.00 1002.9
20260504211013 0 225 9.0 18.0 0.00 0.00 0.00 1002.9
20260504210953 0 270 10.0 18.0 0.00 0.00 0.00 1002.9
20260504210943 0 225 10.0 18.0 0.00 0.00 0.00 1002.9
20260504210913 0 270 10.0 18.0 0.00 0.00 0.00 1002.9
20260504210853 0 270 10.0 18.0 0.00 0.00 0.00 1002.8
20260504210843 0 225 10.0 18.0 0.00 0.00 0.00 1002.8
20260504210833 0 270 10.0 18.0 0.00 0.00 0.00 1002.9
20260504210823 0 225 9.0 18.0 0.00 0.00 0.00 1002.8
20260504210803 0 270 9.0 18.0 0.00 0.00 0.00 1002.9
20260504210743 0 270 9.0 18.0 0.00 0.00 0.00 1002.8
20260504210723 0 270 10.0 18.0 0.00 0.00 0.00 1002.9
20260504210713 0 270 11.0 18.0 0.00 0.00 0.00 1002.8
20260504210703 0 248 12.0 18.0 0.00 0.00 0.00 1002.9
20260504210653 0 248 12.0 18.0 0.00 0.00 0.00 1002.8
20260504210643 0 270 12.0 18.0 0.00 0.00 0.00 1002.9
20260504210633 0 270 13.0 18.0 0.00 0.00 0.00 1002.9
20260504210623 0 225 13.0 18.0 0.00 0.00 0.00 1002.9
20260504210613 0 248 13.0 18.0 0.00 0.00 0.00 1002.8
20260504210603 0 270 12.0 18.0 0.00 0.00 0.00 1002.8
20260504210553 0 225 12.0 18.0 0.00 0.00 0.00 1002.8
20260504210543 0 225 10.0 18.0 0.00 0.00 0.00 1002.8
20260504210533 0 225 10.0 15.0 0.00 0.00 0.00 1002.8
20260504210523 0 270 8.0 15.0 0.00 0.00 0.00 1002.8
20260504210513 0 225 8.0 14.0 0.00 0.00 0.00 1002.7
20260504210504 0 203 7.0 14.0 0.00 0.00 0.00 1002.8
20260504210454 0 270 6.0 11.0 0.00 0.00 0.00 1002.8
20260504210424 0 270 6.0 9.0 0.00 0.00 0.00 1002.7
20260504210404 0 225 6.0 9.0 0.00 0.00 0.00 1002.7
20260504210354 0 248 6.0 9.0 0.00 0.00 0.00 1002.7
20260504210344 0 225 6.0 8.0 0.00 0.00 0.00 1002.7
20260504210334 0 248 6.0 8.0 0.00 0.00 0.00 1002.6
20260504210324 0 270 6.0 8.0 0.00 0.00 0.00 1002.7
20260504210314 0 248 6.0 7.0 0.00 0.00 0.00 1002.6
20260504210304 0 270 6.0 7.0 0.00 0.00 0.00 1002.6
20260504210254 0 225 5.0 7.0 0.00 0.00 0.00 1002.6
20260504210244 0 225 4.0 7.0 0.00 0.00 0.00 1002.6
20260504210224 0 270 4.0 7.0 0.00 0.00 0.00 1002.6
20260504210214 0 270 3.0 7.0 0.00 0.00 0.00 1002.6
20260504210204 0 270 2.0 5.0 0.00 0.00 0.00 1002.6
20260504210134 0 270 2.0 4.0 0.00 0.00 0.00 1002.6
20260504210124 0 270 2.0 3.0 0.00 0.00 0.00 1002.6
20260504210114 0 315 2.0 3.0 0.00 0.00 0.00 1002.5
20260504210054 0 315 1.0 3.0 0.00 0.00 0.00 1002.5
20260504210034 0 270 1.0 3.0 0.00 0.00 0.00 1002.5
20260504210014 0 0 2.0 3.0 0.00 0.00 0.00 1002.5
20260504205954 0 315 1.0 3.0 0.00 0.00 0.00 1002.5
20260504205935 0 0 2.0 3.0 0.00 0.00 0.00 1002.5
20260504205905 0 315 1.0 3.0 0.00 0.00 0.00 1002.5
20260504205855 0 0 1.0 3.0 0.00 0.00 0.00 1002.5
20260504205825 0 315 1.0 3.0 0.00 0.00 0.00 1002.5
20260504205815 0 0 1.0 3.0 0.00 0.00 0.00 1002.5
20260504205745 0 315 1.0 3.0 0.00 0.00 0.00 1002.5
20260504205735 0 0 1.0 3.0 0.00 0.00 0.00 1002.5
20260504205725 0 315 1.0 5.0 0.00 0.00 0.00 1002.5
20260504205715 0 0 2.0 5.0 0.00 0.00 0.00 1002.5
20260504205645 0 315 2.0 5.0 0.00 0.00 0.00 1002.5
20260504205635 0 0 2.0 5.0 0.00 0.00 0.00 1002.5
20260504205625 0 315 2.0 5.0 0.00 0.00 0.00 1002.4
20260504205605 0 270 2.0 5.0 0.00 0.00 0.00 1002.4
20260504205545 0 315 2.0 5.0 0.00 0.00 0.00 1002.5
20260504205525 0 270 2.0 5.0 0.00 0.00 0.00 1002.4
20260504205515 0 0 2.0 5.0 0.00 0.00 0.00 1002.4
20260504205505 0 293 2.0 5.0 0.00 0.00 0.00 1002.4
20260504205445 0 315 2.0 5.0 0.00 0.00 0.00 1002.4
20260504205435 0 0 2.0 5.0 0.00 0.00 0.00 1002.4
20260504205425 0 45 2.0 5.0 0.00 0.00 0.00 1002.4
20260504205405 0 270 1.0 5.0 0.00 0.00 0.00 1002.4
20260504205356 0 315 2.0 5.0 0.00 0.00 0.00 1002.4
20260504205336 0 0 2.0 5.0 0.00 0.00 0.00 1002.4
20260504205326 0 270 2.0 5.0 0.00 0.00 0.00 1002.4
20260504205316 0 315 2.0 5.0 0.00 0.00 0.00 1002.4